[[{"header":{"parameterUnit":"m.s-1","parameterCategory":1,"la1":30.6,"la2":29.2853,"lo1":-89.7004,"lo2":-87.6739,"dy":0.0162,"dx":0.0183,"nx":112,"ny":82,"refTime":"2026-03-28T12:00:00:Z","depth":0,"parameterNumber":2,"parameterNumberName":"U-component_of_WINDS"},"data":[0.0,0.0,0.0,0.0,0.0,0.0,0.0,0.0,0.0,0.0,0.0,0.0,0.0,0.0,0.0,0.0,0.0,0.0,0.0,0.0,0.0,0.0,0.0,0.0,0.0,0.0,0.0,0.0,0.0,0.0,0.0,0.0,0.0,0.0,0.0,0.0,0.0,0.0,0.0,0.0,0.0,0.0,0.0,0.0,0.0,0.0,0.0,0.0,0.0,0.0,0.0,0.0,0.0,0.0,0.0,0.0,0.0,0.0,0.0,0.0,0.0,0.0,0.0,0.0,0.0,0.0,0.0,0.0,0.0,0.0,0.0,0.0,0.0,0.0,0.0,0.0,0.0,0.0,0.0,0.0,0.0,0.0,0.0,0.0,0.0,0.0,0.0,0.0,0.0,0.0,-5.2866,-5.7207,-6.4271,-6.8407,-6.7734,-6.6838,-6.4494,-6.0281,0.0,0.0,0.0,0.0,0.0,0.0,0.0,0.0,0.0,0.0,0.0,0.0,0.0,0.0,0.0,0.0,0.0,0.0,0.0,0.0,0.0,0.0,0.0,0.0,0.0,0.0,0.0,0.0,0.0,0.0,0.0,0.0,0.0,0.0,0.0,0.0,0.0,0.0,0.0,0.0,0.0,0.0,0.0,0.0,0.0,0.0,0.0,0.0,0.0,0.0,0.0,0.0,0.0,0.0,0.0,0.0,0.0,0.0,0.0,0.0,0.0,0.0,0.0,0.0,0.0,0.0,0.0,0.0,0.0,0.0,0.0,0.0,0.0,0.0,0.0,0.0,0.0,0.0,0.0,0.0,0.0,0.0,0.0,0.0,0.0,0.0,0.0,0.0,0.0,0.0,0.0,0.0,0.0,0.0,0.0,0.0,0.0,0.0,0.0,0.0,0.0,0.0,0.0,0.0,-5.4843,-6.1863,-6.6495,-6.8682,-6.7612,-6.7049,-6.4572,-5.9483,0.0,0.0,0.0,0.0,0.0,0.0,0.0,0.0,0.0,0.0,0.0,0.0,0.0,0.0,0.0,0.0,0.0,0.0,0.0,0.0,0.0,0.0,0.0,0.0,0.0,0.0,0.0,0.0,0.0,0.0,0.0,0.0,0.0,0.0,0.0,0.0,0.0,0.0,0.0,0.0,0.0,0.0,0.0,0.0,0.0,0.0,0.0,0.0,0.0,0.0,0.0,0.0,0.0,0.0,0.0,0.0,0.0,0.0,0.0,0.0,0.0,0.0,0.0,0.0,0.0,0.0,0.0,0.0,0.0,0.0,0.0,0.0,0.0,0.0,0.0,0.0,0.0,0.0,0.0,0.0,0.0,0.0,0.0,0.0,0.0,0.0,0.0,0.0,0.0,0.0,0.0,0.0,0.0,0.0,0.0,0.0,0.0,0.0,0.0,0.0,0.0,0.0,0.0,-5.4189,-5.8601,-6.2853,-6.5688,-6.6707,-6.5438,-6.4569,-6.2154,-5.7688,-5.3219,0.0,0.0,0.0,0.0,0.0,0.0,0.0,0.0,0.0,0.0,0.0,0.0,0.0,0.0,0.0,0.0,0.0,0.0,0.0,0.0,0.0,0.0,0.0,0.0,0.0,0.0,0.0,0.0,0.0,0.0,0.0,0.0,0.0,0.0,0.0,0.0,0.0,0.0,0.0,0.0,0.0,0.0,0.0,0.0,0.0,0.0,0.0,0.0,0.0,0.0,0.0,0.0,0.0,0.0,0.0,0.0,0.0,0.0,0.0,0.0,0.0,0.0,0.0,0.0,0.0,0.0,0.0,0.0,0.0,0.0,0.0,0.0,0.0,0.0,0.0,0.0,0.0,0.0,0.0,0.0,0.0,0.0,0.0,0.0,0.0,0.0,0.0,0.0,0.0,0.0,0.0,0.0,0.0,0.0,0.0,0.0,0.0,0.0,0.0,0.0,0.0,0.0,-5.9306,-6.2162,-6.3272,-6.4911,-6.523,-6.3414,-6.1965,-5.9474,-5.5554,-5.1368,0.0,0.0,0.0,0.0,0.0,0.0,0.0,0.0,0.0,0.0,0.0,0.0,0.0,0.0,0.0,0.0,0.0,0.0,0.0,0.0,0.0,0.0,0.0,0.0,0.0,0.0,0.0,0.0,0.0,0.0,0.0,0.0,0.0,0.0,0.0,0.0,0.0,0.0,0.0,0.0,0.0,0.0,0.0,0.0,0.0,0.0,0.0,0.0,0.0,0.0,0.0,0.0,0.0,0.0,0.0,0.0,0.0,0.0,0.0,0.0,0.0,0.0,0.0,0.0,0.0,0.0,0.0,0.0,0.0,0.0,0.0,0.0,0.0,0.0,0.0,0.0,0.0,0.0,0.0,0.0,0.0,0.0,0.0,0.0,0.0,0.0,0.0,0.0,0.0,0.0,0.0,0.0,0.0,0.0,0.0,0.0,0.0,0.0,0.0,0.0,0.0,0.0,-6.1635,-6.4465,-6.4568,-6.5987,-6.5711,-6.2846,-6.0531,-5.7482,-5.3206,-4.9415,0.0,0.0,0.0,0.0,0.0,0.0,0.0,0.0,0.0,0.0,0.0,0.0,0.0,0.0,0.0,0.0,0.0,0.0,0.0,0.0,0.0,0.0,0.0,0.0,0.0,0.0,0.0,0.0,0.0,0.0,0.0,0.0,0.0,0.0,0.0,0.0,0.0,0.0,0.0,0.0,0.0,0.0,0.0,0.0,0.0,0.0,0.0,0.0,0.0,0.0,0.0,0.0,0.0,0.0,0.0,0.0,0.0,0.0,0.0,0.0,0.0,0.0,0.0,0.0,0.0,0.0,0.0,0.0,0.0,0.0,0.0,0.0,0.0,0.0,0.0,0.0,0.0,0.0,0.0,0.0,0.0,0.0,0.0,0.0,0.0,0.0,0.0,0.0,0.0,0.0,0.0,0.0,0.0,0.0,0.0,0.0,0.0,0.0,0.0,0.0,0.0,0.0,-6.2461,-6.5083,-6.6014,-6.6221,-6.5255,-6.2703,-5.9944,-5.6696,-5.2765,0.0,0.0,0.0,0.0,0.0,0.0,0.0,0.0,0.0,0.0,0.0,0.0,0.0,0.0,0.0,0.0,0.0,0.0,0.0,0.0,0.0,0.0,0.0,0.0,0.0,0.0,0.0,0.0,0.0,0.0,0.0,0.0,0.0,0.0,0.0,0.0,0.0,0.0,0.0,0.0,0.0,0.0,0.0,0.0,0.0,0.0,0.0,0.0,0.0,0.0,0.0,0.0,0.0,0.0,0.0,0.0,0.0,0.0,0.0,0.0,0.0,0.0,0.0,0.0,0.0,0.0,0.0,0.0,0.0,0.0,0.0,0.0,0.0,0.0,0.0,0.0,0.0,0.0,0.0,0.0,0.0,0.0,0.0,0.0,0.0,0.0,0.0,0.0,0.0,0.0,0.0,0.0,0.0,0.0,0.0,0.0,0.0,0.0,0.0,0.0,0.0,0.0,-5.9633,-6.3319,-6.5765,-6.6876,-6.6738,-6.5462,-6.2703,-5.9875,-5.6562,-5.2581,0.0,0.0,0.0,0.0,0.0,0.0,0.0,0.0,0.0,0.0,0.0,0.0,0.0,0.0,0.0,0.0,0.0,0.0,0.0,0.0,0.0,0.0,0.0,0.0,0.0,0.0,0.0,0.0,0.0,0.0,0.0,0.0,0.0,0.0,0.0,0.0,0.0,0.0,0.0,0.0,0.0,0.0,0.0,0.0,0.0,0.0,0.0,0.0,0.0,0.0,0.0,0.0,0.0,0.0,0.0,0.0,0.0,0.0,0.0,0.0,0.0,0.0,0.0,0.0,0.0,0.0,0.0,0.0,0.0,0.0,0.0,0.0,0.0,0.0,0.0,0.0,0.0,0.0,0.0,0.0,0.0,0.0,0.0,0.0,0.0,0.0,0.0,0.0,0.0,0.0,0.0,0.0,0.0,0.0,0.0,0.0,0.0,0.0,0.0,0.0,0.0,0.0,-6.0288,-6.4446,-6.6745,-6.7014,-6.7669,-6.6566,-6.2841,-6.0392,-5.7116,0.0,0.0,0.0,0.0,0.0,0.0,0.0,0.0,0.0,0.0,0.0,0.0,0.0,0.0,0.0,0.0,0.0,0.0,0.0,0.0,0.0,0.0,0.0,0.0,0.0,0.0,0.0,0.0,0.0,0.0,0.0,0.0,0.0,0.0,0.0,0.0,0.0,0.0,0.0,0.0,0.0,0.0,0.0,0.0,0.0,0.0,0.0,0.0,0.0,0.0,0.0,0.0,0.0,0.0,0.0,0.0,0.0,0.0,0.0,0.0,0.0,0.0,0.0,0.0,0.0,0.0,0.0,0.0,0.0,0.0,0.0,0.0,0.0,0.0,0.0,0.0,0.0,0.0,0.0,0.0,0.0,0.0,0.0,0.0,0.0,0.0,0.0,0.0,0.0,0.0,0.0,0.0,0.0,0.0,0.0,0.0,0.0,0.0,0.0,0.0,0.0,0.0,0.0,-5.918,-6.3505,-6.6362,-6.7433,-6.7901,-6.7014,-6.4289,-6.2461,-5.9288,-5.4149,0.0,0.0,0.0,0.0,0.0,0.0,0.0,0.0,0.0,0.0,0.0,0.0,0.0,0.0,0.0,0.0,0.0,0.0,0.0,0.0,0.0,0.0,0.0,0.0,0.0,0.0,0.0,0.0,0.0,0.0,0.0,0.0,0.0,0.0,0.0,0.0,0.0,0.0,0.0,0.0,0.0,0.0,0.0,0.0,0.0,0.0,0.0,0.0,0.0,0.0,0.0,0.0,0.0,0.0,0.0,0.0,0.0,0.0,0.0,0.0,0.0,0.0,0.0,0.0,0.0,0.0,0.0,0.0,0.0,0.0,0.0,0.0,0.0,0.0,0.0,0.0,0.0,0.0,0.0,0.0,0.0,0.0,0.0,0.0,0.0,0.0,0.0,0.0,0.0,0.0,0.0,0.0,0.0,0.0,0.0,0.0,0.0,0.0,0.0,0.0,0.0,0.0,-5.8661,-6.3209,-6.6297,-6.7541,-6.8074,-6.7398,-6.5091,-6.4061,-6.1176,-5.5542,0.0,0.0,0.0,0.0,0.0,0.0,0.0,0.0,0.0,0.0,0.0,0.0,0.0,0.0,0.0,0.0,0.0,0.0,0.0,0.0,0.0,0.0,0.0,0.0,0.0,0.0,0.0,0.0,0.0,0.0,0.0,0.0,0.0,0.0,0.0,0.0,0.0,0.0,0.0,0.0,0.0,0.0,0.0,0.0,0.0,0.0,0.0,0.0,0.0,0.0,0.0,0.0,0.0,0.0,0.0,0.0,0.0,0.0,0.0,0.0,0.0,0.0,0.0,0.0,0.0,0.0,0.0,0.0,0.0,0.0,0.0,0.0,0.0,0.0,0.0,0.0,0.0,0.0,0.0,0.0,0.0,0.0,0.0,0.0,0.0,0.0,0.0,0.0,0.0,0.0,0.0,0.0,0.0,0.0,0.0,0.0,0.0,0.0,0.0,0.0,0.0,0.0,-5.835,-6.3178,-6.6269,-6.7223,-6.7974,-6.7564,-6.5449,-6.5176,-6.2616,-5.6713,0.0,0.0,0.0,0.0,0.0,0.0,0.0,0.0,0.0,0.0,0.0,0.0,0.0,0.0,0.0,0.0,0.0,0.0,0.0,0.0,0.0,0.0,0.0,0.0,0.0,0.0,0.0,0.0,0.0,0.0,0.0,0.0,0.0,0.0,0.0,0.0,0.0,0.0,0.0,0.0,0.0,0.0,0.0,0.0,0.0,0.0,0.0,0.0,0.0,0.0,0.0,0.0,0.0,0.0,0.0,0.0,0.0,0.0,0.0,0.0,-4.7458,-4.6178,0.0,0.0,0.0,0.0,0.0,0.0,0.0,0.0,0.0,0.0,0.0,0.0,0.0,0.0,0.0,0.0,0.0,0.0,0.0,0.0,0.0,0.0,0.0,0.0,0.0,0.0,0.0,0.0,0.0,0.0,0.0,0.0,0.0,0.0,0.0,0.0,0.0,0.0,0.0,0.0,-5.6205,-6.147,-6.4998,-6.574,-6.6651,-6.6735,-6.5684,-6.5074,-6.2634,-5.7751,-5.3111,0.0,0.0,0.0,0.0,0.0,0.0,0.0,0.0,0.0,0.0,0.0,0.0,0.0,0.0,0.0,0.0,0.0,0.0,0.0,0.0,0.0,0.0,0.0,0.0,0.0,0.0,0.0,0.0,0.0,0.0,0.0,0.0,0.0,0.0,0.0,0.0,0.0,0.0,0.0,0.0,0.0,0.0,0.0,0.0,0.0,0.0,0.0,0.0,0.0,0.0,0.0,0.0,0.0,0.0,0.0,0.0,0.0,0.0,0.0,-4.9964,-4.828,0.0,0.0,0.0,0.0,0.0,0.0,0.0,0.0,0.0,0.0,0.0,0.0,0.0,0.0,0.0,0.0,0.0,0.0,0.0,0.0,0.0,0.0,0.0,0.0,0.0,0.0,0.0,0.0,0.0,0.0,0.0,0.0,0.0,0.0,0.0,0.0,0.0,0.0,0.0,0.0,-5.4542,-5.9794,-6.3351,-6.4035,-6.4895,-6.5072,-6.4299,-6.3614,-6.1459,-5.7303,-5.293,0.0,0.0,0.0,0.0,0.0,0.0,0.0,0.0,0.0,0.0,0.0,0.0,0.0,0.0,0.0,0.0,0.0,0.0,0.0,0.0,0.0,0.0,0.0,0.0,0.0,0.0,0.0,0.0,0.0,0.0,0.0,0.0,0.0,0.0,0.0,0.0,0.0,0.0,0.0,0.0,0.0,0.0,0.0,0.0,0.0,0.0,0.0,0.0,0.0,0.0,0.0,0.0,0.0,-5.5962,-5.6333,-5.7045,-5.6767,-5.7036,-5.7374,-5.3819,-5.1943,-5.1432,-5.0646,0.0,0.0,0.0,0.0,0.0,0.0,0.0,0.0,0.0,0.0,0.0,0.0,0.0,0.0,0.0,0.0,0.0,0.0,0.0,0.0,0.0,0.0,-5.4531,-5.4157,-5.5213,-5.5043,-5.0487,0.0,0.0,0.0,0.0,0.0,0.0,0.0,0.0,0.0,0.0,0.0,-5.3437,-5.8473,-6.1782,-6.2442,-6.3218,-6.343,-6.2801,-6.204,-6.0198,-5.6872,-5.2699,-4.901,0.0,0.0,0.0,0.0,0.0,0.0,0.0,0.0,0.0,0.0,0.0,0.0,0.0,0.0,0.0,0.0,0.0,0.0,0.0,0.0,0.0,0.0,0.0,0.0,0.0,0.0,0.0,0.0,0.0,0.0,0.0,0.0,-5.0639,-5.0492,0.0,0.0,0.0,0.0,0.0,0.0,0.0,0.0,0.0,0.0,0.0,0.0,0.0,-5.405,-5.5587,-5.7669,-5.903,-5.9698,-6.031,-6.0947,-6.154,-6.0858,-6.0622,-6.0655,-5.9373,0.0,-5.4973,-5.4228,0.0,0.0,0.0,0.0,0.0,0.0,0.0,0.0,0.0,0.0,0.0,0.0,0.0,0.0,0.0,0.0,0.0,0.0,0.0,0.0,0.0,0.0,-5.7683,-5.8869,-6.0325,-6.096,-5.9418,-5.6217,-5.291,-5.0324,-4.855,-4.6344,0.0,0.0,0.0,0.0,0.0,0.0,-5.3438,-5.8105,-6.1113,-6.1209,-6.2395,-6.3164,-6.3068,-6.185,-6.0376,-5.8588,-5.5027,-5.1812,-4.9079,-4.5794,0.0,0.0,0.0,0.0,0.0,0.0,0.0,0.0,0.0,0.0,0.0,0.0,0.0,0.0,0.0,0.0,0.0,0.0,0.0,0.0,0.0,0.0,0.0,0.0,0.0,0.0,0.0,0.0,0.0,-5.1206,-5.1663,-5.1157,-5.0348,-4.9539,0.0,0.0,0.0,0.0,0.0,0.0,0.0,0.0,0.0,-5.3888,-5.4568,-5.6231,-5.9016,-6.0072,-6.1287,-6.2769,-6.3108,-6.3814,-6.485,-6.4546,-6.441,-6.4343,-6.3565,-6.2279,-6.0486,-5.7611,-5.5852,-5.4668,0.0,0.0,0.0,0.0,-5.1319,-5.3382,-5.4194,-5.3923,-5.3045,-5.1999,0.0,0.0,0.0,0.0,0.0,0.0,0.0,-5.0051,-5.3984,-5.7517,-6.0208,-6.0847,-6.2159,-6.3004,-6.2141,-6.0049,-5.7448,-5.4357,-5.1915,-4.9335,-4.6061,-4.2367,0.0,0.0,0.0,-4.8477,-5.2046,-5.6738,-5.9736,-5.9736,-6.0989,-6.1803,-6.1803,-6.0895,-5.9736,-5.831,-5.6011,-5.364,-5.1159,-4.8384,-4.6074,0.0,0.0,0.0,0.0,0.0,0.0,0.0,0.0,0.0,0.0,0.0,0.0,0.0,0.0,0.0,0.0,0.0,0.0,0.0,0.0,0.0,0.0,0.0,0.0,0.0,0.0,0.0,0.0,-5.2013,-5.2665,-5.2055,-5.1415,-5.0744,0.0,0.0,0.0,0.0,0.0,0.0,-5.2301,-5.2706,-5.4025,-5.6494,-5.6934,-5.849,-6.1264,-6.167,-6.2787,-6.4613,-6.4783,-6.5561,-6.6812,-6.6812,-6.6711,-6.6508,-6.5933,-6.5256,-6.4343,-6.0791,-5.9099,-5.8457,-5.5277,-5.4735,-5.5547,-5.4025,-5.4871,-5.7036,-5.8321,-5.8241,-5.7517,-5.6761,-5.4322,-5.1376,-4.9522,0.0,0.0,0.0,0.0,-5.3069,-5.6188,-5.9344,-6.1742,-6.1907,-6.2937,-6.3659,-6.2891,-6.2,-6.0455,-5.729,-5.4608,-5.1945,-4.8973,-4.4996,0.0,-4.5196,-4.6634,-4.8545,-5.1662,-5.5844,-5.8516,-5.8516,-5.9562,-6.027,-6.027,-5.9655,-5.8854,-5.7888,-5.6453,-5.4869,-5.3033,-5.0674,-4.8616,-4.6914,0.0,0.0,0.0,0.0,0.0,0.0,0.0,0.0,0.0,0.0,0.0,0.0,0.0,0.0,0.0,0.0,0.0,0.0,0.0,0.0,0.0,0.0,0.0,0.0,0.0,0.0,0.0,0.0,0.0,-5.3416,-5.3348,0.0,0.0,0.0,0.0,-5.3179,-5.3957,-5.4702,-5.5446,-5.6799,-5.7949,-5.8829,-6.025,-6.1129,-6.1298,-6.2685,-6.3802,-6.4613,-6.529,-6.6034,-6.6812,-6.6812,-6.644,-6.573,-6.5696,-6.5256,-6.4546,-6.3599,-6.2415,-6.096,-5.9336,-5.8727,-5.8626,-5.7137,-5.7983,-6.0013,-6.0858,-6.0907,-6.0567,-5.9823,-5.6006,-5.1533,-5.0755,-4.9432,0.0,0.0,-5.3157,-5.4656,-5.8292,-6.0417,-6.1789,-6.2483,-6.3242,-6.3552,-6.2626,-6.1806,-6.0693,-5.849,-5.667,-5.4495,-5.171,0.0,-4.8141,-4.9245,-4.9846,-5.11,-5.3565,-5.6165,-5.7857,-5.7857,-5.8454,-5.8885,-5.8885,-5.827,-5.7888,-5.7826,-5.6453,-5.5517,-5.4977,-5.3253,-5.1414,-4.9552,-4.6457,0.0,0.0,0.0,0.0,0.0,0.0,0.0,0.0,0.0,0.0,0.0,0.0,0.0,0.0,0.0,0.0,0.0,0.0,0.0,0.0,0.0,0.0,0.0,0.0,0.0,0.0,0.0,0.0,-5.5615,-5.6055,0.0,-5.5683,-5.5141,-5.5243,-5.6258,-5.7442,-5.8254,-5.8524,-5.9032,-5.9877,-6.1163,-6.1704,-6.2448,-6.3429,-6.3937,-6.458,-6.5324,-6.6068,-6.6542,-6.6846,-6.7286,-6.7117,-6.6373,-6.5899,-6.5527,-6.5256,-6.4512,-6.3632,-6.2516,-6.052,-6.0013,-6.0317,-5.8795,-5.9224,-6.0733,-6.1509,-6.1609,-6.1276,-6.0424,-5.8076,-5.5442,-5.4697,-5.3761,-5.3282,-5.4793,-5.5762,-5.6861,-5.9126,-6.0775,-6.1912,-6.2216,-6.2794,-6.3052,-6.1998,-6.0709,-5.9302,-5.7824,-5.6901,-5.578,-5.385,-5.1452,-5.0227,-5.1468,-5.1401,-5.2025,-5.4144,-5.6265,-5.753,-5.753,-5.7962,-5.8288,-5.8288,-5.8044,-5.7739,-5.7312,-5.6793,-5.6293,-5.5669,-5.4649,-5.3146,-5.1238,-4.7978,-4.4754,0.0,0.0,0.0,0.0,0.0,0.0,0.0,0.0,0.0,0.0,0.0,0.0,0.0,0.0,0.0,0.0,0.0,0.0,0.0,0.0,0.0,0.0,0.0,0.0,0.0,-5.5277,-5.7273,-5.7509,-5.8186,-5.8457,-5.7949,-5.7679,-5.7848,-5.8592,-5.981,-6.052,-6.052,-6.0723,-6.1332,-6.2347,-6.2618,-6.3226,-6.4241,-6.4478,-6.4952,-6.5696,-6.6203,-6.6576,-6.6846,-6.732,-6.7252,-6.6779,-6.6271,-6.5891,-6.5504,-6.4679,-6.3889,-6.304,-6.2032,-6.1806,-6.1941,-6.0926,-6.084,-6.1351,-6.1695,-6.156,-6.1166,-6.0683,-5.9425,-5.7995,-5.7774,-5.7115,-5.6615,-5.7352,-5.784,-5.8421,-5.963,-6.0652,-6.1298,-6.1047,-6.133,-6.1375,-6.0201,-5.8539,-5.7055,-5.6289,-5.6286,-5.6053,-5.4914,-5.3252,-5.2359,-5.3252,-5.3006,-5.3238,-5.4712,-5.6164,-5.7045,-5.6946,-5.7192,-5.7335,-5.7335,-5.7335,-5.7152,-5.6727,-5.6484,-5.615,-5.5645,-5.4764,-5.3459,-5.1698,-4.7904,-4.4161,-4.0618,0.0,0.0,0.0,0.0,0.0,0.0,0.0,0.0,0.0,0.0,0.0,0.0,0.0,0.0,0.0,0.0,0.0,0.0,0.0,0.0,0.0,0.0,0.0,-5.3585,-5.6122,-5.8287,-5.9032,-5.9776,-6.0216,-6.0216,-5.9573,-5.9471,-6.0114,-6.0926,-6.1366,-6.1332,-6.1975,-6.2347,-6.2347,-6.3091,-6.3497,-6.3531,-6.4241,-6.4986,-6.573,-6.573,-6.6102,-6.6812,-6.677,-6.677,-6.677,-6.677,-6.6238,-6.532,-6.4296,-6.335,-6.2616,-6.399,-6.4066,-6.3491,-6.3491,-6.2824,-6.1931,-6.1508,-6.087,-6.0329,-6.0795,-5.9967,-5.8916,-5.9532,-5.9103,-5.8532,-5.9093,-5.907,-5.8962,-5.9743,-5.9925,-5.9773,-5.9127,-5.9006,-5.8641,-5.7274,-5.5451,-5.407,-5.3962,-5.4861,-5.5438,-5.4775,-5.4714,-5.4745,-5.4745,-5.4745,0.0,-5.5272,-5.5944,-5.6274,-5.6028,-5.5979,-5.5979,-5.5979,-5.5979,-5.5979,-5.5948,-5.5341,-5.4977,-5.4947,-5.3702,-5.2366,-5.1,-4.6345,-4.2038,-3.8031,0.0,0.0,0.0,0.0,0.0,0.0,0.0,0.0,0.0,0.0,0.0,0.0,0.0,0.0,0.0,0.0,0.0,0.0,0.0,0.0,0.0,-5.3145,-5.5108,-5.5108,-5.8152,-6.0655,-6.1366,-6.2584,-6.3159,-6.2618,-6.2888,-6.2685,-6.1806,-6.2482,-6.2651,-6.211,-6.1772,-6.1603,-6.1603,-6.2313,-6.2956,-6.3497,-6.4749,-6.5764,-6.6508,-6.6508,-6.6609,-6.6812,-6.6677,-6.6592,-6.6592,-6.6388,-6.5952,-6.5326,-6.4057,-6.3153,-6.2591,-6.2155,-6.2191,-6.2482,-6.2482,-6.198,-6.1185,-6.0367,-5.9723,-5.9253,-5.9617,-5.9297,-5.8731,-5.8224,-5.7878,-5.7564,-5.7059,-5.6868,-5.697,-5.7618,-5.8164,-5.8468,-5.8337,-5.8671,-5.852,-5.6647,-5.5117,-5.3901,-5.3385,-5.354,-5.3847,-5.4104,-5.4988,-5.5628,-5.5628,-5.5628,-5.5688,-5.5792,-5.5808,-5.578,-5.5731,-5.5531,-5.5431,-5.5431,-5.5431,-5.522,-5.472,-5.451,-5.4179,-5.3717,-5.3357,-5.2094,-4.9809,-4.7031,-4.4178,0.0,0.0,0.0,0.0,0.0,0.0,0.0,0.0,0.0,0.0,0.0,0.0,0.0,0.0,0.0,0.0,0.0,0.0,0.0,0.0,0.0,0.0,-5.4668,-5.6833,-5.7476,-5.9708,-6.1569,-6.2313,-6.3159,-6.3497,-6.3091,-6.3429,-6.3328,-6.2448,-6.2787,-6.2854,-6.2415,-6.1366,-6.1095,-6.1738,-6.1873,-6.2584,-6.3971,-6.5121,-6.6068,-6.6812,-6.6812,-6.6686,-6.6482,-6.6259,-6.6086,-6.5834,-6.5614,-6.518,-6.4695,-6.3329,-6.2529,-6.2026,0.0,0.0,0.0,0.0,-6.0748,-5.9809,-5.9144,-5.8371,-5.77,-5.8116,-5.8162,-5.792,-5.7403,-5.6755,-5.6077,-5.5232,-5.4691,-5.4533,-5.5228,-5.6315,-5.7251,-5.7251,-5.7976,-5.8096,-5.6104,-5.4413,-5.3144,-5.2735,-5.2433,0.0,-5.3507,-5.4952,-5.5979,-5.5979,-5.5979,-5.5979,-5.583,-5.5681,-5.5581,-5.5431,-5.528,-5.5179,-5.5179,-5.5179,0.0,0.0,0.0,-5.3354,-5.2396,-5.2097,0.0,0.0,0.0,0.0,0.0,0.0,0.0,0.0,-4.1023,-4.2258,0.0,0.0,0.0,0.0,0.0,0.0,0.0,0.0,0.0,0.0,0.0,0.0,0.0,0.0,0.0,0.0,-5.6258,-5.8626,-6.0047,-6.0926,-6.1704,-6.2415,-6.2584,-6.2618,-6.2516,-6.2516,-6.2482,-6.2381,-6.2381,-6.2381,-6.2381,-6.1028,0.0,0.0,0.0,-6.2279,-6.4343,-6.5087,-6.5824,-6.6635,-6.6593,-6.6372,-6.6009,-6.5669,-6.527,-6.4786,-6.4466,-6.4049,-6.3546,-6.2333,-6.1549,-6.1029,-6.0789,-6.0707,-6.066,-6.0424,-5.9569,-5.8411,-5.8027,0.0,0.0,-5.6677,-5.6909,-5.6829,-5.6677,-5.5648,-5.4334,-5.3561,-5.2738,-5.2247,-5.2995,-5.461,-5.6077,-5.6166,-5.7184,-5.7573,-5.5628,-5.3743,-5.2396,-5.2336,-5.1828,-5.1828,-5.3084,-5.4737,-5.5929,-5.5929,-5.5929,-5.583,-5.5581,-5.5531,-5.5481,-5.5229,-5.5179,0.0,-5.5179,-5.5179,-5.5149,-5.5089,-5.3892,-5.2665,-5.1498,-5.0823,-5.0301,-4.9748,-4.9179,-4.8267,-4.71,-4.71,-4.7429,-4.8027,-4.5813,-4.5843,0.0,0.0,0.0,0.0,0.0,0.0,0.0,0.0,0.0,0.0,0.0,0.0,0.0,0.0,0.0,-5.5784,-5.8152,-6.0013,-6.0926,-6.1704,-6.2448,-6.3193,-6.3802,-6.3937,-6.3362,-6.3294,-6.3057,-6.2415,-6.2381,-6.2381,-6.2381,-6.1535,-6.1197,-6.1501,-6.1366,-6.1772,-6.2821,-6.3404,-6.4368,-6.5682,-6.5438,0.0,-6.5481,-6.4786,-6.4203,-6.3768,-6.3068,-6.2436,-6.1922,-6.1263,-6.0413,-5.9599,-6.0284,-6.055,-6.0501,-6.0253,-5.9551,-5.8603,-5.7721,-5.6793,-5.6009,-5.613,-5.621,-5.5979,-5.4643,-5.4032,0.0,-5.209,-5.1546,-5.1678,-5.2875,-5.4281,-5.5508,-5.6047,-5.7184,-5.7573,-5.5628,-5.4461,-5.3653,-5.3084,-5.2875,-5.3054,-5.3862,-5.477,-5.533,-5.533,-5.533,-5.533,-5.528,-5.528,-5.5229,-5.5179,-5.5179,-5.5179,-5.5179,-5.5179,-5.497,-5.4431,-5.3623,-5.3054,-5.2815,-5.2665,-5.2546,-5.2474,-5.2306,-5.2097,-5.1858,-5.1858,-5.2217,-5.2785,-4.9194,-4.8566,0.0,0.0,0.0,0.0,0.0,0.0,0.0,0.0,0.0,0.0,0.0,-4.8578,-5.0777,0.0,-5.5344,-5.7543,-5.9471,-6.096,-6.1738,-6.2144,-6.2516,-6.2922,-6.326,-6.3362,-6.299,-6.2956,-6.2787,-6.2415,-6.2381,-6.2381,-6.2381,-6.1704,-6.1467,-6.1839,-6.1501,-6.1801,-6.2763,-6.3087,-6.3706,-6.469,-6.4531,-6.459,-6.4673,-6.4021,-6.3491,-6.3084,-6.227,-6.1652,-6.1124,-6.0368,-5.9713,-5.9123,-5.9613,-5.9775,-5.9775,-5.9618,-5.9119,-5.8377,-5.7889,-5.6979,-5.6063,-5.6063,-5.5852,-5.54,-5.4258,-5.3428,-5.263,-5.1498,-5.0943,-5.096,-5.1947,-5.3683,-5.5359,-5.6068,-5.7423,-5.8171,-5.6496,-5.5897,-5.5359,-5.4371,-5.4192,-5.4311,-5.464,-5.497,-5.5179,-5.5179,-5.5179,-5.5179,-5.5179,-5.5179,-5.5179,-5.5179,-5.5179,-5.5179,-5.5179,-5.5179,-5.491,-5.4251,-5.3892,-5.3533,-5.3204,-5.3174,-5.3174,-5.3174,-5.3174,-5.3174,-5.3174,-5.3174,-5.3533,-5.4162,-5.2187,-5.1947,0.0,0.0,0.0,0.0,0.0,0.0,0.0,-4.5669,-4.5872,-4.8075,-4.9154,-5.0371,-5.2739,-5.4938,-5.7036,-5.9133,-6.0622,-6.1704,-6.2313,-6.2381,-6.2381,-6.2381,-6.2381,-6.2381,-6.2381,-6.2381,-6.2381,-6.2381,-6.2381,-6.2381,-6.2381,-6.1839,-6.1772,-6.2381,-6.1767,-6.1919,-6.2939,-6.2892,-6.3139,-6.371,-6.3668,-6.3653,-6.3693,-6.3166,-6.274,-6.2439,-6.1621,-6.0969,-6.0429,-5.969,-5.9315,-5.9099,-5.9099,-5.9099,-5.9099,-5.9099,-5.868,-5.8112,-5.8112,-5.7334,-5.6346,-5.6248,-5.5807,-5.5239,-5.4431,-5.3443,-5.2456,-5.1798,-5.1229,-5.096,-5.1618,-5.3473,-5.5388,-5.6166,-5.7663,-5.862,-5.7543,-5.7184,-5.6765,-5.5598,-5.5269,-5.5179,-5.5179,-5.5179,-5.5179,-5.5179,-5.5179,-5.5179,-5.5179,-5.5179,-5.5179,-5.5179,-5.5179,-5.5179,-5.5179,-5.5179,-5.497,-5.4431,-5.4401,-5.4162,-5.3593,-5.3563,-5.3563,-5.3563,-5.3563,-5.3563,-5.3563,-5.3563,-5.3862,-5.4401,-5.4401,-5.467,-4.5974,-4.6109,-4.6684,-4.6684,-4.7056,-4.7432,0.0,-4.7597,-4.8173,-5.034,-5.142,-5.2841,-5.575,-5.7577,-5.9167,-6.0791,-6.1738,-6.2313,-6.2381,-6.2381,-6.2381,-6.2381,-6.2381,-6.2381,-6.2381,-6.2381,-6.2381,-6.2381,-6.2381,-6.2381,-6.2381,-6.2313,-6.2313,-6.2381,-6.2122,-6.2003,-6.2131,-6.1803,-6.1965,-6.2657,-6.249,-6.2471,-6.2638,-6.2113,-6.1688,-6.1449,-6.0507,-5.9819,-5.9261,-5.9207,-5.9099,-5.9099,-5.9099,-5.9099,-5.9099,-5.9099,-5.868,-5.8112,-5.8112,-5.7633,-5.6885,-5.6346,-5.6188,-5.5837,-5.4581,-5.4102,-5.3832,-5.3144,-5.2905,-5.3025,-5.3713,-5.4521,-5.5508,-5.6705,-5.7633,-5.8201,-5.8052,-5.7513,-5.6885,-5.6196,-5.5598,-5.5179,-5.5179,-5.5179,-5.5179,-5.5179,-5.5179,-5.5179,-5.5179,-5.5179,-5.5179,-5.5179,-5.5179,-5.5179,-5.5179,-5.5179,-5.5149,-5.5089,-5.5089,-5.5029,-5.497,-5.497,-5.497,-5.497,-5.497,-5.497,-5.497,-5.497,-5.4999,-5.5089,-5.5089,-5.5119,-4.7394,-4.6887,-4.709,-4.8376,-4.8646,-4.8883,-5.0168,-5.0135,-5.0441,-5.2706,-5.3788,-5.4938,-5.7036,-5.866,-6.0013,-6.1129,-6.1907,-6.2381,-6.2381,-6.2302,-6.2189,-6.2189,-6.17,-6.1599,-6.2347,-6.2381,-6.2381,-6.2381,-6.2381,-6.2381,-6.2381,-6.2381,-6.2341,-6.2189,-6.2037,-6.1877,-6.1669,-6.1465,-6.1708,-6.2315,-6.179,-6.189,-6.254,-6.1593,-6.0833,-6.0353,-6.0071,-5.9636,-5.9099,-5.9099,-5.9099,-5.9099,-5.9099,-5.9099,-5.9099,-5.9099,-5.8919,-5.871,-5.871,-5.8261,-5.7663,-5.7393,-5.6795,-5.6128,-5.5508,-5.5089,-5.473,-5.4431,-5.4341,-5.4431,-5.47,-5.5269,-5.5897,-5.6436,-5.7363,-5.8022,-5.7603,-5.7304,-5.6915,-5.6338,-5.5658,-5.5179,-5.5179,-5.5508,-5.5628,-5.5239,-5.5179,-5.5179,-5.5179,-5.5179,-5.5179,-5.5179,-5.5179,-5.5179,-5.5179,-5.5179,-5.5179,-5.5179,-5.5179,-5.5179,-5.5179,-5.5179,-5.5179,-5.5179,-5.5179,-5.5179,-5.5179,-5.5179,-5.5179,-5.5179,-5.5179,-5.5388,-4.8139,-4.7665,-4.7834,-4.9627,-4.9864,-5.0135,-5.2164,-5.2232,-5.2503,-5.4735,-5.5649,-5.6461,-5.7915,-5.9235,-6.0351,-6.1163,-6.1907,-6.2381,-6.2302,-6.215,-6.1997,-6.1917,-6.1159,-6.0924,-6.1812,-6.1919,-6.1987,-6.2189,-6.2223,-6.2223,-6.2223,-6.2223,-6.211,-6.1917,-6.1837,-6.1676,-6.1383,-6.1342,-6.1518,-6.1881,-6.1351,-6.1396,-6.195,-6.0987,-6.0139,-5.945,-5.9771,-5.9636,-5.9099,-5.9099,-5.9099,-5.9099,-5.9099,-5.9099,-5.9099,-5.9099,-5.9099,-5.9099,-5.9099,-5.88,-5.8321,-5.7962,-5.7184,-5.6346,-5.6017,-5.5568,-5.5179,-5.5179,-5.5179,-5.5179,-5.5179,-5.5538,-5.5957,-5.6188,-5.7034,-5.7752,-5.7453,-5.7393,-5.7184,-5.6555,-5.5897,-5.5418,-5.5209,-5.5748,-5.5957,-5.5299,-5.5359,-5.5388,-5.5209,-5.5179,-5.5179,-5.5179,-5.5179,-5.5179,-5.5179,-5.5179,-5.5179,-5.5179,-5.5179,-5.5179,-5.5179,-5.5179,-5.5179,-5.5179,-5.5179,-5.5179,-5.5179,-5.5179,-5.5179,-5.5179,-5.5179,-5.5448,-4.7733,-4.8409,-4.912,-4.9898,-5.0608,-5.1555,-5.3112,-5.345,-5.4059,-5.6292,-5.6765,-5.7239,-5.8693,-5.9607,-6.0351,-6.1163,-6.1907,-6.2341,-6.2037,-6.1997,-6.1917,-6.175,-6.104,-6.0604,-6.0677,-6.0677,-6.0939,-6.1642,-6.1709,-6.1709,-6.1709,-6.1709,-6.1709,-6.1709,-6.1506,-6.1424,-6.1383,-6.121,-6.1119,-6.1152,-6.1119,-6.0868,-6.0466,-6.0288,-5.9656,-5.8662,-5.9527,-5.9606,-5.9099,-5.9099,-5.9099,-5.9099,-5.9099,-5.9099,-5.9099,-5.9099,-5.9099,-5.9099,-5.9099,-5.9099,-5.886,-5.7543,-5.7094,-5.6825,-5.5598,-5.5209,-5.5179,-5.5179,-5.5179,-5.5179,-5.5179,-5.5209,-5.5388,-5.6017,-5.6645,-5.7304,-5.7962,-5.8082,-5.7872,-5.7184,-5.6555,-5.5927,-5.5299,-5.5748,-5.5957,-5.5299,-5.5718,-5.5897,-5.5269,-5.5179,-5.5179,-5.5179,-5.5179,-5.5179,-5.5179,-5.5179,-5.5179,-5.5179,-5.5179,-5.5179,-5.5179,-5.5179,-5.5179,-5.5179,-5.5179,-5.5179,-5.5179,-5.5179,-5.5179,-5.5179,-5.5179,-5.5209,-4.9018,-4.9898,-5.0777,-5.2029,-5.2909,-5.3856,-5.5344,-5.5683,-5.6055,-5.7273,-5.7137,-5.7273,-5.8727,-5.8795,-5.9201,-6.1028,-6.1351,-6.1537,-6.1929,-6.1756,-6.1588,-6.1506,-6.0317,-5.9631,-6.013,-6.0445,-6.0705,-6.0939,-6.1441,-6.1709,-6.1709,-6.1709,-6.1628,-6.1506,-6.1424,-6.1334,-6.121,-6.1127,-6.1267,-6.156,-6.0892,-6.0016,-5.8927,-5.8829,-5.8319,-5.7567,-5.8607,-5.8844,-5.8501,-5.8919,-5.9099,-5.9099,-5.9099,-5.9099,-5.9099,-5.9099,-5.9099,-5.9099,-5.9099,-5.9099,-5.8949,-5.8052,-5.7453,-5.6944,-5.6107,-5.5538,-5.5179,-5.5179,-5.5179,-5.5179,-5.5179,-5.5508,-5.5897,-5.6188,-5.7004,-5.7842,-5.8082,-5.7752,-5.7363,-5.7124,-5.6585,-5.6158,-5.5867,-5.6735,-5.7393,-5.7184,-5.6226,-5.5448,-5.5209,-5.5179,-5.5179,-5.5179,-5.5179,-5.5179,-5.5179,-5.5179,-5.5179,-5.5179,-5.5179,-5.5179,-5.5179,-5.5179,-5.5179,-5.5179,-5.5179,-5.5179,-5.5179,-5.5179,-5.5179,-5.5179,-5.5179,-5.5418,-4.9695,-5.1048,-5.2266,-5.3247,-5.4262,-5.531,-5.6528,-5.6799,-5.6934,-5.7408,-5.6934,-5.6697,-5.7679,-5.7645,-5.8051,-5.9734,-6.0492,-6.1049,-6.1327,-6.142,-6.1383,-6.1293,-6.0107,-5.9496,-5.996,-5.9971,-5.9964,-5.9964,-6.0431,-6.0798,-6.1065,-6.1332,-6.1458,-6.1293,-6.1293,-6.1385,-6.1483,-6.1218,-6.1066,-6.099,-6.0064,-5.8899,-5.7653,-5.7669,-5.732,-5.6707,-5.7669,-5.8061,-5.8141,-5.859,-5.889,-5.9099,-5.9099,-5.9099,-5.9099,-5.9099,-5.9099,-5.9099,-5.9099,-5.9099,-5.9009,-5.8351,-5.7663,-5.7034,-5.6615,-5.6047,-5.5538,-5.5538,-5.5538,-5.5478,-5.5239,-5.5508,-5.5807,-5.5807,-5.6825,-5.7752,-5.7752,-5.7782,-5.7752,-5.7513,-5.7124,-5.6795,-5.6526,-5.7184,-5.7842,-5.8082,-5.6825,-5.5867,-5.5867,-5.5867,-5.5867,-5.5867,-5.5688,-5.5538,-5.5538,-5.5329,-5.5179,-5.5179,-5.5179,-5.5179,-5.5179,-5.5179,-5.5179,-5.5179,-5.5179,-5.5179,-5.5179,-5.5179,-5.5179,-5.5179,-5.5179,-5.5418,-4.9796,-5.1894,-5.3619,-5.3619,-5.4735,-5.6021,-5.6664,-5.6799,-5.6799,-5.6697,-5.6122,-5.5615,-5.5649,-5.619,-5.6829,-5.749,-5.9405,-6.0662,-6.0331,-6.0917,-6.1301,-6.1086,-6.0456,-5.9993,-5.9993,-5.9297,-5.8866,-5.8899,-5.8933,-5.9264,-6.0026,-6.0721,-6.1119,-6.1119,-6.1119,-6.145,-6.2221,-6.1475,-6.0581,-5.9543,-5.8592,-5.7621,-5.6572,-5.6755,-5.6587,-5.6166,-5.6765,-5.7423,-5.8022,-5.8052,-5.8471,-5.9069,-5.9069,-5.9069,-5.9099,-5.9099,-5.9099,-5.9099,-5.9099,-5.9099,-5.9009,-5.8351,-5.7693,-5.7124,-5.7094,-5.6675,-5.6226,-5.6248,-5.6218,-5.6017,-5.5359,-5.5209,-5.5239,-5.5239,-5.6226,-5.7154,-5.7154,-5.8141,-5.886,-5.8231,-5.8112,-5.7932,-5.7304,-5.7184,-5.7423,-5.8082,-5.7603,-5.7184,-5.7094,-5.7094,-5.7094,-5.7094,-5.6526,-5.6218,-5.6218,-5.5568,-5.5179,-5.5179,-5.5179,-5.5179,-5.5179,-5.5179,-5.5179,-5.5179,-5.5179,-5.5179,-5.5179,-5.5179,-5.5179,-5.5179,-5.5239,-5.5239,-5.1352,-5.3416,-5.5141,-5.5141,-5.6258,-5.7239,-5.6867,-5.6799,-5.6494,-5.5378,-5.4566,-5.4228,-5.4769,-5.4463,-5.4898,-5.722,-5.8265,-5.9137,-6.0158,-6.0828,-6.1161,-6.1119,-6.0456,-5.9993,-5.9993,-5.8833,-5.8303,-5.8866,-5.9396,-6.0059,-6.0788,-6.102,-6.1119,-6.1119,-6.1119,-6.145,-6.2221,-6.1478,-6.0434,-5.9056,-5.8133,-5.7132,-5.6066,-5.5981,-5.5772,-5.5478,-5.6137,-5.6496,-5.6705,-5.7154,-5.7752,-5.8381,-5.8381,-5.868,-5.9099,-5.9099,-5.9099,-5.9099,-5.9099,-5.9099,-5.9009,-5.8351,-5.7992,-5.7752,-5.7244,-5.6974,-5.6765,-5.6368,-5.6218,-5.6017,-5.5359,-5.5568,-5.5927,-5.5927,-5.6915,-5.7872,-5.7872,-5.8141,-5.8321,-5.8141,-5.8112,-5.8231,-5.853,-5.859,-5.865,-5.883,-5.871,-5.8231,-5.7214,-5.7094,-5.7094,-5.7094,-5.6526,-5.6218,-5.6218,-5.5568,-5.5179,-5.5179,-5.5179,-5.5179,-5.5179,-5.5179,-5.5179,-5.5179,-5.5179,-5.5179,-5.5179,-5.5179,-5.5179,-5.5209,-5.5688,-5.5927,-5.2503,-5.4465,-5.619,-5.619,-5.6799,-5.7306,-5.69,-5.6292,-5.5513,-5.4329,-5.2976,-5.2232,-5.2976,-5.264,-5.3078,-5.5629,-5.7176,-5.8447,-5.9531,-6.0506,-6.1119,-6.1119,-6.0755,-6.049,-6.049,-5.9429,-5.9065,-5.9827,-5.9661,-5.9827,-6.0589,-6.092,-6.1119,-6.1119,-6.1119,-6.1318,-6.1682,-6.1208,-6.0154,-5.8528,-5.7574,-5.6603,-5.5601,-5.5481,-5.533,-5.5209,-5.5598,-5.5897,-5.6248,-5.6555,-5.7064,-5.7693,-5.8022,-5.8351,-5.871,-5.9009,-5.9099,-5.9099,-5.9099,-5.9099,-5.9039,-5.868,-5.8351,-5.8112,-5.7992,-5.7782,-5.7483,-5.7124,-5.7034,-5.6885,-5.6196,-5.6286,-5.6585,-5.6585,-5.7363,-5.8112,-5.8112,-5.8351,-5.856,-5.856,-5.856,-5.868,-5.9039,-5.9099,-5.9099,-5.9099,-5.9099,-5.883,-5.8082,-5.7992,-5.7992,-5.7992,-5.7423,-5.7034,-5.7034,-5.6406,-5.6017,-5.6017,-5.6017,-5.6017,-5.6017,-5.6017,-5.6017,-5.6017,-5.6017,-5.6017,-5.6017,-5.6017,-5.6017,-5.6047,-5.6406,-5.6585,-5.3585,-5.5277,-5.6799,-5.6697,-5.6731,-5.6731,-5.6427,-5.5378,-5.4194,-5.3247,-5.1386,-5.0135,-5.0811,-5.0785,-5.1362,-5.3372,-5.5896,-5.7836,-5.8542,-5.9893,-6.0854,-6.0953,-6.0953,-6.0986,-6.1086,-6.0523,-6.0423,-6.1053,-5.9926,-5.9463,-6.0125,-6.0755,-6.1119,-6.1119,-6.1185,-6.1218,-6.1119,-6.0881,-5.9884,-5.8085,-5.7149,-5.6195,-5.5179,-5.5179,-5.5179,-5.5179,-5.5179,-5.5508,-5.6098,-5.6098,-5.6466,-5.7154,-5.7752,-5.8112,-5.8321,-5.889,-5.9099,-5.9099,-5.9099,-5.9099,-5.9099,-5.9099,-5.871,-5.8351,-5.8919,-5.871,-5.8231,-5.8141,-5.8112,-5.7962,-5.7274,-5.7094,-5.7094,-5.7094,-5.7633,-5.8112,-5.8112,-5.865,-5.9099,-5.9099,-5.9099,-5.9099,-5.9099,-5.9099,-5.9099,-5.9099,-5.9099,-5.9099,-5.9099,-5.9099,-5.9099,-5.9099,-5.853,-5.8112,-5.8112,-5.7483,-5.7094,-5.7094,-5.7094,-5.7094,-5.7094,-5.7094,-5.7094,-5.7094,-5.7094,-5.7094,-5.7094,-5.7094,-5.7094,-5.7094,-5.7132,-5.7191,-5.5108,-5.6055,-5.6664,-5.6055,-5.6359,-5.6325,-5.4499,-5.389,-5.3112,-5.1082,-4.9898,-4.9221,-4.9357,-4.914,-4.9622,-5.1831,-5.3853,-5.5591,-5.6879,-5.8336,-5.9496,-6.0125,-6.0191,-6.0423,-6.1053,-6.0986,-6.0953,-6.1086,-6.0854,-6.0788,-6.092,-6.1053,-6.1119,-6.1119,-6.1682,-6.1715,-6.1119,-6.0881,-5.9884,-5.8085,-5.7149,-5.6195,-5.5179,-5.5179,-5.5179,-5.5179,-5.5179,-5.5269,-5.5359,-5.5359,-5.6047,-5.7094,-5.7244,-5.7962,-5.8949,-5.9069,-5.9099,-5.9099,-5.9099,-5.9099,-5.9099,-5.9099,-5.9039,-5.8949,-5.9069,-5.9039,-5.883,-5.8291,-5.8112,-5.7962,-5.7274,-5.7094,-5.7094,-5.7094,-5.7633,-5.8112,-5.8112,-5.865,-5.9099,-5.9099,-5.9099,-5.9099,-5.9099,-5.9099,-5.9099,-5.9099,-5.9099,-5.9099,-5.9099,-5.9099,-5.9099,-5.9099,-5.853,-5.8112,-5.8112,-5.7483,-5.7094,-5.7094,-5.7094,-5.7094,-5.7094,-5.7094,-5.7094,-5.7094,-5.7094,-5.7094,-5.7094,-5.7094,-5.7094,-5.7124,-5.7428,-5.7589,-5.619,-5.6799,-5.7205,-5.6461,-5.5953,-5.5175,-5.3315,-5.2266,-5.1319,-4.983,-4.8951,-4.8443,-4.8443,-4.8166,-4.8619,-5.0861,-5.2753,-5.4593,-5.6415,-5.7972,-5.9164,-5.9926,-5.9993,-6.0291,-6.1053,-6.1119,-6.1119,-6.1119,-6.1119,-6.1119,-6.1119,-6.1119,-6.1119,-6.1119,-6.145,-6.145,-6.1119,-6.0522,-5.9499,-5.8085,-5.7149,-5.6195,-5.5179,-5.5179,-5.5179,-5.5179,-5.5179,-5.5388,-5.5718,-5.5718,-5.6256,-5.7124,-5.7483,-5.8022,-5.865,-5.8979,-5.9099,-5.9099,-5.9099,-5.9099,-5.9099,-5.9099,-5.9099,-5.9099,-5.9099,-5.9099,-5.9039,-5.871,-5.865,-5.856,-5.8231,-5.8141,-5.8141,-5.8141,-5.8411,-5.865,-5.865,-5.889,-5.9099,-5.9099,-5.9099,-5.9099,-5.9099,-5.9099,-5.9099,-5.9099,-5.9099,-5.9099,-5.9099,-5.9099,-5.9099,-5.9099,-5.883,-5.865,-5.865,-5.8321,-5.8141,-5.8141,-5.8141,-5.8141,-5.8141,-5.8141,-5.8141,-5.8141,-5.8141,-5.8141,-5.8141,-5.8141,-5.8141,-5.8141,-5.8232,-5.7917,-5.7036,-5.7442,-5.7679,-5.6799,-5.5581,-5.4093,-5.2232,-5.0913,-4.9796,-4.8748,-4.8071,-4.7631,-4.7432,-4.7157,-4.7613,-4.9689,-5.1522,-5.35,-5.5686,-5.7276,-5.8568,-5.9628,-5.9761,-6.0125,-6.102,-6.1119,-6.1119,-6.1119,-6.1119,-6.1119,-6.1119,-6.1119,-6.1119,-6.1119,-6.1044,-6.1002,-6.0961,-6.0033,-5.8998,-5.7932,-5.7053,-5.6145,-5.5179,-5.5179,-5.5179,-5.5179,-5.5179,-5.5478,-5.5957,-5.5957,-5.6406,-5.7154,-5.7693,-5.8082,-5.8411,-5.8919,-5.9099,-5.9099,-5.9099,-5.9099,-5.9099,-5.9099,-5.9099,-5.9099,-5.9099,-5.9099,-5.9099,-5.9099,-5.9099,-5.9099,-5.9099,-5.9099,-5.9099,-5.9099,-5.9099,-5.9099,-5.9099,-5.9099,-5.9099,-5.9099,-5.9099,-5.9099,-5.9099,-5.9099,-5.9099,-5.9099,-5.9099,-5.9099,-5.9099,-5.9099,-5.9099,-5.9099,-5.9099,-5.9099,-5.9099,-5.9099,-5.9099,-5.9099,-5.9099,-5.9099,-5.9099,-5.9099,-5.9099,-5.9099,-5.9099,-5.9099,-5.9099,-5.9099,-5.9099,-5.9099,-5.8719,-5.8055,-5.778,-5.7848,-5.7543,-5.6156,-5.5209,-5.3822,-5.0947,-5.0202,-4.9492,-4.7428,-4.6955,-4.6684,-4.6041,-4.5644,-4.5909,-4.7479,-4.926,-5.1247,-5.34,-5.499,-5.668,-5.8734,-5.8999,-5.9562,-6.0953,-6.1119,-6.1119,-6.1119,-6.1119,-6.1119,-6.1119,-6.1119,-6.1119,-6.1119,-6.0877,-6.0633,-6.0496,-5.9508,-5.8532,-5.7449,-5.6669,-5.5948,-5.5179,-5.5179,-5.5179,-5.5179,-5.5179,-5.5209,-5.5269,-5.5269,-5.5987,-5.7094,-5.7154,-5.7932,-5.9009,-5.9069,-5.9099,-5.9099,-5.9099,-5.9099,-5.9099,-5.9099,-5.9099,-5.9099,-5.9099,-5.9099,-5.9099,-5.9099,-5.9099,-5.9099,-5.9099,-5.9099,-5.9099,-5.9099,-5.9099,-5.9099,-5.9099,-5.9099,-5.9099,-5.9099,-5.9099,-5.9099,-5.9099,-5.9099,-5.9099,-5.9099,-5.9099,-5.9099,-5.9099,-5.9099,-5.9099,-5.9099,-5.9099,-5.9099,-5.9099,-5.9099,-5.9099,-5.9099,-5.9099,-5.9099,-5.9099,-5.9099,-5.9099,-5.9099,-5.9099,-5.9099,-5.9099,-5.9099,-5.9099,-5.9099,-5.85,-5.7722,-5.7239,-5.7543,-5.7543,-5.6089,-5.4837,-5.3145,-5.0135,-4.9424,-4.8951,-4.7158,-4.7158,-4.7259,-4.6481,-4.574,-4.5671,-4.7178,-4.8228,-4.979,-5.244,-5.3665,-5.5123,-5.7309,-5.7574,-5.8171,-5.9628,-6.0191,-6.0622,-6.1086,-6.1119,-6.1119,-6.1119,-6.1119,-6.1119,-6.1119,-6.075,-6.0335,-5.9957,-5.8985,-5.7948,-5.6927,-5.6329,-5.575,-5.5179,-5.5179,-5.5179,-5.5179,-5.5179,-5.5418,-5.5777,-5.5777,-5.6555,-5.7723,-5.7723,-5.8291,-5.9099,-5.9099,-5.9099,-5.9099,-5.9099,-5.9099,-5.9099,-5.9099,-5.9099,-5.9099,-5.9099,-5.9099,-5.9099,-5.9099,-5.9099,-5.9099,-5.9099,-5.9099,-5.9099,-5.9099,-5.9099,-5.9099,-5.9099,-5.9099,-5.9099,-5.9099,-5.9099,-5.9099,-5.9099,-5.9099,-5.9099,-5.9099,-5.9099,-5.9099,-5.9099,-5.9099,-5.9099,-5.9099,-5.9099,-5.9099,-5.9099,-5.9099,-5.9099,-5.9099,-5.9099,-5.9099,-5.9099,-5.9099,-5.9099,-5.9099,-5.9099,-5.9099,-5.9099,-5.9099,-5.9099,-5.9099,-5.85,-5.7387,-5.6731,-5.734,-5.7543,-5.6089,-5.46,-5.2706,-4.9695,-4.9018,-4.8511,-4.6819,-4.7056,-4.7361,-4.6616,-4.5606,-4.5269,-4.6575,-4.7263,-4.8564,-5.1048,-5.2373,-5.3831,-5.5819,-5.6051,-5.6713,-5.8403,-5.9429,-6.0324,-6.1053,-6.1119,-6.102,-6.0788,-6.0788,-6.0788,-6.0788,-6.0252,-5.9675,-5.9076,-5.836,-5.7433,-5.6427,-5.6017,-5.5601,-5.5179,-5.5179,-5.5179,-5.5179,-5.5179,-5.5448,-5.5867,-5.5867,-5.6526,-5.7543,-5.7543,-5.8052,-5.88,-5.88,-5.8949,-5.9099,-5.9099,-5.9099,-5.9099,-5.9099,-5.9099,-5.9099,-5.9099,-5.9099,-5.9099,-5.9099,-5.9099,-5.9099,-5.9099,-5.9099,-5.9099,-5.9099,-5.9099,-5.9099,-5.9099,-5.9099,-5.9099,-5.9099,-5.9099,-5.9099,-5.9099,-5.9099,-5.9099,-5.9099,-5.9099,-5.9099,-5.9099,-5.9099,-5.9099,-5.9099,-5.9099,-5.9099,-5.9099,-5.9099,-5.9099,-5.9099,-5.9099,-5.9099,-5.9099,-5.9099,-5.9099,-5.9099,-5.8991,-5.8991,-5.8991,-5.8882,-5.8828,-5.8828,-5.814,-5.6765,-5.6596,-5.734,-5.7543,-5.6089,-5.46,-5.2706,-4.9695,-4.9018,-4.8376,-4.6177,-4.6312,-4.6583,-4.5838,-4.4836,-4.4365,-4.5072,-4.6198,-4.7438,-4.8928,-5.1015,-5.2937,-5.4361,-5.449,-5.5388,-5.7608,-5.9131,-6.0324,-6.1053,-6.1119,-6.0788,-6.0059,-6.0026,-6.0026,-6.0026,-5.9329,-5.854,-5.784,-5.7587,-5.6988,-5.5918,-5.57,-5.5481,-5.5179,-5.5179,-5.5179,-5.5179,-5.5179,-5.5179,-5.5209,-5.5209,-5.5598,-5.6248,-5.6248,-5.6974,-5.8141,-5.8141,-5.853,-5.9099,-5.9099,-5.9099,-5.9099,-5.9099,-5.9099,-5.9099,-5.9099,-5.9099,-5.9099,-5.9099,-5.9099,-5.9099,-5.9099,-5.9099,-5.9099,-5.9099,-5.9099,-5.9099,-5.9099,-5.9099,-5.9099,-5.9099,-5.9099,-5.9099,-5.9099,-5.9099,-5.9099,-5.9099,-5.9099,-5.9099,-5.9099,-5.9099,-5.9099,-5.9099,-5.9099,-5.9099,-5.9099,-5.9099,-5.9099,-5.9099,-5.9099,-5.9099,-5.9099,-5.9099,-5.9099,-5.9099,-5.8857,-5.8664,-5.8694,-5.839,-5.8195,-5.8195,-5.7332,-5.5701,-5.4499,-5.5446,-5.6055,-5.4566,-5.345,-5.1894,-4.8951,-4.8646,-4.8511,-4.6786,-4.6616,-4.6887,-4.7158,-4.5509,-4.4499,-4.5738,-4.5632,-4.6079,-4.8067,-4.9823,-5.1612,-5.3533,-5.509,-5.668,-5.8369,-5.8966,-5.9761,-6.102,-6.0531,-5.9968,-5.9539,-5.8462,-5.8256,-5.9231,-5.8418,-5.7721,-5.7254,-5.6606,-5.598,-5.5401,-5.5381,-5.528,-5.5179,-5.5179,-5.5179,-5.5179,-5.5179,-5.5179,-5.5179,-5.5179,-5.5598,-5.6218,-5.6218,-5.6974,-5.8112,-5.8112,-5.853,-5.9099,-5.9099,-5.9099,-5.9099,-5.9099,-5.9099,-5.9099,-5.9099,-5.9099,-5.9099,-5.9099,-5.9099,-5.9099,-5.9099,-5.9099,-5.9099,-5.9099,-5.9099,-5.9099,-5.9099,-5.9099,-5.9099,-5.9099,-5.9099,-5.9099,-5.9099,-5.9099,-5.9099,-5.9099,-5.9099,-5.9099,-5.9099,-5.9099,-5.9099,-5.9099,-5.9099,-5.9099,-5.9099,-5.9099,-5.9099,-5.9099,-5.9099,-5.9099,-5.9099,-5.9099,-5.9099,-5.9099,-5.8857,-5.836,-5.7693,-5.7358,-5.6793,-5.5906,-5.5001,-5.4112,-5.2841,-5.3957,-5.46,-5.3348,-5.2266,-5.0845,-4.8446,-4.8274,-4.824,-4.7056,-4.7022,-4.7259,-4.7462,-4.561,-4.4398,-4.5303,-4.48,-4.5052,-4.7272,-4.9094,-5.1115,-5.3533,-5.5786,-5.7475,-5.8403,-5.8734,-5.9396,-6.0589,-5.9705,-5.8855,-5.8237,-5.7057,-5.6626,-5.7004,-5.6838,-5.6475,-5.597,-5.5689,-5.5305,-5.482,-5.5059,-5.5179,-5.5179,-5.5179,-5.5179,-5.5179,-5.5179,-5.5179,0.0,-5.5179,-5.5448,-5.5807,-5.5807,-5.6466,-5.7393,-5.7393,-5.7962,-5.874,-5.874,-5.889,-5.9099,-5.9099,-5.9099,-5.9099,-5.9099,-5.9099,-5.9099,-5.9099,-5.9099,-5.9099,-5.9099,-5.9099,-5.9099,-5.9099,-5.9099,-5.9099,-5.9099,-5.9099,-5.9099,-5.9099,-5.9099,-5.9099,-5.9099,-5.9099,-5.9099,-5.9099,-5.9099,-5.9099,-5.9099,-5.9099,-5.9099,-5.9099,-5.9099,-5.9099,-5.9099,-5.9099,-5.9099,-5.9099,-5.9099,-5.9099,-5.9099,-5.8991,-5.8936,-5.8936,-5.8335,-5.764,-5.6907,-5.628,-5.5412,-5.4378,-5.3691,-5.3113,0.0,-5.2672,-5.3145,-5.2266,-5.1116,-4.9763,-4.8206,-4.7906,0.0,-4.7022,-4.7394,-4.7631,-4.6989,-4.537,-4.4131,-4.4164,-4.3901,-4.4426,-4.6609,-4.8928,-5.1512,-5.4357,-5.6547,-5.7806,-5.7873,-5.8502,-5.9124,-5.9819,-5.8749,-5.7543,-5.6372,-5.5878,-5.5134,-5.3922,-5.4727,-5.4888,-5.4255,-5.4837,-5.4807,-5.4221,-5.482,-5.5149,-5.5179,-5.5179,-5.5179,-5.5179,-5.5179,-5.5179,-5.5179,-5.5179,-5.5179,-5.5179,-5.5179,-5.5598,-5.6218,-5.6218,-5.7004,-5.8112,-5.8112,-5.856,-5.9099,-5.9099,-5.9099,-5.9099,-5.9099,-5.9099,-5.9099,-5.9099,-5.9099,-5.9099,-5.9099,-5.9099,-5.9099,-5.9099,-5.9099,-5.9099,-5.9099,-5.9099,-5.9099,-5.9099,-5.9099,-5.9099,-5.9099,-5.9099,-5.9099,-5.9099,-5.9099,-5.9129,-5.9159,-5.9189,-5.9189,-5.9249,-5.9249,-5.9219,-5.9189,-5.9129,-5.9099,-5.9099,-5.9099,-5.9099,-5.9099,-5.8828,-5.8694,-5.8609,-5.7332,-5.6509,-5.6164,-5.4967,-5.4041,-5.3552,-5.3247,-5.2783,-4.8951,0.0,-5.142,-5.0101,-5.0371,-5.027,0.0,-4.7936,-4.8545,-4.78,-4.7327,-4.7192,-4.7597,-4.5677,-4.4265,-4.4863,-4.4634,-4.5019,-4.6676,-5.022,-5.3765,-5.668,-5.7475,-5.8005,-5.8601,-5.8639,-5.8642,-5.861,-5.7418,-5.6272,-5.5484,-5.449,-5.3665,-5.3038,-5.3015,-5.3265,-5.3727,-5.3544,-5.3706,-5.4221,-5.4371,-5.47,-5.5179,-5.5179,-5.5179,-5.5179,-5.5179,-5.5179,-5.5179,-5.5179,-5.5179,-5.5179,-5.5179,-5.5598,-5.6218,-5.6218,-5.7004,-5.8112,-5.8112,-5.856,-5.9099,-5.9099,-5.9099,-5.9099,-5.9099,-5.9099,-5.9099,-5.9099,-5.9099,-5.9099,-5.9099,-5.9099,-5.9099,-5.9099,-5.9099,-5.9099,-5.9099,-5.9099,-5.9099,-5.9099,-5.9099,-5.9099,-5.9099,-5.9099,-5.9099,-5.9099,-5.9099,-5.9279,-5.9787,-5.9847,-6.0057,-6.0595,-6.0655,-6.0416,-5.9907,-5.9398,-5.9099,-5.9099,-5.9099,-5.9099,-5.9099,-5.8828,-5.8305,-5.7581,-5.5442,-5.4171,-5.3839,-5.3289,-5.2906,-5.2744,-5.3128,-5.3238,-4.8443,-4.9526,-5.027,-4.8443,-4.912,-4.9593,-4.7327,-4.7665,-4.8308,-4.7564,-4.7361,-4.7225,-4.6955,-4.5341,-4.4332,-4.5068,-4.4634,-4.5317,-4.8465,-5.2108,-5.5388,-5.7972,-5.8303,-5.8601,-5.933,-5.8518,-5.7806,-5.7371,-5.6015,-5.4835,-5.3978,-5.3135,-5.2487,-5.2033,-5.1849,-5.2139,-5.2795,-5.2791,-5.2959,-5.3294,-5.3922,-5.4401,-5.476,-5.5059,-5.5179,-5.5179,-5.5179,-5.5179,-5.5179,-5.5179,-5.5179,-5.5179,-5.5179,-5.5418,-5.5718,-5.5718,-5.6526,-5.7663,-5.7663,-5.8291,-5.9099,-5.9099,-5.9099,-5.9099,-5.9099,-5.9099,-5.9099,-5.9099,-5.9099,-5.9099,-5.9099,-5.9099,-5.9099,-5.9099,-5.9099,-5.9099,-5.9099,-5.9099,-5.9099,-5.9099,-5.9099,-5.9099,-5.9099,-5.9099,-5.9099,-5.9099,-5.9099,-5.9219,-5.9578,-5.9907,-6.0236,-6.0595,-6.0924,-6.0954,-6.0595,-6.0236,-5.9907,-5.9578,-5.9279,-5.9249,-5.9548,-5.8867,-5.7722,-5.6194,-5.4263,-5.3247,-5.305,-5.2707,-5.2642,-5.2929,-5.3243,-5.34,-4.8714,-4.9526,-4.9729,-4.753,-4.8003,-4.8612,-4.7124,-4.7293,-4.7564,-4.6921,-4.7225,-4.7225,-4.6075,-4.4971,-4.4566,-4.5403,-4.5103,-4.6378,-5.0949,-5.393,-5.6382,-5.8469,-5.8734,-5.8966,-5.9595,-5.8133,-5.6858,-5.621,-5.4783,-5.349,-5.2516,-5.2094,-5.1665,-5.1229,-5.1229,-5.1386,-5.1803,-5.2222,-5.2317,-5.2217,-5.3473,-5.4102,-5.4221,-5.488,-5.5179,-5.5209,-5.5299,-5.5269,-5.5209,-5.5299,-5.5269,-5.5179,-5.5179,-5.5179,-5.5179,-5.5179,-5.5987,-5.7124,-5.7334,-5.8141,-5.9099,-5.9099,-5.9099,-5.9099,-5.9099,-5.9099,-5.9099,-5.9099,-5.9099,-5.9099,-5.9099,-5.9099,-5.9099,-5.9099,-5.9099,-5.9099,-5.9099,-5.9099,-5.9099,-5.9099,-5.9099,-5.9099,-5.9099,-5.9099,-5.9099,-5.9099,-5.9099,-5.9129,-5.9249,-5.9847,-6.0266,-6.0386,-6.1014,-6.1373,-6.1283,-6.1253,-6.1014,-6.0416,-5.9787,-5.9613,-6.0096,-5.8785,-5.7167,-5.5249,-5.3836,-5.3121,-5.306,-5.2848,-5.3008,-5.353,-5.3609,-5.3661,-4.821,-4.9526,-5.0507,-4.8277,-4.8376,-4.8612,-4.7124,-4.6887,-4.6921,-4.6819,-4.638,-4.6177,-4.6549,-4.5744,-4.5503,-4.6843,-4.8794,-5.0783,-5.2804,-5.4523,-5.6216,-5.7773,-5.7972,-5.8005,-5.8138,-5.7346,-5.6343,-5.5076,-5.406,-5.3069,-5.2048,-5.1757,-5.1479,-5.1229,-5.1229,-5.1229,-5.1323,-5.1366,-5.1695,-5.2217,-5.2965,-5.3653,-5.4221,-5.488,-5.5179,-5.5209,-5.5777,-5.5718,-5.5239,-5.5777,-5.5688,-5.5179,-5.5179,-5.5179,-5.5179,-5.5179,-5.5987,-5.7244,-5.8411,-5.8919,-5.9099,-5.9099,-5.9099,-5.9099,-5.9099,-5.9099,-5.9099,-5.9099,-5.9099,-5.9099,-5.9099,-5.9099,-5.9099,-5.9099,-5.9099,-5.9099,-5.9099,-5.9099,-5.9099,-5.9099,-5.9099,-5.9099,-5.9099,-5.9099,-5.9099,-5.9099,-5.9099,-5.9308,-5.9847,-6.0535,-6.1164,-6.1732,-6.2391,-6.254,-6.2002,-6.1942,-6.1912,-6.1792,-6.1164,-6.0611,-6.0193,-5.8347,-5.6957,-5.6138,-5.427,-5.3357,-5.3307,-5.3713,-5.4001,-5.4105,-5.4602,-5.4837,-4.8612,-4.9255,-4.9796,-4.8748,-4.9357,-4.9695,-4.7834,-4.7699,-4.7767,-4.6955,-4.6515,-4.6278,-4.621,-4.598,-4.6483,-4.8594,-5.0588,-5.2373,-5.3798,-5.492,-5.615,-5.7608,-5.7442,-5.7342,-5.774,-5.6734,-5.5569,-5.4423,-5.3521,-5.2577,-5.1572,-5.1433,-5.1473,-5.1738,-5.1409,-5.1379,-5.1738,-5.1379,-5.1379,-5.1678,-5.2695,-5.3354,-5.3683,-5.473,-5.5179,-5.5209,-5.5508,-5.5478,-5.5209,-5.5508,-5.5478,-5.5179,-5.5179,-5.5179,-5.5269,-5.5957,-5.6585,-5.7274,-5.862,-5.9099,-5.9099,-5.9099,-5.9099,-5.9099,-5.9099,-5.9099,-5.9099,-5.9099,-5.9099,-5.9099,-5.9099,-5.9099,-5.9099,-5.9099,-5.9099,-5.9099,-5.9099,-5.9099,-5.9099,-5.9099,-5.9099,-5.9099,-5.9099,-5.9099,-5.9099,-5.9099,-5.9099,-5.9219,-5.9518,-6.0475,-6.1224,-6.1523,-6.248,-6.2959,-6.266,-6.263,-6.2331,-6.1613,-6.1283,-6.0645,-5.9696,-5.7424,-5.6125,-5.5795,-5.3867,-5.3217,-5.3844,-5.4079,-5.421,-5.421,-5.4497,-5.4445,-4.9018,-4.912,-4.9187,-4.8849,-4.9593,-4.9968,-4.8277,-4.8206,-4.8173,-4.7022,-4.6786,-4.6684,-4.6312,-4.6824,-4.8057,-5.0354,-5.1907,-5.3261,-5.4444,-5.5231,-5.6012,-5.7133,-5.6738,-5.6639,-5.7199,-5.5978,-5.48,-5.3891,-5.3082,-5.2215,-5.1276,-5.1379,-5.1678,-5.2187,-5.1708,-5.1678,-5.2187,-5.1558,-5.1229,-5.1229,-5.2546,-5.3174,-5.3234,-5.4581,-5.5179,-5.5209,-5.5359,-5.5329,-5.5209,-5.5359,-5.5329,-5.5179,-5.5179,-5.5179,-5.5329,-5.6615,-5.7094,-5.7274,-5.862,-5.9099,-5.9099,-5.9099,-5.9099,-5.9099,-5.9099,-5.9099,-5.9099,-5.9099,-5.9219,-5.9338,-5.9338,-5.9458,-5.9578,-5.9578,-5.9578,-5.9548,-5.9368,-5.9338,-5.9279,-5.9129,-5.9099,-5.9099,-5.9099,-5.9099,-5.9099,-5.9099,-5.9099,-5.9099,-5.9099,-6.0296,-6.1104,-6.1104,-6.2301,-6.3079,-6.3079,-6.3079,-6.266,-6.1642,-6.1583,-6.0972,-5.9726,-5.7367,-5.5901,-5.5602,-5.3787,-5.3321,-5.421,-5.4341,-5.4341,-5.421,-5.421,-5.3922,-4.9018,-4.9492,-4.9695,-4.8342,-4.8041,-4.8075,-4.7939,-4.7428,-4.6921,-4.6819,-4.6786,-4.6989,-4.7631,-4.9177,-5.0794,-5.2047,-5.3287,-5.4283,-5.4886,-5.5411,-5.5628,-5.5596,-5.5523,-5.5523,-5.5556,-5.4906,-5.4168,-5.3403,-5.2726,-5.1987,-5.1229,-5.1798,-5.2157,-5.2187,-5.2157,-5.2157,-5.2187,-5.1558,-5.1229,-5.1229,-5.2546,-5.3174,-5.3234,-5.4581,-5.5179,-5.5209,-5.5837,-5.5748,-5.5239,-5.5837,-5.5748,-5.5179,-5.5179,-5.5179,-5.5329,-5.6615,-5.7094,-5.7274,-5.862,-5.9099,-5.9099,-5.9099,-5.9099,-5.9099,-5.9099,-5.9099,-5.9099,-5.9099,-5.9548,-6.0027,-6.0027,-6.0505,-6.0984,-6.0984,-6.0984,-6.0805,-6.0146,-6.0027,-5.9847,-5.9219,-5.9099,-5.9099,-5.9099,-5.9099,-5.9099,-5.9099,-5.9099,-5.9099,-5.9099,-6.0296,-6.1104,-6.1104,-6.2301,-6.3079,-6.3079,-6.3079,-6.3049,-6.2929,-6.2929,-6.24,-6.1083,-5.9085,-5.7472,-5.6237,-5.48,-5.4131,-5.421,-5.4759,-5.4759,-5.421,-5.421,-5.3922,-4.8443,-4.8545,-4.8612,-4.8041,-4.7906,-4.7906,-4.7906,-4.8409,-4.8714,-4.8274,-4.8511,-4.8886,-4.9066,-5.005,-5.1397,-5.2952,-5.3787,-5.4432,-5.5115,-5.5101,-5.4966,-5.4559,-5.4517,-5.4517,-5.4517,-5.4008,-5.3634,-5.3506,-5.2979,-5.259,-5.2474,-5.2665,-5.2995,-5.3443,-5.3025,-5.3025,-5.3443,-5.2366,-5.1828,-5.1828,-5.2336,-5.2785,-5.3204,-5.4162,-5.5029,-5.5777,-5.5628,-5.5658,-5.5777,-5.5628,-5.5418,-5.5179,-5.5179,-5.5179,-5.5329,-5.6615,-5.7094,-5.7274,-5.862,-5.9099,-5.9099,-5.9099,-5.9099,-5.9099,-5.9099,-5.9099,-5.9189,-5.9608,-6.0206,-6.0625,-6.0206,-6.0595,-6.1104,-6.1104,-6.1104,-6.0924,-6.0236,-6.0086,-5.9877,-5.9219,-5.9099,-5.9099,-5.9099,-5.9458,-5.9727,-5.9727,-6.0086,-6.0356,-6.0356,-6.1164,-6.1732,-6.1732,-6.254,-6.3079,-6.3079,-6.3079,-6.3079,-6.3079,-6.269,-6.2102,-6.1231,-5.8513,-5.6856,-5.6292,-5.4187,-5.3321,-5.3687,-5.3922,-5.3739,-5.3138,-5.3138,-5.2825,-4.7767,-4.7564,-4.7496,-4.7229,-4.7534,-4.7906,-4.7906,-4.9052,-4.9999,-4.9763,-5.0101,-5.0375,-5.0215,-5.079,-5.1665,-5.2948,-5.3404,-5.3824,-5.4469,-5.424,-5.3872,-5.3632,-5.3577,-5.3577,-5.3577,-5.3227,-5.3063,-5.3362,-5.3006,-5.2916,-5.3193,-5.3384,-5.3713,-5.4192,-5.3743,-5.3743,-5.4221,-5.2875,-5.2187,-5.2187,-5.2007,-5.2456,-5.3533,-5.4221,-5.5239,-5.6436,-5.5777,-5.5748,-5.6188,-5.5478,-5.5179,-5.5179,-5.5179,-5.5179,-5.5329,-5.6615,-5.7094,-5.7274,-5.862,-5.9099,-5.9099,-5.9099,-5.9099,-5.9099,-5.9099,-5.9249,-5.9518,-5.9967,-6.0745,-6.1313,-6.0835,-6.1224,-6.1732,-6.1732,-6.1732,-6.1493,-6.0595,-6.0416,-6.0146,-5.9279,-5.9099,-5.9099,-5.9099,-5.9638,-6.0086,-6.0086,-6.0685,-6.1104,-6.1104,-6.1493,-6.1792,-6.1792,-6.2361,-6.269,-6.248,-6.266,-6.269,-6.248,-6.2032,-6.1598,-6.1201,-5.8455,-5.6688,-5.6016,-5.3867,-5.2877,-5.3112,-5.3295,-5.3086,-5.2485,-5.2485,-5.2171,-4.6989,-4.6786,-4.6616,-4.5906,-4.679,-4.7906,-4.7906,-4.9052,-5.0304,-5.1082,-5.1219,-5.1153,-5.1056,-5.143,-5.1861,-5.1993,-5.2095,-5.2377,-5.2932,-5.2648,-5.2468,-5.2664,-5.2667,-5.2667,-5.2667,-5.2442,-5.2444,-5.2882,-5.2691,-5.2755,-5.3223,-5.3832,-5.4221,-5.4221,-5.4221,-5.4221,-5.4221,-5.2875,-5.2217,-5.2187,-5.1528,-5.2276,-5.4221,-5.488,-5.5867,-5.7064,-5.6436,-5.6166,-5.6188,-5.5478,-5.5179,-5.5179,-5.5179,-5.5179,-5.5329,-5.6615,-5.7094,-5.7274,-5.862,-5.9099,-5.9099,-5.9099,-5.9099,-5.9099,-5.9099,-5.9548,-6.0086,-6.0086,-6.1074,-6.2091,-6.2121,-6.26,-6.3079,-6.3079,-6.3079,-6.272,-6.1403,-6.1104,-6.0715,-5.9368,-5.9099,-5.9099,-5.9099,-5.9638,-6.0086,-6.0086,-6.0685,-6.1134,-6.1134,-6.1134,-6.1134,-6.1104,-6.1702,-6.1822,-6.1164,-6.1702,-6.1822,-6.1164,-6.1104,-6.1121,-6.1172,-5.9257,-5.7332,-5.5436,-5.4054,-5.3086,-5.2485,-5.3086,-5.3086,-5.2485,-5.2485,-5.2171,-4.638,-4.6041,-4.6109,-4.638,-4.7192,-4.8142,-4.9221,-5.0202,-5.1251,-5.257,-5.2367,-5.1962,-5.193,-5.1833,-5.1759,-5.1747,-5.1723,-5.1757,-5.2013,-5.1665,-5.1452,-5.1651,-5.1618,-5.1618,-5.1618,-5.1572,-5.1961,-5.3026,-5.305,-5.3301,-5.3862,-5.4551,-5.47,-5.4221,-5.467,-5.491,-5.491,-5.3563,-5.2875,-5.2875,-5.1768,-5.2007,-5.3503,-5.3683,-5.476,-5.6406,-5.5777,-5.5748,-5.6188,-5.5478,-5.5179,-5.5179,-5.5179,-5.5179,-5.5299,-5.6137,-5.6436,-5.6645,-5.7962,-5.8411,-5.8501,-5.8949,-5.9099,-5.9099,-5.9099,-5.9548,-6.0176,-6.0685,-6.1433,-6.2211,-6.266,-6.2929,-6.3079,-6.3079,-6.3079,-6.272,-6.1403,-6.1104,-6.0715,-5.9368,-5.9099,-5.9099,-5.9099,-5.9638,-6.0236,-6.0745,-6.1373,-6.1792,-6.1792,-6.1792,-6.1613,-6.1164,-6.1702,-6.1822,-6.1164,-6.1702,-6.1822,-6.1164,-6.1104,-6.0913,-6.0522,-5.8198,-5.6465,-5.5408,-5.329,-5.204,-5.1858,-5.204,-5.204,-5.1858,-5.1858,-5.1779,-4.6312,-4.594,-4.594,-4.6989,-4.78,-4.8815,-5.0574,-5.1589,-5.2401,-5.3315,-5.3112,-5.2672,-5.2367,-5.2203,-5.1853,-5.1026,-5.089,-5.0799,-5.058,-5.0239,-5.0246,-5.072,-5.0794,-5.0883,-5.1199,-5.1229,-5.1648,-5.2725,-5.2785,-5.3084,-5.3773,-5.4431,-5.461,-5.4221,-5.485,-5.5179,-5.5179,-5.4132,-5.3443,-5.3174,-5.2127,-5.2157,-5.3204,-5.3473,-5.467,-5.6496,-5.5867,-5.5807,-5.6188,-5.5478,-5.5179,-5.5179,-5.5179,-5.5179,-5.5269,-5.5927,-5.6218,-5.6346,-5.7663,-5.8112,-5.8231,-5.889,-5.9099,-5.9099,-5.9099,-5.9757,-6.0565,-6.1014,-6.1762,-6.257,-6.2989,-6.3079,-6.3079,-6.3079,-6.3079,-6.278,-6.1732,-6.1493,-6.1194,-6.0116,-5.9907,-5.9817,-5.9548,-6.0266,-6.0924,-6.1104,-6.1912,-6.2301,-6.1762,-6.1702,-6.1343,-6.0416,-6.0894,-6.1044,-6.0356,-6.0924,-6.1014,-6.0356,-6.0326,-6.0019,-5.946,-5.7711,-5.6265,-5.5408,-5.3157,-5.1831,-5.1596,-5.1596,-5.1596,-5.1596,-5.1596,-5.1596,-4.6549,-4.6312,-4.6244,-4.7635,-4.868,-4.9864,-5.1928,-5.2976,-5.3518,-5.3518,-5.3518,-5.3281,-5.2536,-5.2504,-5.1971,-5.0237,-4.9892,-4.96,-4.8931,-4.8706,-4.8968,-5.0092,-5.0196,-5.0435,-5.1139,-5.1229,-5.1498,-5.2157,-5.2187,-5.2456,-5.3054,-5.3803,-5.4192,-5.4132,-5.482,-5.5179,-5.5179,-5.4551,-5.3862,-5.3174,-5.2516,-5.2516,-5.3114,-5.3743,-5.5089,-5.6885,-5.6256,-5.6128,-5.6188,-5.5478,-5.5179,-5.5179,-5.5179,-5.5179,-5.5269,-5.5867,-5.6077,-5.6256,-5.7513,-5.7992,-5.8141,-5.88,-5.9069,-5.9099,-5.9099,-6.0057,-6.1104,-6.1104,-6.2061,-6.3079,-6.3079,-6.3079,-6.3079,-6.3079,-6.3079,-6.2899,-6.2241,-6.2091,-6.1912,-6.1253,-6.1104,-6.0924,-6.0296,-6.1194,-6.1822,-6.1283,-6.2271,-6.26,-6.1283,-6.1104,-6.0595,-5.9249,-5.9697,-5.9817,-5.9159,-5.9697,-5.9787,-5.9129,-5.9099,-5.8828,-5.8195,-5.7423,-5.6516,-5.5325,-5.3388,-5.2145,-5.1596,-5.1596,-5.1596,-5.1596,-5.1596,-5.1596,-4.6041,-4.6684,-4.7635,-4.8545,-5.0202,-5.1894,-5.2976,-5.3382,-5.3518,-5.3518,-5.3518,-5.345,-5.3281,-5.2735,-5.1885,-5.051,-4.975,-4.9151,-4.8528,-4.8355,-4.882,-5.0046,-5.0196,-5.0435,-5.1139,-5.1229,-5.1498,-5.2157,-5.2187,-5.2247,-5.2396,-5.3563,-5.3952,-5.3414,-5.4581,-5.5179,-5.5179,-5.4551,-5.3862,-5.3174,-5.2516,-5.2276,-5.2426,-5.2576,-5.3713,-5.5568,-5.491,-5.5209,-5.6188,-5.5478,-5.5179,-5.5179,-5.5179,-5.5179,-5.5209,-5.5359,-5.5418,-5.5508,-5.6316,-5.6915,-5.7423,-5.8112,-5.868,-5.9099,-5.9099,-6.0057,-6.1104,-6.1104,-6.2061,-6.3079,-6.3079,-6.3079,-6.3079,-6.3079,-6.3079,-6.2899,-6.2241,-6.2091,-6.1912,-6.1253,-6.1104,-6.1074,-6.0924,-6.1134,-6.1463,-6.1822,-6.257,-6.26,-6.1283,-6.1104,-6.0595,-5.9249,-5.9697,-5.9817,-5.9159,-5.9697,-5.9787,-5.9129,-5.9099,-5.8828,-5.8195,-5.6652,-5.5454,-5.469,-5.2748,-5.1727,-5.1596,-5.1596,-5.1596,-5.1596,-5.1596,-5.1596,-4.6684,-4.7597,-4.8781,-5.0236,-5.1758,-5.2976,-5.3416,-5.3518,-5.3518,-5.3518,-5.3518,-5.3518,-5.3518,-5.2834,-5.1878,-5.0621,-4.9726,-4.8862,-4.7976,-4.7818,-4.8177,-4.9194,-4.9314,-4.9673,-5.0614,-5.0704,-5.102,-5.1678,-5.1738,-5.1738,-5.1738,-5.2995,-5.3563,-5.3204,-5.4491,-5.5179,-5.5179,-5.485,-5.4162,-5.3174,-5.2845,-5.2336,-5.1738,-5.2396,-5.3593,-5.5149,-5.4491,-5.497,-5.6188,-5.5478,-5.5179,-5.5179,-5.5179,-5.5179,-5.5179,-5.5179,-5.5179,-5.5299,-5.6008,-5.6585,-5.7214,-5.7902,-5.856,-5.9099,-5.9099,-6.0057,-6.1104,-6.1104,-6.2061,-6.3079,-6.3079,-6.3079,-6.3079,-6.3079,-6.3079,-6.2989,-6.263,-6.257,-6.248,-6.2121,-6.2061,-6.1942,-6.1642,-6.1313,-6.1343,-6.2002,-6.2121,-6.1762,-6.0745,-6.0894,-6.0715,-5.9697,-6.0176,-6.0446,-6.0086,-6.0386,-6.0446,-6.0086,-6.0057,-5.9781,-5.9138,-5.7281,-5.5734,-5.4497,-5.2562,-5.1596,-5.1596,-5.1596,-5.1596,-5.1596,-5.1596,-5.1596,-4.7361,-4.8545,-4.9898,-5.1995,-5.301,-5.3518,-5.3518,-5.3518,-5.3518,-5.3518,-5.3518,-5.3518,-5.3518,-5.2834,-5.1878,-5.0621,-4.9726,-4.878,-4.7452,-4.7309,-4.7549,-4.8207,-4.8297,-4.8745,-4.9942,-5.0136,-5.0405,-5.102,-5.1139,-5.1229,-5.1229,-5.2456,-5.3174,-5.3174,-5.4491,-5.5179,-5.5179,-5.5179,-5.4581,-5.3354,-5.3114,-5.2396,-5.1259,-5.2456,-5.3743,-5.497,-5.4311,-5.485,-5.6188,-5.5478,-5.5179,-5.5179,-5.5179,-5.5179,-5.5179,-5.5179,-5.5179,-5.5269,-5.5807,-5.6406,-5.7034,-5.7723,-5.8411,-5.8949,-5.9069,-6.0057,-6.1104,-6.1104,-6.2061,-6.3079,-6.3079,-6.3079,-6.3079,-6.3079,-6.3079,-6.3079,-6.3079,-6.3079,-6.3079,-6.3079,-6.3079,-6.2869,-6.2211,-6.1642,-6.1433,-6.1852,-6.1463,-6.0894,-6.0326,-6.0775,-6.0894,-6.0326,-6.0775,-6.1104,-6.1104,-6.1104,-6.1104,-6.1104,-6.1104,-6.0823,-6.0227,-5.8282,-5.646,-5.4828,-5.2775,-5.1701,-5.1596,-5.1596,-5.1596,-5.1596,-5.1596,-5.1596,-4.6718,-4.8883,-5.1319,-5.2942,-5.3416,-5.3518,-5.3518,-5.3518,-5.3518,-5.3518,-5.3518,-5.3518,-5.3518,-5.2834,-5.1878,-5.0621,-4.9726,-4.878,-4.7452,-4.7309,-4.7549,-4.8207,-4.8297,-4.8566,-4.9359,-4.9912,-5.0226,-5.0315,-5.0853,-5.1229,-5.1229,-5.2456,-5.3174,-5.3174,-5.4491,-5.5179,-5.5179,-5.5179,-5.482,-5.4072,-5.2905,-5.1947,-5.1259,-5.2007,-5.3054,-5.4311,-5.3623,-5.4401,-5.6188,-5.5478,-5.5179,-5.5179,-5.5179,-5.5179,-5.5179,-5.5179,-5.5179,-5.5209,-5.5299,-5.5748,-5.6406,-5.7034,-5.7693,-5.8351,-5.8919,-6.0057,-6.1104,-6.1104,-6.2061,-6.3079,-6.3079,-6.3079,-6.3079,-6.3079,-6.3079,-6.3079,-6.3079,-6.3079,-6.3079,-6.3079,-6.3079,-6.2869,-6.2211,-6.2032,-6.1792,-6.1313,-6.1164,-6.1074,-6.0984,-6.1044,-6.1074,-6.0984,-6.1074,-6.1104,-6.1104,-6.1104,-6.1104,-6.1104,-6.1104,-6.0823,-6.0227,-5.8282,-5.6852,-5.6071,-5.3663,-5.2119,-5.1596,-5.1596,-5.1596,-5.1596,-5.1596,-5.1596,-4.8003,-4.9898,-5.1589,-5.3112,-5.3518,-5.3518,-5.3518,-5.3518,-5.3518,-5.3518,-5.3416,-5.3348,-5.3348,-5.259,-5.1553,-5.0397,-4.9567,-4.8615,-4.7452,-4.7309,-4.7429,-4.7698,-4.7728,-4.7997,-4.8656,-4.9314,-4.9853,-5.0166,-5.0794,-5.105,-5.0644,-5.1917,-5.2636,-5.2636,-5.3952,-5.482,-5.5179,-5.5179,-5.485,-5.4192,-5.2845,-5.2067,-5.1768,-5.2067,-5.2725,-5.3623,-5.3713,-5.4461,-5.5598,-5.5299,-5.5179,-5.5179,-5.5179,-5.5179,-5.5179,-5.5179,-5.5179,-5.5179,-5.5179,-5.5628,-5.6226,-5.6496,-5.7274,-5.8171,-5.8471,-5.9757,-6.1104,-6.1104,-6.2061,-6.3079,-6.3079,-6.3079,-6.3079,-6.3079,-6.3079,-6.3079,-6.3079,-6.3079,-6.3079,-6.3079,-6.3079,-6.2869,-6.2211,-6.1792,-6.1313,-6.0625,-6.0535,-6.0535,-6.0535,-6.1194,-6.1672,-6.1672,-6.2002,-6.2211,-6.2211,-6.2211,-6.2211,-6.2211,-6.2211,-6.1925,-6.1261,-5.97,-5.8292,-5.7154,-5.4046,-5.2354,-5.2093,-5.1753,-5.1596,-5.1596,-5.1596,-5.1596,-4.868,-5.0101,-5.1014,-5.2536,-5.3078,-5.3213,-5.3213,-5.3348,-5.3518,-5.3518,-5.3314,-5.3076,-5.2904,-5.22,-5.122,-5.008,-4.9278,-4.8449,-4.7409,-4.7309,-4.7309,-4.7309,-4.7309,-4.7489,-4.7997,-4.8626,-4.9224,-4.9703,-5.0361,-5.0511,-5.0002,-5.1079,-5.1858,-5.2187,-5.3354,-5.4341,-5.5179,-5.5179,-5.485,-5.4192,-5.3204,-5.2546,-5.2217,-5.2546,-5.2875,-5.3234,-5.4072,-5.482,-5.5448,-5.5448,-5.5448,-5.5418,-5.5269,-5.5179,-5.5179,-5.5179,-5.5179,-5.5179,-5.5179,-5.5508,-5.6017,-5.6496,-5.7334,-5.8231,-5.874,-6.0057,-6.1373,-6.1373,-6.2181,-6.3079,-6.3079,-6.3079,-6.3079,-6.3079,-6.3079,-6.3079,-6.3079,-6.3079,-6.3079,-6.3079,-6.3079,-6.2869,-6.2211,-6.1553,-6.0954,-6.0416,-6.0206,-6.0206,-6.0535,-6.1463,-6.2151,-6.2331,-6.278,-6.3079,-6.3079,-6.3079,-6.3079,-6.3079,-6.3079,-6.2847,-6.2234,-6.1017,-5.9757,-5.8413,-5.5096,-5.3128,-5.2612,-5.1946,-5.1596,-5.1596,-5.1596,-5.1534,-4.7567,-4.8578,-4.9492,-5.098,-5.186,-5.2367,-5.2367,-5.2942,-5.3518,-5.3518,-5.3212,-5.2764,-5.2167,-5.1733,-5.0919,-4.9479,-4.8862,-4.8343,-4.7439,-4.7309,-4.7309,-4.7309,-4.7309,-4.7309,-4.7369,-4.7967,-4.8356,-4.8386,-4.8985,-4.9389,-4.9359,-4.9972,-5.0853,-5.2157,-5.2875,-5.3862,-5.5179,-5.5179,-5.485,-5.4221,-5.4132,-5.3443,-5.2247,-5.3533,-5.3773,-5.3264,-5.4581,-5.5508,-5.6188,-5.6188,-5.6188,-5.6047,-5.5448,-5.5179,-5.5179,-5.5179,-5.5179,-5.5179,-5.5179,-5.5209,-5.5538,-5.7423,-5.8082,-5.8471,-6.0386,-6.1463,-6.2061,-6.2061,-6.254,-6.3079,-6.3079,-6.3079,-6.3079,-6.3079,-6.3079,-6.3079,-6.3079,-6.3079,-6.3079,-6.3079,-6.3079,-6.2869,-6.2211,-6.1553,-6.1104,-6.1074,-6.0505,-6.0535,-6.1822,-6.2061,-6.2331,-6.2959,-6.3049,-6.3079,-6.3079,-6.3079,-6.3079,-6.3079,-6.3079,-6.2963,-6.2615,-6.1613,-6.0716,-6.0018,-5.7334,-5.5041,-5.2991,-5.2072,-5.1596,-5.1596,-5.1596,-5.1408,-4.6346,-4.7394,-4.8545,-4.956,-5.0338,-5.115,-5.2097,-5.2536,-5.2875,-5.3382,-5.3178,-5.259,-5.159,-5.1215,-5.0615,-4.9399,-4.8738,-4.8218,-4.7581,-4.7396,-4.7309,-4.7309,-4.7309,-4.7309,-4.7309,-4.7908,-4.8297,-4.8297,-4.894,-4.912,-4.87,-4.9673,-5.0405,-5.0883,-5.1977,-5.3204,-5.4551,-5.497,-5.5059,-5.485,-5.4401,-5.3952,-5.3503,-5.3982,-5.4072,-5.3952,-5.5658,-5.6316,-5.6218,-5.6218,-5.6218,-5.6107,-5.5448,-5.5179,-5.5179,-5.5179,-5.5179,-5.5179,-5.5179,-5.5718,-5.6526,-5.7244,-5.8321,-5.9518,-6.0236,-6.1224,-6.2091,-6.2091,-6.257,-6.3079,-6.3079,-6.3079,-6.3079,-6.3079,-6.3079,-6.3079,-6.3079,-6.3079,-6.3079,-6.3079,-6.3079,-6.2869,-6.2211,-6.1912,-6.1613,-6.1164,-6.1253,-6.1553,-6.2032,-6.248,-6.281,-6.3049,-6.3079,-6.3079,-6.3079,-6.3079,-6.3079,-6.3079,-6.3079,-6.2963,-6.2615,-6.2057,-6.1315,-6.0442,-5.8041,-5.5951,-5.4216,-5.2813,-5.1962,-5.1596,-5.1346,-5.1246,-4.5263,-4.6244,-4.7361,-4.8071,-4.8815,-4.9627,-5.0608,-5.1153,-5.1694,-5.2471,-5.2436,-5.1974,-5.115,-5.0723,-5.0143,-4.9066,-4.8563,-4.8133,-4.7666,-4.7452,-4.7396,-4.7309,-4.7309,-4.7309,-4.7309,-4.7698,-4.8057,-4.8267,-4.8686,-4.888,-4.8626,-4.9434,-5.0122,-5.0495,-5.1858,-5.3054,-5.4192,-5.464,-5.497,-5.5179,-5.476,-5.4431,-5.4221,-5.4431,-5.4431,-5.4311,-5.6256,-5.6855,-5.6466,-5.6466,-5.6466,-5.6406,-5.5538,-5.5179,-5.5179,-5.5179,-5.5179,-5.5209,-5.5448,-5.6196,-5.7214,-5.7872,-5.9159,-6.0505,-6.0954,-6.1702,-6.2421,-6.2421,-6.275,-6.3079,-6.3079,-6.3079,-6.3079,-6.3079,-6.3079,-6.3079,-6.3079,-6.3079,-6.3079,-6.3079,-6.3079,-6.2929,-6.251,-6.2241,-6.2032,-6.1792,-6.1972,-6.2181,-6.2391,-6.281,-6.3079,-6.3079,-6.3079,-6.3079,-6.3079,-6.3079,-6.3079,-6.3079,-6.3079,-6.3021,-6.2789,-6.2526,-6.2057,-6.1135,-5.8918,-5.7003,-5.5391,-5.3445,-5.2197,-5.1596,-5.1346,-5.1183,0.0,0.0,0.0,-4.6515,-4.7259,-4.777,-4.7804,-4.8829,-5.0015,-5.0755,-5.089,-5.0812,-5.0752,-5.026,-4.9541,-4.848,-4.8271,-4.8133,-4.7666,-4.7581,-4.7495,-4.7309,-4.7309,-4.7309,-4.7309,-4.7309,-4.7608,-4.8237,-4.8297,-4.8596,-4.9269,-4.9329,-4.9883,-5.1169,-5.2486,-5.3473,-5.4162,-5.4192,-5.4551,-5.5179,-5.5179,-5.485,-5.4251,-5.491,-5.485,-5.4341,-5.6256,-5.7094,-5.7094,-5.7094,-5.7094,-5.6974,-5.5688,-5.5179,-5.5179,-5.5179,-5.5179,-5.5299,-5.6008,-5.6585,-5.7483,-5.9458,-6.0565,-6.1403,-6.269,-6.3079,-6.3079,-6.3079,-6.3079,-6.3079,-6.3079,-6.3079,-6.3079,-6.3079,-6.3079,-6.3079,-6.3079,-6.3079,-6.3079,-6.3079,-6.3079,-6.3079,-6.3079,-6.254,-6.2331,-6.2989,-6.254,-6.2361,-6.2989,-6.3079,-6.3079,-6.3079,-6.3079,-6.3079,-6.3079,-6.3079,-6.3079,-6.3079,-6.3079,-6.3079,-6.3079,-6.3079,-6.2759,-6.2116,-6.0141,-5.8227,-5.6443,-5.3761,-5.2197,-5.1596,-5.1596,-5.122,-4.2861,0.0,0.0,0.0,0.0,0.0,-4.6075,-4.6903,-4.7701,-4.8592,-4.9389,-4.9776,-4.9413,-4.9521,-4.9421,-4.8646,-4.8396,-4.8218,-4.7922,-4.7709,-4.7495,-4.7309,-4.7309,-4.7309,-4.7309,-4.7728,-4.8087,-4.8267,-4.876,-4.912,-4.9299,-4.9703,-5.0361,-5.1199,-5.2037,-5.2785,-5.3443,-5.3952,-5.4551,-5.5179,-5.5179,-5.5089,-5.491,-5.5119,-5.5089,-5.4999,-5.6466,-5.7094,-5.7094,-5.7094,-5.7094,-5.6974,-5.5688,-5.5179,-5.5179,-5.5179,-5.5179,-5.5299,-5.6008,-5.7214,-5.871,-5.9757,-6.1194,-6.26,-6.2959,-6.3079,-6.3079,-6.3079,-6.3079,-6.3079,-6.3079,-6.3079,-6.3079,-6.3079,-6.3079,-6.3079,-6.3079,-6.3079,-6.3079,-6.3079,-6.3079,-6.3079,-6.3079,-6.2929,-6.2869,-6.3049,-6.2929,-6.2869,-6.3049,-6.3079,-6.3079,-6.3079,-6.3079,-6.3079,-6.3079,-6.3079,-6.3079,-6.3079,-6.3079,-6.3079,-6.3079,-6.3079,-6.2759,-6.2116,-6.0141,-5.8451,-5.7045,-5.4427,-5.2616,-5.1596,-5.1346,-5.0867,-4.2219,-4.2286,-4.2489,-4.3234,0.0,0.0,-4.4079,-4.4923,-4.5701,-4.6468,-4.7408,-4.8137,-4.8275,-4.8358,-4.8341,-4.8035,-4.7854,-4.7783,-4.7958,-4.788,-4.7624,-4.7352,-4.7309,-4.7309,-4.7309,-4.7908,-4.8386,-4.8686,-4.9314,-4.9793,-5.0062,-5.0451,-5.0794,-5.1199,-5.1588,-5.2247,-5.3174,-5.3593,-5.4251,-5.5179,-5.5179,-5.5179,-5.5179,-5.5179,-5.5179,-5.5269,-5.6526,-5.7094,-5.7094,-5.7094,-5.7094,-5.6974,-5.5688,-5.5179,-5.5179,-5.5179,-5.5359,-5.5748,-5.6675,-5.8082,-5.9668,-6.0625,-6.1912,-6.3079,-6.3079,-6.3079,-6.3079,-6.3079,-6.3079,-6.3079,-6.3079,-6.3079,-6.3079,-6.3079,-6.3079,-6.3079,-6.3079,-6.3079,-6.3079,-6.3079,-6.3079,-6.3079,-6.3079,-6.3079,-6.3079,-6.3079,-6.3079,-6.3079,-6.3079,-6.3079,-6.3079,-6.3079,-6.3079,-6.3079,-6.3079,-6.3079,-6.3079,-6.3079,-6.3079,-6.3079,-6.3079,-6.3079,-6.2759,-6.2116,-6.0141,-5.8098,-5.5969,-5.4217,-5.2772,-5.1596,-5.1246,-5.0804,-4.2219,-4.2354,-4.2455,-4.3132,-4.2726,0.0,-4.2049,-4.2947,-4.3901,-4.4401,-4.5172,-4.6056,-4.7068,-4.6921,-4.6691,-4.6879,-4.6897,-4.7102,-4.7829,-4.7885,-4.7776,-4.7366,-4.7309,-4.7309,-4.7309,-4.7967,-4.8626,-4.9269,-4.9942,-5.0554,-5.1199,-5.1229,-5.1229,-5.1229,-5.1289,-5.1917,-5.3174,-5.3264,-5.3922,-5.5179,-5.5179,-5.5179,-5.5179,-5.5179,-5.5179,-5.5269,-5.6526,-5.7094,-5.7094,-5.7094,-5.7094,-5.6974,-5.5688,-5.5179,-5.5209,-5.5269,-5.5658,-5.6376,-5.7752,-5.9039,-6.0296,-6.1642,-6.254,-6.3079,-6.3079,-6.3079,-6.3079,-6.3079,-6.3079,-6.3079,-6.3079,-6.3079,-6.3079,-6.3079,-6.3079,-6.3079,-6.3079,-6.3079,-6.3079,-6.3079,-6.3079,-6.3079,-6.3079,-6.3079,-6.3079,-6.3079,-6.3079,-6.3079,-6.3079,-6.3079,-6.3079,-6.3079,-6.3079,-6.3079,-6.3079,-6.3079,-6.3079,-6.3079,-6.3079,-6.3079,-6.3079,-6.3079,-6.2759,-6.2116,-6.0018,-5.7404,-5.421,-5.3661,-5.2851,-5.1805,-5.1491,-5.1175,-4.2997,-4.276,-4.232,-4.2489,-4.1948,0.0,-4.0654,-4.1107,-4.168,-4.1872,-4.2837,-4.4004,-4.4913,-4.5381,-4.5515,-4.5178,-4.5865,-4.6703,-4.7334,-4.73,-4.7262,-4.7521,-4.7396,-4.7309,-4.7309,-4.8386,-4.9179,-4.9299,-5.0361,-5.1079,-5.1199,-5.1229,-5.1229,-5.1229,-5.1738,-5.2396,-5.3174,-5.3743,-5.4401,-5.5179,-5.5179,-5.5179,-5.5179,-5.5179,-5.5179,-5.5269,-5.6526,-5.7094,-5.7094,-5.7094,-5.7094,-5.6974,-5.5688,-5.5179,-5.5269,-5.5777,-5.6128,-5.6487,-5.8291,-5.9428,-6.0296,-6.1642,-6.254,-6.3079,-6.3079,-6.3079,-6.3079,-6.3079,-6.3079,-6.3079,-6.3079,-6.3079,-6.3079,-6.3079,-6.3079,-6.3079,-6.3079,-6.3079,-6.3079,-6.3079,-6.3079,-6.3079,-6.3079,-6.3079,-6.3079,-6.3079,-6.3079,-6.3079,-6.3079,-6.3079,-6.3079,-6.3079,-6.3079,-6.3079,-6.3079,-6.3079,-6.3079,-6.3079,-6.3079,-6.3079,-6.3079,-6.3079,-6.2759,-6.2116,-5.9588,-5.6922,-5.421,-5.3661,-5.3269,-5.3034,-5.2996,-5.2582,-4.32,-4.2861,-4.2286,-4.2286,-4.1745,0.0,0.0,-4.0508,-4.0883,-4.0862,-4.1568,-4.2389,-4.313,-4.3267,-4.3261,-4.321,-4.3812,-4.4538,-4.5325,-4.6427,-4.7277,-4.7533,-4.7495,-4.7439,-4.7309,-4.8506,-4.9523,-5.0182,-5.084,-5.1229,-5.1229,-5.1229,-5.1229,-5.1229,-5.1858,-5.2516,-5.3174,-5.3862,-5.4551,-5.5179,-5.5179,-5.5179,-5.5179,-5.5179,-5.5179,-5.5269,-5.6526,-5.7094,-5.7094,-5.7094,-5.7094,-5.6974,-5.5688,-5.5179,-5.5269,-5.5927,-5.6376,-5.6915,-5.889,-6.0027,-6.0805,-6.2151,-6.281,-6.3079,-6.3079,-6.3079,-6.3079,-6.3079,-6.3079,-6.3079,-6.3079,-6.3079,-6.3079,-6.3079,-6.3079,-6.3079,-6.3079,-6.3079,-6.3079,-6.3079,-6.3079,-6.3079,-6.3079,-6.3079,-6.3079,-6.3079,-6.3079,-6.3079,-6.3079,-6.3079,-6.3079,-6.3079,-6.3079,-6.3079,-6.3079,-6.3079,-6.3079,-6.3079,-6.3079,-6.3079,-6.3079,-6.3079,-6.2321,-6.0655,-5.8968,-5.6956,-5.4654,-5.4393,-5.3949,-5.34,-5.34,-5.3114,-4.391,-4.3538,-4.2861,-4.2591,-4.1948,-4.117,0.0,0.0,0.0,-4.0307,-4.0525,-4.0931,-4.1419,-4.1158,-4.0954,-4.1151,-4.1517,-4.2046,-4.289,-4.4941,-4.6631,-4.728,-4.7395,-4.7357,-4.7186,-4.8341,-4.9583,-5.075,-5.096,-5.0973,-5.0973,-5.1139,-5.1229,-5.1229,-5.1977,-5.2636,-5.3174,-5.3982,-5.467,-5.5179,-5.5179,-5.5179,-5.5179,-5.5179,-5.5179,-5.5269,-5.6526,-5.7094,-5.7094,-5.7094,-5.7094,-5.6974,-5.5688,-5.5179,-5.5299,-5.6077,-5.6675,-5.7393,-5.9548,-6.0655,-6.1343,-6.266,-6.3079,-6.3079,-6.3079,-6.3079,-6.3079,-6.3079,-6.3079,-6.3079,-6.3079,-6.3079,-6.3079,-6.3079,-6.3079,-6.3079,-6.3079,-6.3079,-6.3079,-6.3079,-6.3079,-6.3079,-6.3079,-6.3079,-6.3079,-6.3079,-6.3079,-6.3079,-6.3079,-6.3079,-6.3079,-6.3079,-6.3079,-6.3079,-6.3079,-6.3079,-6.3079,-6.3021,-6.3021,-6.2963,-6.2905,-6.2701,-6.1465,-5.9064,-5.8277,-5.699,-5.5099,-5.5099,-5.4628,-5.3739,-5.3739,-5.3492,-4.638,-4.5872,-4.4993,-4.3639,-4.2726,-4.1813,-4.0417,0.0,-3.9889,-3.9462,0.0,-3.9325,-3.9621,0.0,0.0,-3.8959,-3.9787,-4.0591,-4.0824,-4.2166,-4.3966,-4.6183,-4.6596,-4.6707,-4.6665,-4.7739,-4.8686,-4.9479,-5.0032,-5.0315,-5.0315,-5.09,-5.1229,-5.1229,-5.2426,-5.3114,-5.3174,-5.4431,-5.5119,-5.5179,-5.5179,-5.5179,-5.5179,-5.5179,-5.5179,-5.5269,-5.6526,-5.7094,-5.7094,-5.7094,-5.7094,-5.6974,-5.5688,-5.5179,-5.5329,-5.6555,-5.7034,-5.7483,-6.0086,-6.1044,-6.1343,-6.266,-6.3079,-6.3079,-6.3079,-6.3079,-6.3079,-6.3079,-6.3079,-6.3079,-6.3079,-6.3079,-6.3079,-6.3079,-6.3079,-6.3079,-6.3079,-6.3079,-6.3079,-6.3079,-6.3079,-6.3079,-6.3079,-6.3079,-6.3079,-6.3079,-6.3079,-6.3079,-6.3079,-6.3079,-6.3079,-6.3079,-6.3079,-6.3079,-6.3079,-6.3079,-6.2963,-6.2673,-6.2673,-6.2556,-6.2234,-6.1375,-6.0169,-5.8655,-5.7697,-5.6497,-5.5099,-5.5099,-5.5046,-5.4916,-5.4916,-5.469,-4.6604,-4.6039,-4.5043,-4.3558,-4.2616,-4.1675,-4.0195,-3.996,-3.9939,-3.9605,0.0,0.0,0.0,0.0,0.0,0.0,-3.8592,-3.8928,-3.9311,-4.0166,-4.1879,-4.4786,-4.5565,-4.6213,-4.7111,-4.7859,-4.8566,-4.9269,-4.9523,-4.9853,-5.0166,-5.0823,-5.1229,-5.1229,-5.2486,-5.3174,-5.3174,-5.4521,-5.5179,-5.5179,-5.5179,-5.5179,-5.5179,-5.5179,-5.5179,-5.5269,-5.6526,-5.7094,-5.7094,-5.7094,-5.7094,-5.7004,-5.6107,-5.5748,-5.5867,-5.6765,-5.7603,-5.853,-6.0446,-6.1373,-6.1852,-6.278,-6.3079,-6.3079,-6.3079,-6.3079,-6.2989,-6.26,-6.278,-6.2989,-6.26,-6.278,-6.3079,-6.3079,-6.3079,-6.3079,-6.3079,-6.3079,-6.3079,-6.3079,-6.3079,-6.3079,-6.3079,-6.3079,-6.3079,-6.3079,-6.3079,-6.3079,-6.3079,-6.3079,-6.3079,-6.3079,-6.3079,-6.3079,-6.3079,-6.3079,-6.2963,-6.2615,-6.185,-6.1106,-6.0384,-5.9801,-5.8933,-5.7706,-5.7092,-5.6236,-5.5099,-5.5099,-5.5099,-5.5099,-5.5099,-5.5032,-4.6904,-4.6082,-4.4897,-4.3281,-4.219,-4.1128,-3.9634,-3.9567,-3.9793,-3.9697,-3.9955,0.0,0.0,0.0,-3.856,-3.806,0.0,-3.7774,-3.8169,-3.8662,-4.0101,-4.3179,-4.4533,-4.5667,-4.693,-4.7469,-4.7878,-4.8191,-4.855,-4.9015,-4.9673,-5.0435,-5.0973,-5.1199,-5.2486,-5.3174,-5.3174,-5.4521,-5.5179,-5.5179,-5.5179,-5.5179,-5.5179,-5.5179,-5.5179,-5.5269,-5.6526,-5.7094,-5.7094,-5.7094,-5.7094,-5.7034,-5.6406,-5.6286,-5.6526,-5.7334,-5.8261,-5.9308,-6.0864,-6.1822,-6.245,-6.2929,-6.2959,-6.2839,-6.3019,-6.2959,-6.272,-6.2241,-6.257,-6.2929,-6.2271,-6.26,-6.3079,-6.3079,-6.3079,-6.3079,-6.3079,-6.3079,-6.3079,-6.3079,-6.3079,-6.3079,-6.3079,-6.3079,-6.3079,-6.3079,-6.3079,-6.3079,-6.3079,-6.3079,-6.3079,-6.3079,-6.3079,-6.3079,-6.3079,-6.3079,-6.2905,-6.2351,-6.1255,-6.023,-5.9403,-5.8871,-5.8179,-5.7285,-5.6704,-5.6039,-5.5099,-5.5099,-5.5099,-5.5099,-5.5099,-5.5099,-4.7997,-4.6711,-4.5006,-4.3001,-4.1482,-4.0089,-3.8659,-3.8746,-3.9191,-3.9343,-3.9818,-4.006,-3.9627,-3.9496,-3.9031,-3.774,-3.7492,0.0,0.0,-3.7554,-3.86,-4.137,-4.3602,-4.5112,-4.5604,-4.6089,-4.6112,-4.5484,-4.6621,-4.7668,-4.8327,-4.9583,-5.0524,-5.1199,-5.2486,-5.3174,-5.3174,-5.4521,-5.5179,-5.5179,-5.5179,-5.5179,-5.5179,-5.5179,-5.5179,-5.5269,-5.6526,-5.7094,-5.7094,-5.7094,-5.7094,-5.7034,-5.6406,-5.6526,-5.7214,-5.856,-5.9069,-5.9398,-6.1373,-6.251,-6.3049,-6.3079,-6.266,-6.2241,-6.2869,-6.263,-6.2121,-6.2091,-6.257,-6.2929,-6.2271,-6.26,-6.3079,-6.3079,-6.3079,-6.3079,-6.3079,-6.3079,-6.3079,-6.3079,-6.3079,-6.3079,-6.3079,-6.3079,-6.3079,-6.3079,-6.3079,-6.3079,-6.3079,-6.3079,-6.3079,-6.3079,-6.3079,-6.3079,-6.3079,-6.3079,-6.2701,-6.1673,-6.1015,-6.056,-6.0165,-5.9205,-5.836,-5.7606,-5.6601,-5.5802,-5.5099,-5.5099,-5.5099,-5.5099,-5.5099,-5.5099,-4.8065,-4.7045,-4.5701,-4.4302,-4.2815,-4.1367,-4.028,-4.0385,-4.0673,-4.0604,-4.1276,-4.1841,-4.1591,-4.0782,0.0,0.0,0.0,-3.7492,0.0,-3.7892,-3.8692,-4.0047,-4.2199,-4.3819,-4.4416,-4.518,-4.5544,-4.5304,-4.5723,-4.6471,-4.7578,-4.8895,-4.9883,-5.0495,-5.2276,-5.3174,-5.3174,-5.4521,-5.5179,-5.5179,-5.5179,-5.5179,-5.5179,-5.5179,-5.5418,-5.5897,-5.6735,-5.7363,-5.7752,-5.7274,-5.7094,-5.7064,-5.6855,-5.6915,-5.7244,-5.862,-5.9668,-6.0655,-6.2211,-6.2899,-6.3079,-6.3079,-6.2929,-6.272,-6.248,-6.2271,-6.2002,-6.1553,-6.1912,-6.2391,-6.2151,-6.26,-6.3079,-6.3079,-6.3079,-6.3079,-6.3079,-6.3079,-6.3079,-6.3079,-6.3079,-6.3079,-6.3079,-6.3079,-6.3079,-6.3079,-6.3079,-6.3079,-6.3079,-6.3079,-6.3079,-6.3079,-6.3079,-6.3079,-6.3079,-6.2905,-6.2351,-6.1346,-6.0865,-6.0291,-5.9465,-5.8933,-5.8179,-5.7285,-5.6731,-5.5973,-5.5099,-5.5099,-5.5099,-5.5099,-5.5099,-5.5099,-4.8001,-4.7241,-4.6351,-4.5649,-4.4253,-4.2806,-4.1743,-4.1886,-4.2216,-4.2077,-4.2988,-4.3766,-4.3648,-4.2725,-4.174,0.0,0.0,0.0,0.0,-3.8015,-3.8508,-3.9367,-4.1351,-4.2811,-4.3198,-4.4127,-4.4488,-4.3928,-4.4556,-4.5424,-4.6531,-4.8087,-4.9314,-5.0166,-5.2157,-5.3174,-5.3174,-5.4521,-5.5179,-5.5179,-5.5179,-5.5179,-5.5179,-5.5179,-5.5538,-5.6248,-5.6825,-5.7483,-5.8082,-5.7393,-5.7094,-5.7094,-5.7094,-5.7094,-5.7304,-5.9129,-6.0655,-6.1942,-6.278,-6.3079,-6.3079,-6.3079,-6.2929,-6.266,-6.2211,-6.2091,-6.1972,-6.1313,-6.1762,-6.2391,-6.2151,-6.26,-6.3079,-6.3079,-6.3079,-6.3079,-6.3079,-6.3079,-6.3079,-6.3079,-6.3079,-6.3079,-6.3079,-6.3079,-6.3079,-6.3079,-6.3079,-6.3079,-6.3079,-6.3079,-6.3079,-6.3079,-6.3079,-6.3079,-6.3079,-6.2789,-6.2292,-6.1465,-6.1166,-6.0595,-5.9834,-5.9431,-5.862,-5.7478,-5.7028,-5.6209,-5.5099,-5.5099,-5.5099,-5.5099,-5.5099,-5.5032]},{"header":{"parameterUnit":"m.s-1","parameterCategory":1,"la1":30.6,"la2":29.2853,"lo1":-89.7004,"lo2":-87.6739,"dy":0.0162,"dx":0.0183,"nx":112,"ny":82,"refTime":"2026-03-28T12:00:00:Z","depth":0,"parameterNumber":3,"parameterNumberName":"V-component_of_WINDS"},"data":[0.0,0.0,0.0,0.0,0.0,0.0,0.0,0.0,0.0,0.0,0.0,0.0,0.0,0.0,0.0,0.0,0.0,0.0,0.0,0.0,0.0,0.0,0.0,0.0,0.0,0.0,0.0,0.0,0.0,0.0,0.0,0.0,0.0,0.0,0.0,0.0,0.0,0.0,0.0,0.0,0.0,0.0,0.0,0.0,0.0,0.0,0.0,0.0,0.0,0.0,0.0,0.0,0.0,0.0,0.0,0.0,0.0,0.0,0.0,0.0,0.0,0.0,0.0,0.0,0.0,0.0,0.0,0.0,0.0,0.0,0.0,0.0,0.0,0.0,0.0,0.0,0.0,0.0,0.0,0.0,0.0,0.0,0.0,0.0,0.0,0.0,0.0,0.0,0.0,0.0,2.2713,2.5172,2.8029,2.939,2.8577,2.675,2.4918,2.314,0.0,0.0,0.0,0.0,0.0,0.0,0.0,0.0,0.0,0.0,0.0,0.0,0.0,0.0,0.0,0.0,0.0,0.0,0.0,0.0,0.0,0.0,0.0,0.0,0.0,0.0,0.0,0.0,0.0,0.0,0.0,0.0,0.0,0.0,0.0,0.0,0.0,0.0,0.0,0.0,0.0,0.0,0.0,0.0,0.0,0.0,0.0,0.0,0.0,0.0,0.0,0.0,0.0,0.0,0.0,0.0,0.0,0.0,0.0,0.0,0.0,0.0,0.0,0.0,0.0,0.0,0.0,0.0,0.0,0.0,0.0,0.0,0.0,0.0,0.0,0.0,0.0,0.0,0.0,0.0,0.0,0.0,0.0,0.0,0.0,0.0,0.0,0.0,0.0,0.0,0.0,0.0,0.0,0.0,0.0,0.0,0.0,0.0,0.0,0.0,0.0,0.0,0.0,0.0,2.5283,2.9177,3.1716,3.2484,3.108,2.9765,2.7826,2.502,0.0,0.0,0.0,0.0,0.0,0.0,0.0,0.0,0.0,0.0,0.0,0.0,0.0,0.0,0.0,0.0,0.0,0.0,0.0,0.0,0.0,0.0,0.0,0.0,0.0,0.0,0.0,0.0,0.0,0.0,0.0,0.0,0.0,0.0,0.0,0.0,0.0,0.0,0.0,0.0,0.0,0.0,0.0,0.0,0.0,0.0,0.0,0.0,0.0,0.0,0.0,0.0,0.0,0.0,0.0,0.0,0.0,0.0,0.0,0.0,0.0,0.0,0.0,0.0,0.0,0.0,0.0,0.0,0.0,0.0,0.0,0.0,0.0,0.0,0.0,0.0,0.0,0.0,0.0,0.0,0.0,0.0,0.0,0.0,0.0,0.0,0.0,0.0,0.0,0.0,0.0,0.0,0.0,0.0,0.0,0.0,0.0,0.0,0.0,0.0,0.0,0.0,0.0,2.6211,2.8661,3.1166,3.2483,3.2625,3.13,2.9938,2.808,2.5534,2.1976,0.0,0.0,0.0,0.0,0.0,0.0,0.0,0.0,0.0,0.0,0.0,0.0,0.0,0.0,0.0,0.0,0.0,0.0,0.0,0.0,0.0,0.0,0.0,0.0,0.0,0.0,0.0,0.0,0.0,0.0,0.0,0.0,0.0,0.0,0.0,0.0,0.0,0.0,0.0,0.0,0.0,0.0,0.0,0.0,0.0,0.0,0.0,0.0,0.0,0.0,0.0,0.0,0.0,0.0,0.0,0.0,0.0,0.0,0.0,0.0,0.0,0.0,0.0,0.0,0.0,0.0,0.0,0.0,0.0,0.0,0.0,0.0,0.0,0.0,0.0,0.0,0.0,0.0,0.0,0.0,0.0,0.0,0.0,0.0,0.0,0.0,0.0,0.0,0.0,0.0,0.0,0.0,0.0,0.0,0.0,0.0,0.0,0.0,0.0,0.0,0.0,0.0,3.0136,3.1844,3.2675,3.3074,3.2789,3.1531,3.0139,2.8288,2.5979,2.3207,0.0,0.0,0.0,0.0,0.0,0.0,0.0,0.0,0.0,0.0,0.0,0.0,0.0,0.0,0.0,0.0,0.0,0.0,0.0,0.0,0.0,0.0,0.0,0.0,0.0,0.0,0.0,0.0,0.0,0.0,0.0,0.0,0.0,0.0,0.0,0.0,0.0,0.0,0.0,0.0,0.0,0.0,0.0,0.0,0.0,0.0,0.0,0.0,0.0,0.0,0.0,0.0,0.0,0.0,0.0,0.0,0.0,0.0,0.0,0.0,0.0,0.0,0.0,0.0,0.0,0.0,0.0,0.0,0.0,0.0,0.0,0.0,0.0,0.0,0.0,0.0,0.0,0.0,0.0,0.0,0.0,0.0,0.0,0.0,0.0,0.0,0.0,0.0,0.0,0.0,0.0,0.0,0.0,0.0,0.0,0.0,0.0,0.0,0.0,0.0,0.0,0.0,3.2686,3.4186,3.4241,3.4901,3.4755,3.3153,3.1931,2.9923,2.6964,2.4503,0.0,0.0,0.0,0.0,0.0,0.0,0.0,0.0,0.0,0.0,0.0,0.0,0.0,0.0,0.0,0.0,0.0,0.0,0.0,0.0,0.0,0.0,0.0,0.0,0.0,0.0,0.0,0.0,0.0,0.0,0.0,0.0,0.0,0.0,0.0,0.0,0.0,0.0,0.0,0.0,0.0,0.0,0.0,0.0,0.0,0.0,0.0,0.0,0.0,0.0,0.0,0.0,0.0,0.0,0.0,0.0,0.0,0.0,0.0,0.0,0.0,0.0,0.0,0.0,0.0,0.0,0.0,0.0,0.0,0.0,0.0,0.0,0.0,0.0,0.0,0.0,0.0,0.0,0.0,0.0,0.0,0.0,0.0,0.0,0.0,0.0,0.0,0.0,0.0,0.0,0.0,0.0,0.0,0.0,0.0,0.0,0.0,0.0,0.0,0.0,0.0,0.0,3.3211,3.4605,3.51,3.521,3.4697,3.334,3.1873,2.9908,2.7395,0.0,0.0,0.0,0.0,0.0,0.0,0.0,0.0,0.0,0.0,0.0,0.0,0.0,0.0,0.0,0.0,0.0,0.0,0.0,0.0,0.0,0.0,0.0,0.0,0.0,0.0,0.0,0.0,0.0,0.0,0.0,0.0,0.0,0.0,0.0,0.0,0.0,0.0,0.0,0.0,0.0,0.0,0.0,0.0,0.0,0.0,0.0,0.0,0.0,0.0,0.0,0.0,0.0,0.0,0.0,0.0,0.0,0.0,0.0,0.0,0.0,0.0,0.0,0.0,0.0,0.0,0.0,0.0,0.0,0.0,0.0,0.0,0.0,0.0,0.0,0.0,0.0,0.0,0.0,0.0,0.0,0.0,0.0,0.0,0.0,0.0,0.0,0.0,0.0,0.0,0.0,0.0,0.0,0.0,0.0,0.0,0.0,0.0,0.0,0.0,0.0,0.0,3.1708,3.3845,3.5152,3.5559,3.5485,3.4807,3.334,3.1836,2.9995,2.7664,0.0,0.0,0.0,0.0,0.0,0.0,0.0,0.0,0.0,0.0,0.0,0.0,0.0,0.0,0.0,0.0,0.0,0.0,0.0,0.0,0.0,0.0,0.0,0.0,0.0,0.0,0.0,0.0,0.0,0.0,0.0,0.0,0.0,0.0,0.0,0.0,0.0,0.0,0.0,0.0,0.0,0.0,0.0,0.0,0.0,0.0,0.0,0.0,0.0,0.0,0.0,0.0,0.0,0.0,0.0,0.0,0.0,0.0,0.0,0.0,0.0,0.0,0.0,0.0,0.0,0.0,0.0,0.0,0.0,0.0,0.0,0.0,0.0,0.0,0.0,0.0,0.0,0.0,0.0,0.0,0.0,0.0,0.0,0.0,0.0,0.0,0.0,0.0,0.0,0.0,0.0,0.0,0.0,0.0,0.0,0.0,0.0,0.0,0.0,0.0,0.0,0.0,3.214,3.4719,3.6051,3.5632,3.5981,3.5394,3.3413,3.2111,3.0369,0.0,0.0,0.0,0.0,0.0,0.0,0.0,0.0,0.0,0.0,0.0,0.0,0.0,0.0,0.0,0.0,0.0,0.0,0.0,0.0,0.0,0.0,0.0,0.0,0.0,0.0,0.0,0.0,0.0,0.0,0.0,0.0,0.0,0.0,0.0,0.0,0.0,0.0,0.0,0.0,0.0,0.0,0.0,0.0,0.0,0.0,0.0,0.0,0.0,0.0,0.0,0.0,0.0,0.0,0.0,0.0,0.0,0.0,0.0,0.0,0.0,0.0,0.0,0.0,0.0,0.0,0.0,0.0,0.0,0.0,0.0,0.0,0.0,0.0,0.0,0.0,0.0,0.0,0.0,0.0,0.0,0.0,0.0,0.0,0.0,0.0,0.0,0.0,0.0,0.0,0.0,0.0,0.0,0.0,0.0,0.0,0.0,0.0,0.0,0.0,0.0,0.0,0.0,3.2383,3.457,3.5938,3.6423,3.6294,3.5632,3.4183,3.3211,3.1524,2.8792,0.0,0.0,0.0,0.0,0.0,0.0,0.0,0.0,0.0,0.0,0.0,0.0,0.0,0.0,0.0,0.0,0.0,0.0,0.0,0.0,0.0,0.0,0.0,0.0,0.0,0.0,0.0,0.0,0.0,0.0,0.0,0.0,0.0,0.0,0.0,0.0,0.0,0.0,0.0,0.0,0.0,0.0,0.0,0.0,0.0,0.0,0.0,0.0,0.0,0.0,0.0,0.0,0.0,0.0,0.0,0.0,0.0,0.0,0.0,0.0,0.0,0.0,0.0,0.0,0.0,0.0,0.0,0.0,0.0,0.0,0.0,0.0,0.0,0.0,0.0,0.0,0.0,0.0,0.0,0.0,0.0,0.0,0.0,0.0,0.0,0.0,0.0,0.0,0.0,0.0,0.0,0.0,0.0,0.0,0.0,0.0,0.0,0.0,0.0,0.0,0.0,0.0,3.2516,3.4947,3.6466,3.6959,3.6961,3.6404,3.525,3.4692,3.3129,3.0079,0.0,0.0,0.0,0.0,0.0,0.0,0.0,0.0,0.0,0.0,0.0,0.0,0.0,0.0,0.0,0.0,0.0,0.0,0.0,0.0,0.0,0.0,0.0,0.0,0.0,0.0,0.0,0.0,0.0,0.0,0.0,0.0,0.0,0.0,0.0,0.0,0.0,0.0,0.0,0.0,0.0,0.0,0.0,0.0,0.0,0.0,0.0,0.0,0.0,0.0,0.0,0.0,0.0,0.0,0.0,0.0,0.0,0.0,0.0,0.0,0.0,0.0,0.0,0.0,0.0,0.0,0.0,0.0,0.0,0.0,0.0,0.0,0.0,0.0,0.0,0.0,0.0,0.0,0.0,0.0,0.0,0.0,0.0,0.0,0.0,0.0,0.0,0.0,0.0,0.0,0.0,0.0,0.0,0.0,0.0,0.0,0.0,0.0,0.0,0.0,0.0,0.0,3.2594,3.5563,3.7398,3.7454,3.7873,3.7644,3.6466,3.6314,3.4888,3.1598,0.0,0.0,0.0,0.0,0.0,0.0,0.0,0.0,0.0,0.0,0.0,0.0,0.0,0.0,0.0,0.0,0.0,0.0,0.0,0.0,0.0,0.0,0.0,0.0,0.0,0.0,0.0,0.0,0.0,0.0,0.0,0.0,0.0,0.0,0.0,0.0,0.0,0.0,0.0,0.0,0.0,0.0,0.0,0.0,0.0,0.0,0.0,0.0,0.0,0.0,0.0,0.0,0.0,0.0,0.0,0.0,0.0,0.0,0.0,0.0,2.5567,2.4812,0.0,0.0,0.0,0.0,0.0,0.0,0.0,0.0,0.0,0.0,0.0,0.0,0.0,0.0,0.0,0.0,0.0,0.0,0.0,0.0,0.0,0.0,0.0,0.0,0.0,0.0,0.0,0.0,0.0,0.0,0.0,0.0,0.0,0.0,0.0,0.0,0.0,0.0,0.0,0.0,3.319,3.6028,3.781,3.8243,3.8384,3.8239,3.7637,3.7287,3.5889,3.3175,3.0509,0.0,0.0,0.0,0.0,0.0,0.0,0.0,0.0,0.0,0.0,0.0,0.0,0.0,0.0,0.0,0.0,0.0,0.0,0.0,0.0,0.0,0.0,0.0,0.0,0.0,0.0,0.0,0.0,0.0,0.0,0.0,0.0,0.0,0.0,0.0,0.0,0.0,0.0,0.0,0.0,0.0,0.0,0.0,0.0,0.0,0.0,0.0,0.0,0.0,0.0,0.0,0.0,0.0,0.0,0.0,0.0,0.0,0.0,0.0,2.7981,2.6831,0.0,0.0,0.0,0.0,0.0,0.0,0.0,0.0,0.0,0.0,0.0,0.0,0.0,0.0,0.0,0.0,0.0,0.0,0.0,0.0,0.0,0.0,0.0,0.0,0.0,0.0,0.0,0.0,0.0,0.0,0.0,0.0,0.0,0.0,0.0,0.0,0.0,0.0,0.0,0.0,3.3752,3.7363,3.9779,4.0306,4.0551,4.0563,4.0179,3.9654,3.8311,3.5894,3.3235,0.0,0.0,0.0,0.0,0.0,0.0,0.0,0.0,0.0,0.0,0.0,0.0,0.0,0.0,0.0,0.0,0.0,0.0,0.0,0.0,0.0,0.0,0.0,0.0,0.0,0.0,0.0,0.0,0.0,0.0,0.0,0.0,0.0,0.0,0.0,0.0,0.0,0.0,0.0,0.0,0.0,0.0,0.0,0.0,0.0,0.0,0.0,0.0,0.0,0.0,0.0,0.0,0.0,3.1581,3.2034,3.2521,3.2692,3.293,3.3125,3.0449,2.9164,2.8877,2.8363,0.0,0.0,0.0,0.0,0.0,0.0,0.0,0.0,0.0,0.0,0.0,0.0,0.0,0.0,0.0,0.0,0.0,0.0,0.0,0.0,0.0,0.0,3.0539,3.0407,3.1,3.0983,2.8564,0.0,0.0,0.0,0.0,0.0,0.0,0.0,0.0,0.0,0.0,0.0,3.462,3.8978,4.1967,4.2316,4.2842,4.3086,4.276,4.2143,4.0892,3.8905,3.6219,3.3448,0.0,0.0,0.0,0.0,0.0,0.0,0.0,0.0,0.0,0.0,0.0,0.0,0.0,0.0,0.0,0.0,0.0,0.0,0.0,0.0,0.0,0.0,0.0,0.0,0.0,0.0,0.0,0.0,0.0,0.0,0.0,0.0,2.7566,2.7916,0.0,0.0,0.0,0.0,0.0,0.0,0.0,0.0,0.0,0.0,0.0,0.0,0.0,3.0038,3.0891,3.2049,3.3058,3.3861,3.4208,3.4746,3.5441,3.5137,3.5,3.5019,3.4193,0.0,3.1659,3.1151,0.0,0.0,0.0,0.0,0.0,0.0,0.0,0.0,0.0,0.0,0.0,0.0,0.0,0.0,0.0,0.0,0.0,0.0,0.0,0.0,0.0,0.0,3.3136,3.3817,3.4654,3.5195,3.4739,3.2785,3.0856,3.0088,2.9172,2.7915,0.0,0.0,0.0,0.0,0.0,0.0,3.6384,4.0215,4.2594,4.2661,4.3487,4.4023,4.3956,4.3107,4.208,4.1024,3.862,3.6195,3.3968,3.0743,0.0,0.0,0.0,0.0,0.0,0.0,0.0,0.0,0.0,0.0,0.0,0.0,0.0,0.0,0.0,0.0,0.0,0.0,0.0,0.0,0.0,0.0,0.0,0.0,0.0,0.0,0.0,0.0,0.0,2.8238,2.8785,2.8649,2.8413,2.8099,0.0,0.0,0.0,0.0,0.0,0.0,0.0,0.0,0.0,3.0644,3.103,3.1976,3.356,3.4073,3.494,3.5967,3.6161,3.6658,3.7441,3.7266,3.7187,3.7148,3.6699,3.5957,3.4922,3.3262,3.2246,3.1562,0.0,0.0,0.0,0.0,2.9629,3.082,3.1289,3.129,3.1012,3.0401,0.0,0.0,0.0,0.0,0.0,0.0,0.0,2.963,3.1958,3.3965,3.5554,3.5931,3.6706,3.7577,3.8173,3.725,3.581,3.4049,3.3233,3.2115,3.0127,2.7711,0.0,0.0,0.0,3.4419,3.7554,4.1793,4.4505,4.4505,4.5439,4.6046,4.6046,4.5369,4.4505,4.3542,4.192,3.9873,3.7511,3.4751,3.2336,0.0,0.0,0.0,0.0,0.0,0.0,0.0,0.0,0.0,0.0,0.0,0.0,0.0,0.0,0.0,0.0,0.0,0.0,0.0,0.0,0.0,0.0,0.0,0.0,0.0,0.0,0.0,0.0,2.9278,2.9872,2.9601,2.9461,2.9297,0.0,0.0,0.0,0.0,0.0,0.0,3.0272,3.043,3.1191,3.2617,3.2871,3.3769,3.5371,3.5605,3.625,3.7305,3.7402,3.7851,3.8574,3.8574,3.8516,3.8398,3.8066,3.7676,3.7148,3.5098,3.4121,3.375,3.1914,3.1601,3.207,3.1191,3.168,3.293,3.3672,3.3965,3.3965,3.3937,3.3289,3.2259,3.1171,0.0,0.0,0.0,0.0,3.3161,3.5025,3.6903,3.83,3.8403,3.9041,3.9875,4.0647,4.0939,4.03,3.765,3.6747,3.5868,3.4053,3.1288,0.0,3.209,3.4037,3.625,3.893,4.3044,4.5718,4.5718,4.6535,4.7088,4.7088,4.6607,4.5982,4.5125,4.4106,4.258,4.0419,3.8099,3.5892,3.3851,0.0,0.0,0.0,0.0,0.0,0.0,0.0,0.0,0.0,0.0,0.0,0.0,0.0,0.0,0.0,0.0,0.0,0.0,0.0,0.0,0.0,0.0,0.0,0.0,0.0,0.0,0.0,0.0,0.0,3.0762,3.0801,0.0,0.0,0.0,0.0,3.0703,3.1152,3.1582,3.2012,3.2793,3.3457,3.3965,3.4785,3.5293,3.5391,3.6191,3.6836,3.7305,3.7695,3.8125,3.8574,3.8574,3.8359,3.7949,3.793,3.7676,3.7266,3.6719,3.6035,3.5195,3.4258,3.3906,3.3848,3.2988,3.3476,3.4648,3.5137,3.552,3.5944,3.702,3.6545,3.5501,3.5046,3.4213,0.0,0.0,3.6449,3.7301,3.9597,4.0848,4.1677,4.2046,4.2457,4.2766,4.274,4.3579,4.3392,4.0482,3.9405,3.8424,3.6545,0.0,3.4418,3.6025,3.7053,3.8507,4.1009,4.3586,4.5101,4.5101,4.5669,4.6006,4.6006,4.5525,4.5125,4.5077,4.4106,4.3083,4.2185,4.0129,3.8218,3.6333,3.3214,0.0,0.0,0.0,0.0,0.0,0.0,0.0,0.0,0.0,0.0,0.0,0.0,0.0,0.0,0.0,0.0,0.0,0.0,0.0,0.0,0.0,0.0,0.0,0.0,0.0,0.0,0.0,0.0,3.2109,3.2363,0.0,3.2148,3.1836,3.1894,3.248,3.3164,3.3633,3.3789,3.4082,3.457,3.5312,3.5625,3.6055,3.6621,3.6914,3.7285,3.7715,3.8144,3.8418,3.8594,3.8848,3.875,3.832,3.8047,3.7832,3.7676,3.7246,3.6738,3.6094,3.4941,3.4648,3.4824,3.3945,3.4452,3.5507,3.5961,3.7018,3.8382,3.971,3.9636,3.8911,3.8477,3.7907,3.7569,3.8545,3.9136,3.9814,4.1209,4.2259,4.295,4.306,4.346,4.3843,4.3917,4.3906,4.3581,4.269,4.249,4.2033,4.0764,3.8948,3.8107,3.9315,3.953,4.0192,4.2112,4.4157,4.5455,4.5455,4.6105,4.6573,4.6573,4.6378,4.6134,4.5792,4.5378,4.4878,4.4281,4.3178,4.1803,4.0122,3.7316,3.4652,0.0,0.0,0.0,0.0,0.0,0.0,0.0,0.0,0.0,0.0,0.0,0.0,0.0,0.0,0.0,0.0,0.0,0.0,0.0,0.0,0.0,0.0,0.0,0.0,0.0,3.1914,3.3066,3.3203,3.3594,3.375,3.3457,3.3301,3.3398,3.3828,3.4531,3.4941,3.4941,3.5059,3.541,3.5996,3.6152,3.6504,3.709,3.7226,3.75,3.793,3.8223,3.8437,3.8594,3.8867,3.8828,3.8555,3.8262,3.8138,3.8105,3.7814,3.754,3.7133,3.5995,3.5684,3.5762,3.5176,3.5481,3.6229,3.7254,3.903,4.1063,4.2392,4.2681,4.2523,4.2362,4.2071,4.1893,4.2342,4.2799,4.3328,4.4124,4.4778,4.5152,4.4966,4.5175,4.5311,4.5057,4.4213,4.3583,4.3682,4.3877,4.3794,4.2904,4.1605,4.0908,4.1605,4.1413,4.1687,4.3035,4.4475,4.5375,4.55,4.6004,4.6325,4.6325,4.6325,4.6178,4.5834,4.5638,4.5368,4.506,4.4347,4.329,4.1864,3.8792,3.5841,3.2892,0.0,0.0,0.0,0.0,0.0,0.0,0.0,0.0,0.0,0.0,0.0,0.0,0.0,0.0,0.0,0.0,0.0,0.0,0.0,0.0,0.0,0.0,0.0,3.0937,3.2402,3.3652,3.4082,3.4512,3.4766,3.4766,3.4394,3.4336,3.4707,3.5176,3.543,3.541,3.5781,3.5996,3.5996,3.6426,3.666,3.668,3.709,3.7519,3.7949,3.7949,3.8164,3.8574,3.8647,3.8647,3.8647,3.8647,3.8629,3.8573,3.8538,3.8442,3.8371,3.7599,3.7082,3.6749,3.6749,3.673,3.6937,3.9185,4.164,4.3831,4.4781,4.5497,4.603,4.6511,4.6488,4.6454,4.7005,4.7409,4.7853,4.8379,4.8526,4.8403,4.7774,4.7675,4.7381,4.6276,4.4803,4.359,4.36,4.354,4.3313,4.2891,4.2843,4.2867,4.2867,4.2867,0.0,4.3965,4.45,4.4963,4.527,4.5331,4.5331,4.5331,4.5331,4.5331,4.5306,4.4814,4.4519,4.4495,4.3487,4.2405,4.1299,3.7613,3.4118,3.0934,0.0,0.0,0.0,0.0,0.0,0.0,0.0,0.0,0.0,0.0,0.0,0.0,0.0,0.0,0.0,0.0,0.0,0.0,0.0,0.0,0.0,3.0684,3.1816,3.1816,3.3574,3.5019,3.543,3.6133,3.6465,3.6152,3.6309,3.6191,3.5684,3.6074,3.6172,3.5859,3.5664,3.5566,3.5566,3.5976,3.6348,3.666,3.7383,3.7969,3.8398,3.8398,3.8457,3.8574,3.8885,3.903,3.903,3.9301,3.9726,4.0228,4.0417,4.0817,4.1036,3.8745,3.8017,3.8289,3.8289,3.873,3.9544,4.1199,4.26,4.3845,4.4924,4.5603,4.5886,4.59,4.5833,4.5789,4.5795,4.5846,4.6031,4.6658,4.7101,4.7346,4.7135,4.7405,4.7283,4.5871,4.4533,4.3551,4.3134,4.3066,4.312,4.3423,4.4132,4.4646,4.4646,4.4646,4.4695,4.4878,4.5293,4.5574,4.5635,4.5878,4.5999,4.5999,4.5999,4.5824,4.551,4.5335,4.506,4.4577,4.4278,4.323,4.1334,3.9116,3.6743,0.0,0.0,0.0,0.0,0.0,0.0,0.0,0.0,0.0,0.0,0.0,0.0,0.0,0.0,0.0,0.0,0.0,0.0,0.0,0.0,0.0,0.0,3.1562,3.2812,3.3184,3.4473,3.5547,3.5976,3.6465,3.666,3.6426,3.6621,3.6562,3.6055,3.625,3.6289,3.6035,3.543,3.5273,3.5644,3.5723,3.6133,3.6934,3.7598,3.8144,3.8574,3.8574,3.8793,3.9063,3.9518,3.9806,4.0146,4.0504,4.1126,4.1813,4.2116,4.2674,4.3129,0.0,0.0,0.0,0.0,4.1265,4.2073,4.3069,4.3786,4.4475,4.5405,4.5852,4.5969,4.5865,4.555,4.5208,4.4825,4.4685,4.4754,4.5324,4.6216,4.6985,4.6985,4.7579,4.7679,4.6043,4.4655,4.3614,4.3375,4.3126,0.0,4.3912,4.4798,4.5331,4.5331,4.5331,4.5331,4.5514,4.5696,4.5817,4.5999,4.618,4.6301,4.6301,4.6301,0.0,0.0,0.0,4.4769,4.3966,4.3714,0.0,0.0,0.0,0.0,0.0,0.0,0.0,0.0,3.3816,3.4835,0.0,0.0,0.0,0.0,0.0,0.0,0.0,0.0,0.0,0.0,0.0,0.0,0.0,0.0,0.0,0.0,3.248,3.3848,3.4668,3.5176,3.5625,3.6035,3.6133,3.6152,3.6094,3.6094,3.6074,3.6016,3.6016,3.6016,3.6016,3.5234,0.0,0.0,0.0,3.5957,3.7148,3.7578,3.8099,3.8569,3.8641,3.9096,3.9858,4.0341,4.0983,4.1672,4.2165,4.2796,4.347,4.3849,4.4411,4.5056,4.3661,4.3103,4.3169,4.3499,4.3878,4.4317,4.4626,0.0,0.0,4.5896,4.5981,4.6019,4.5896,4.5365,4.469,4.4153,4.3861,4.384,4.4468,4.5824,4.7054,4.7129,4.7983,4.8309,4.6677,4.5095,4.3966,4.3915,4.3489,4.3489,4.4543,4.5122,4.5392,4.5392,4.5392,4.5514,4.5817,4.5878,4.5939,4.624,4.6301,0.0,4.6301,4.6301,4.6276,4.6225,4.5221,4.4192,4.3212,4.274,4.2208,4.1652,4.1175,4.0501,3.9521,3.9521,3.9798,4.03,3.8442,3.8467,0.0,0.0,0.0,0.0,0.0,0.0,0.0,0.0,0.0,0.0,0.0,0.0,0.0,0.0,0.0,3.2207,3.3574,3.4648,3.5176,3.5625,3.6055,3.6484,3.6836,3.6914,3.6582,3.6543,3.6406,3.6035,3.6016,3.6016,3.6016,3.5527,3.5332,3.5508,3.543,3.5664,3.6269,3.6976,3.7727,3.8497,3.8835,0.0,4.0719,4.1672,4.2495,4.3214,4.4161,4.5051,4.582,4.6375,4.7413,4.837,4.6049,4.5112,4.5178,4.5507,4.5592,4.5478,4.5402,4.5378,4.5355,4.5454,4.5417,4.5331,4.4744,4.4442,0.0,4.3419,4.3156,4.3363,4.4367,4.5547,4.6577,4.7029,4.7983,4.8309,4.6677,4.5698,4.502,4.4543,4.4367,4.4518,4.5196,4.5754,4.612,4.612,4.612,4.612,4.618,4.618,4.624,4.6301,4.6301,4.6301,4.6301,4.6301,4.6125,4.5673,4.4995,4.4518,4.4317,4.4192,4.4091,4.3933,4.389,4.3714,4.3514,4.3514,4.3815,4.4292,4.1279,4.0752,0.0,0.0,0.0,0.0,0.0,0.0,0.0,0.0,0.0,0.0,0.0,2.8047,2.9316,0.0,3.1953,3.3223,3.4336,3.5195,3.5644,3.5879,3.6094,3.6328,3.6523,3.6582,3.6367,3.6348,3.625,3.6035,3.6016,3.6016,3.6016,3.5625,3.5488,3.5703,3.5508,3.577,3.6602,3.6976,3.7619,3.8487,3.8678,3.9484,4.0904,4.1775,4.2926,4.4274,4.5346,4.6248,4.7008,4.7911,4.8787,4.95,4.8166,4.7653,4.7653,4.7849,4.766,4.7273,4.7192,4.6762,4.6215,4.6215,4.6041,4.5668,4.5026,4.4436,4.3869,4.3212,4.2841,4.276,4.3589,4.5045,4.6451,4.6943,4.8184,4.8812,4.7405,4.6903,4.6451,4.5623,4.5472,4.5573,4.5849,4.6125,4.6301,4.6301,4.6301,4.6301,4.6301,4.6301,4.6301,4.6301,4.6301,4.6301,4.6301,4.6301,4.6075,4.5522,4.5221,4.492,4.4644,4.4618,4.4618,4.4618,4.4618,4.4618,4.4618,4.4618,4.492,4.5447,4.379,4.3589,0.0,0.0,0.0,0.0,0.0,0.0,0.0,2.6367,2.6484,2.7826,2.8379,2.9082,3.0449,3.1719,3.293,3.4141,3.5,3.5625,3.5976,3.6016,3.6016,3.6016,3.6016,3.6016,3.6016,3.6016,3.6016,3.6016,3.6016,3.6016,3.6016,3.5703,3.5664,3.6016,3.5751,3.611,3.7074,3.7231,3.7657,3.8375,3.8445,3.9294,4.0772,4.1512,4.2919,4.4846,4.6224,4.7208,4.796,4.8877,4.9332,4.959,4.959,4.959,4.959,4.959,4.9238,4.8761,4.8761,4.8109,4.728,4.7093,4.6828,4.6351,4.5673,4.4844,4.4016,4.3463,4.2986,4.276,4.3313,4.4869,4.6476,4.7129,4.8385,4.9188,4.8284,4.7983,4.7631,4.6652,4.6376,4.6301,4.6301,4.6301,4.6301,4.6301,4.6301,4.6301,4.6301,4.6301,4.6301,4.6301,4.6301,4.6301,4.6301,4.6301,4.6125,4.5673,4.5648,4.5447,4.497,4.4945,4.4945,4.4945,4.4945,4.4945,4.4945,4.4945,4.5196,4.5648,4.5648,4.5874,2.6543,2.6621,2.6953,2.6953,2.7168,2.7454,0.0,2.748,2.7812,2.9137,2.9687,3.0508,3.2187,3.3242,3.416,3.5098,3.5644,3.5976,3.6016,3.6016,3.6016,3.6016,3.6016,3.6016,3.6016,3.6016,3.6016,3.6016,3.6016,3.6016,3.6016,3.5976,3.5976,3.6016,3.6228,3.6431,3.6598,3.7227,3.7787,3.8303,3.8576,3.9417,4.0678,4.1405,4.2794,4.4748,4.7167,4.8657,4.9396,4.9461,4.959,4.959,4.959,4.959,4.959,4.959,4.9238,4.8761,4.8761,4.836,4.7732,4.728,4.7043,4.6853,4.5799,4.5397,4.5171,4.4593,4.4392,4.4493,4.507,4.5748,4.6577,4.7581,4.836,4.8837,4.8711,4.8259,4.7732,4.7154,4.6652,4.6301,4.6301,4.6301,4.6301,4.6301,4.6301,4.6301,4.6301,4.6301,4.6301,4.6301,4.6301,4.6301,4.6301,4.6301,4.6276,4.6225,4.6225,4.6175,4.6125,4.6125,4.6125,4.6125,4.6125,4.6125,4.6125,4.6125,4.615,4.6225,4.6225,4.625,2.7363,2.707,2.7187,2.793,2.8086,2.8223,2.8965,2.8945,2.9196,3.043,3.1055,3.1719,3.293,3.3867,3.4648,3.5293,3.5742,3.6016,3.6016,3.6152,3.6268,3.6268,3.6253,3.6194,3.5996,3.6016,3.6016,3.6016,3.6016,3.6016,3.6016,3.6016,3.6084,3.6268,3.6451,3.6722,3.7146,3.7482,3.7908,3.8562,3.8517,3.9239,4.0614,4.1058,4.2993,4.5893,4.7783,4.8942,4.959,4.959,4.959,4.959,4.959,4.959,4.959,4.959,4.9439,4.9264,4.9264,4.8887,4.8385,4.8159,4.7657,4.6993,4.6577,4.6225,4.5924,4.5673,4.5598,4.5673,4.5899,4.6376,4.6903,4.7355,4.8134,4.8686,4.8335,4.8083,4.7757,4.7168,4.6702,4.6301,4.6301,4.6577,4.6677,4.6351,4.6301,4.6301,4.6301,4.6301,4.6301,4.6301,4.6301,4.6301,4.6301,4.6301,4.6301,4.6301,4.6301,4.6301,4.6301,4.6301,4.6301,4.6301,4.6301,4.6301,4.6301,4.6301,4.6301,4.6301,4.6301,4.6476,2.7793,2.7519,2.7617,2.8652,2.8789,2.8945,3.0117,3.0156,3.0312,3.1601,3.2129,3.2598,3.3437,3.4199,3.4844,3.5312,3.5742,3.6016,3.6152,3.6336,3.6519,3.6654,3.6476,3.6336,3.6138,3.611,3.615,3.6268,3.6287,3.6287,3.6287,3.6287,3.6403,3.6654,3.6789,3.7059,3.7616,3.7683,3.8068,3.8667,3.8336,3.8925,4.0231,4.133,4.3493,4.6552,4.7971,4.8942,4.959,4.959,4.959,4.959,4.959,4.959,4.959,4.959,4.959,4.959,4.959,4.9339,4.8937,4.8636,4.7983,4.728,4.7004,4.6627,4.6301,4.6301,4.6301,4.6301,4.6301,4.6602,4.6954,4.7043,4.7857,4.846,4.8209,4.8159,4.7983,4.7456,4.6903,4.6502,4.6326,4.6778,4.6954,4.6401,4.6451,4.6476,4.6326,4.6301,4.6301,4.6301,4.6301,4.6301,4.6301,4.6301,4.6301,4.6301,4.6301,4.6301,4.6301,4.6301,4.6301,4.6301,4.6301,4.6301,4.6301,4.6301,4.6301,4.6301,4.6301,4.6527,2.7559,2.7949,2.8359,2.8809,2.9219,2.9766,3.0664,3.0859,3.1211,3.25,3.2773,3.3047,3.3887,3.4414,3.4844,3.5312,3.5742,3.6084,3.6451,3.6519,3.6654,3.7011,3.6676,3.6415,3.6369,3.6369,3.6616,3.7038,3.7079,3.7079,3.7079,3.7079,3.7079,3.7079,3.7415,3.7549,3.7616,3.7971,3.8191,3.8212,3.8191,3.8591,3.9361,4.241,4.4547,4.6038,4.7775,4.8918,4.959,4.959,4.959,4.959,4.959,4.959,4.959,4.959,4.959,4.959,4.959,4.959,4.9389,4.8284,4.7908,4.7682,4.6652,4.6326,4.6301,4.6301,4.6301,4.6301,4.6301,4.6326,4.6476,4.7004,4.7531,4.8083,4.8636,4.8736,4.856,4.7983,4.7456,4.6928,4.6401,4.6778,4.6954,4.6401,4.6753,4.6903,4.6376,4.6301,4.6301,4.6301,4.6301,4.6301,4.6301,4.6301,4.6301,4.6301,4.6301,4.6301,4.6301,4.6301,4.6301,4.6301,4.6301,4.6301,4.6301,4.6301,4.6301,4.6301,4.6301,4.6326,2.8301,2.8809,2.9316,3.0039,3.0547,3.1094,3.1953,3.2148,3.2363,3.3066,3.2988,3.3066,3.3906,3.3945,3.418,3.5234,3.5689,3.6068,3.6479,3.6924,3.728,3.7415,3.6963,3.6811,3.7119,3.6679,3.6475,3.6616,3.6918,3.7079,3.7079,3.7079,3.7213,3.7415,3.7549,3.777,3.7971,3.8104,3.847,3.903,3.9923,4.0672,4.1357,4.3432,4.4952,4.6099,4.7671,4.8615,4.9088,4.9439,4.959,4.959,4.959,4.959,4.959,4.959,4.959,4.959,4.959,4.959,4.9464,4.8711,4.8209,4.7782,4.7079,4.6602,4.6301,4.6301,4.6301,4.6301,4.6301,4.6577,4.6903,4.7043,4.7832,4.8535,4.8736,4.846,4.8134,4.7933,4.7481,4.7018,4.6878,4.7606,4.8159,4.7983,4.7179,4.6527,4.6326,4.6301,4.6301,4.6301,4.6301,4.6301,4.6301,4.6301,4.6301,4.6301,4.6301,4.6301,4.6301,4.6301,4.6301,4.6301,4.6301,4.6301,4.6301,4.6301,4.6301,4.6301,4.6301,4.6502,2.8691,2.9473,3.0176,3.0742,3.1328,3.1934,3.2637,3.2793,3.2871,3.3144,3.2871,3.2734,3.3301,3.3281,3.3516,3.4662,3.5455,3.605,3.6576,3.7179,3.7616,3.7837,3.7377,3.7177,3.7467,3.693,3.6567,3.6567,3.6851,3.7075,3.7238,3.74,3.7569,3.7837,3.7837,3.7986,3.8419,3.8253,3.8716,3.9702,4.1088,4.2207,4.3051,4.4451,4.5594,4.6539,4.7644,4.8396,4.8786,4.9163,4.9414,4.959,4.959,4.959,4.959,4.959,4.959,4.959,4.959,4.959,4.9515,4.8962,4.8385,4.7857,4.7506,4.7029,4.6602,4.6602,4.6602,4.6552,4.6351,4.6577,4.6828,4.6828,4.7682,4.846,4.846,4.8485,4.846,4.8259,4.7933,4.7657,4.7431,4.7983,4.8535,4.8736,4.7682,4.6878,4.6878,4.6878,4.6878,4.6878,4.6728,4.6602,4.6602,4.6426,4.6301,4.6301,4.6301,4.6301,4.6301,4.6301,4.6301,4.6301,4.6301,4.6301,4.6301,4.6301,4.6301,4.6301,4.6301,4.6502,2.875,2.9961,3.0957,3.0957,3.1601,3.2344,3.2715,3.2793,3.2793,3.2734,3.2402,3.2109,3.2129,3.2441,3.2976,3.378,3.4992,3.609,3.679,3.733,3.775,3.8171,3.7777,3.7488,3.7488,3.7053,3.6784,3.6804,3.6825,3.7032,3.7508,3.7943,3.8191,3.8191,3.8191,3.8398,3.8786,3.8507,3.8967,4.0257,4.1697,4.3028,4.4398,4.555,4.6439,4.7129,4.7631,4.8184,4.8686,4.8711,4.9063,4.9565,4.9565,4.9565,4.959,4.959,4.959,4.959,4.959,4.959,4.9515,4.8962,4.841,4.7933,4.7908,4.7556,4.7179,4.7093,4.7068,4.7004,4.6451,4.6326,4.6351,4.6351,4.7179,4.7958,4.7958,4.8786,4.9389,4.8862,4.8761,4.8611,4.8083,4.7983,4.8184,4.8736,4.8335,4.7983,4.7908,4.7908,4.7908,4.7908,4.7431,4.7068,4.7068,4.6627,4.6301,4.6301,4.6301,4.6301,4.6301,4.6301,4.6301,4.6301,4.6301,4.6301,4.6301,4.6301,4.6301,4.6301,4.6351,4.6351,2.9648,3.084,3.1836,3.1836,3.248,3.3047,3.2832,3.2793,3.2617,3.1973,3.1504,3.1309,3.1621,3.1682,3.2176,3.3621,3.4923,3.5973,3.6775,3.755,3.8125,3.8191,3.7777,3.7488,3.7488,3.6763,3.6432,3.6784,3.7115,3.7529,3.7984,3.8129,3.8191,3.8191,3.8191,3.8398,3.8786,3.9449,4.019,4.0968,4.2333,4.374,4.5098,4.5637,4.6077,4.6552,4.7104,4.7405,4.7581,4.7958,4.846,4.8987,4.8987,4.9238,4.959,4.959,4.959,4.959,4.959,4.959,4.9515,4.8962,4.8661,4.846,4.8033,4.7807,4.7631,4.7193,4.7068,4.7004,4.6451,4.6627,4.6928,4.6928,4.7757,4.856,4.856,4.8786,4.8937,4.8786,4.8761,4.8862,4.9113,4.9163,4.9213,4.9364,4.9264,4.8862,4.8008,4.7908,4.7908,4.7908,4.7431,4.7068,4.7068,4.6627,4.6301,4.6301,4.6301,4.6301,4.6301,4.6301,4.6301,4.6301,4.6301,4.6301,4.6301,4.6301,4.6301,4.6326,4.6728,4.6928,3.0312,3.1445,3.2441,3.2441,3.2793,3.3086,3.2851,3.25,3.2051,3.1367,3.0586,3.0156,3.0586,3.0699,3.1265,3.3014,3.461,3.5904,3.6749,3.7625,3.8191,3.8191,3.7964,3.7798,3.7798,3.7136,3.6908,3.7384,3.7281,3.7384,3.786,3.8067,3.8191,3.8191,3.8191,3.8316,3.8543,3.9939,4.0957,4.1651,4.3091,4.4422,4.5732,4.5939,4.612,4.6326,4.6652,4.6903,4.7093,4.7456,4.7883,4.841,4.8686,4.8962,4.9264,4.9515,4.959,4.959,4.959,4.959,4.954,4.9238,4.8962,4.8761,4.8661,4.8485,4.8234,4.7933,4.7857,4.7732,4.7154,4.723,4.7481,4.7481,4.8134,4.8761,4.8761,4.8962,4.9138,4.9138,4.9138,4.9238,4.954,4.959,4.959,4.959,4.959,4.9364,4.8736,4.8661,4.8661,4.8661,4.8184,4.7857,4.7857,4.733,4.7004,4.7004,4.7004,4.7004,4.7004,4.7004,4.7004,4.7004,4.7004,4.7004,4.7004,4.7004,4.7004,4.7029,4.733,4.7481,3.0937,3.1914,3.2793,3.2734,3.2754,3.2754,3.2578,3.1973,3.1289,3.0742,2.9668,2.8945,2.9336,2.9691,3.0406,3.2069,3.4085,3.5703,3.6492,3.7425,3.8026,3.8088,3.8088,3.8109,3.8171,3.7819,3.7757,3.815,3.7446,3.7156,3.757,3.7964,3.8191,3.8191,3.8233,3.8253,3.8191,4.001,4.135,4.2201,4.3654,4.5,4.6301,4.6301,4.6301,4.6301,4.6301,4.6577,4.6968,4.6968,4.738,4.7958,4.846,4.8761,4.8937,4.9414,4.959,4.959,4.959,4.959,4.959,4.959,4.9264,4.8962,4.9439,4.9264,4.8862,4.8786,4.8761,4.8636,4.8058,4.7908,4.7908,4.7908,4.836,4.8761,4.8761,4.9213,4.959,4.959,4.959,4.959,4.959,4.959,4.959,4.959,4.959,4.959,4.959,4.959,4.959,4.959,4.9113,4.8761,4.8761,4.8234,4.7908,4.7908,4.7908,4.7908,4.7908,4.7908,4.7908,4.7908,4.7908,4.7908,4.7908,4.7908,4.7908,4.7908,4.8045,4.8096,3.1816,3.2363,3.2715,3.2363,3.2539,3.2519,3.1465,3.1113,3.0664,2.9492,2.8809,2.8418,2.8496,2.8945,2.9816,3.122,3.3082,3.4653,3.5542,3.6453,3.7177,3.757,3.7612,3.7757,3.815,3.8109,3.8088,3.8171,3.8026,3.7984,3.8067,3.815,3.8191,3.8191,3.8543,3.8564,3.8191,4.001,4.135,4.2201,4.3654,4.5,4.6301,4.6301,4.6301,4.6301,4.6301,4.6376,4.6451,4.6451,4.7029,4.7908,4.8033,4.8636,4.9464,4.9565,4.959,4.959,4.959,4.959,4.959,4.959,4.954,4.9464,4.9565,4.954,4.9364,4.8912,4.8761,4.8636,4.8058,4.7908,4.7908,4.7908,4.836,4.8761,4.8761,4.9213,4.959,4.959,4.959,4.959,4.959,4.959,4.959,4.959,4.959,4.959,4.959,4.959,4.959,4.959,4.9113,4.8761,4.8761,4.8234,4.7908,4.7908,4.7908,4.7908,4.7908,4.7908,4.7908,4.7908,4.7908,4.7908,4.7908,4.7908,4.7908,4.7933,4.8724,4.9077,3.2441,3.2793,3.3027,3.2598,3.2305,3.1855,3.0781,3.0176,2.9629,2.8769,2.8262,2.7969,2.7969,2.8443,2.9285,3.0636,3.2486,3.4113,3.5252,3.6225,3.697,3.7446,3.7488,3.7674,3.815,3.8191,3.8191,3.8191,3.8191,3.8191,3.8191,3.8191,3.8191,3.8191,3.8398,3.8398,3.8191,3.9774,4.1084,4.2201,4.3654,4.5,4.6301,4.6301,4.6301,4.6301,4.6301,4.6476,4.6753,4.6753,4.7205,4.7933,4.8234,4.8686,4.9213,4.949,4.959,4.959,4.959,4.959,4.959,4.959,4.959,4.959,4.959,4.959,4.954,4.9264,4.9213,4.9138,4.8862,4.8786,4.8786,4.8786,4.9012,4.9213,4.9213,4.9414,4.959,4.959,4.959,4.959,4.959,4.959,4.959,4.959,4.959,4.959,4.959,4.959,4.959,4.959,4.9364,4.9213,4.9213,4.8937,4.8786,4.8786,4.8786,4.8786,4.8786,4.8786,4.8786,4.8786,4.8786,4.8786,4.8786,4.8786,4.8786,4.8786,4.9406,5.0015,3.293,3.3164,3.3301,3.2793,3.209,3.123,3.0156,2.9394,2.875,2.8144,2.7754,2.75,2.7454,2.7847,2.8609,2.9856,3.1728,3.343,3.4797,3.579,3.6597,3.726,3.7343,3.757,3.8129,3.8191,3.8191,3.8191,3.8191,3.8191,3.8191,3.8191,3.8191,3.8191,3.8237,3.8304,3.837,3.9735,4.1119,4.2477,4.3778,4.5061,4.6301,4.6301,4.6301,4.6301,4.6301,4.6552,4.6954,4.6954,4.733,4.7958,4.841,4.8736,4.9012,4.9439,4.959,4.959,4.959,4.959,4.959,4.959,4.959,4.959,4.959,4.959,4.959,4.959,4.959,4.959,4.959,4.959,4.959,4.959,4.959,4.959,4.959,4.959,4.959,4.959,4.959,4.959,4.959,4.959,4.959,4.959,4.959,4.959,4.959,4.959,4.959,4.959,4.959,4.959,4.959,4.959,4.959,4.959,4.959,4.959,4.959,4.959,4.959,4.959,4.959,4.959,4.959,4.959,4.959,4.959,5.004,5.0689,3.3359,3.3398,3.3223,3.2422,3.1875,3.1074,2.9414,2.8984,2.8574,2.7383,2.7109,2.6953,2.6582,2.6953,2.7653,2.8528,3.0335,3.2023,3.3368,3.4362,3.5418,3.6701,3.6867,3.7218,3.8088,3.8191,3.8191,3.8191,3.8191,3.8191,3.8191,3.8191,3.8191,3.8191,3.8503,3.8814,3.9099,4.0517,4.1847,4.3193,4.4275,4.5306,4.6301,4.6301,4.6301,4.6301,4.6301,4.6326,4.6376,4.6376,4.6979,4.7908,4.7958,4.8611,4.9515,4.9565,4.959,4.959,4.959,4.959,4.959,4.959,4.959,4.959,4.959,4.959,4.959,4.959,4.959,4.959,4.959,4.959,4.959,4.959,4.959,4.959,4.959,4.959,4.959,4.959,4.959,4.959,4.959,4.959,4.959,4.959,4.959,4.959,4.959,4.959,4.959,4.959,4.959,4.959,4.959,4.959,4.959,4.959,4.959,4.959,4.959,4.959,4.959,4.959,4.959,4.959,4.959,4.959,4.959,4.959,5.0295,5.1068,3.3047,3.3223,3.3223,3.2383,3.166,3.0684,2.8945,2.8535,2.8262,2.7226,2.7226,2.7285,2.6836,2.6943,2.7442,2.8347,2.9627,3.1112,3.2768,3.3534,3.4445,3.5811,3.5976,3.6349,3.726,3.7612,3.7881,3.8171,3.8191,3.8191,3.8191,3.8191,3.8191,3.8191,3.8702,3.9276,3.9779,4.1206,4.2587,4.3879,4.4706,4.555,4.6301,4.6301,4.6301,4.6301,4.6301,4.6502,4.6803,4.6803,4.7456,4.8435,4.8435,4.8912,4.959,4.959,4.959,4.959,4.959,4.959,4.959,4.959,4.959,4.959,4.959,4.959,4.959,4.959,4.959,4.959,4.959,4.959,4.959,4.959,4.959,4.959,4.959,4.959,4.959,4.959,4.959,4.959,4.959,4.959,4.959,4.959,4.959,4.959,4.959,4.959,4.959,4.959,4.959,4.959,4.959,4.959,4.959,4.959,4.959,4.959,4.959,4.959,4.959,4.959,4.959,4.959,4.959,4.959,4.959,4.959,5.0295,5.1445,3.2754,3.3105,3.3223,3.2383,3.1523,3.043,2.8691,2.8301,2.8008,2.7031,2.7168,2.7344,2.6914,2.6864,2.72,2.7985,2.9034,3.0346,3.1899,3.2727,3.3637,3.4879,3.5024,3.5438,3.6494,3.7136,3.7695,3.815,3.8191,3.8129,3.7984,3.7984,3.7984,3.7984,3.8756,3.9498,4.0318,4.182,4.3279,4.4583,4.5159,4.5732,4.6301,4.6301,4.6301,4.6301,4.6301,4.6527,4.6878,4.6878,4.7431,4.8284,4.8284,4.8711,4.9339,4.9339,4.9464,4.959,4.959,4.959,4.959,4.959,4.959,4.959,4.959,4.959,4.959,4.959,4.959,4.959,4.959,4.959,4.959,4.959,4.959,4.959,4.959,4.959,4.959,4.959,4.959,4.959,4.959,4.959,4.959,4.959,4.959,4.959,4.959,4.959,4.959,4.959,4.959,4.959,4.959,4.959,4.959,4.959,4.959,4.959,4.959,4.959,4.959,4.959,4.9719,4.9719,4.9719,4.9847,4.9912,4.9912,5.0652,5.213,3.2676,3.3105,3.3223,3.2383,3.1523,3.043,2.8691,2.8301,2.793,2.666,2.6738,2.6894,2.6465,2.6477,2.6657,2.7149,2.838,2.9642,3.0574,3.1878,3.3078,3.3969,3.4132,3.461,3.5997,3.6949,3.7695,3.815,3.8191,3.7984,3.7529,3.7508,3.7508,3.7508,3.8529,3.9579,4.0594,4.2418,4.3927,4.5281,4.5611,4.5939,4.6301,4.6301,4.6301,4.6301,4.6301,4.6301,4.6326,4.6326,4.6652,4.7093,4.7093,4.7807,4.8786,4.8786,4.9113,4.959,4.959,4.959,4.959,4.959,4.959,4.959,4.959,4.959,4.959,4.959,4.959,4.959,4.959,4.959,4.959,4.959,4.959,4.959,4.959,4.959,4.959,4.959,4.959,4.959,4.959,4.959,4.959,4.959,4.959,4.959,4.959,4.959,4.959,4.959,4.959,4.959,4.959,4.959,4.959,4.959,4.959,4.959,4.959,4.959,4.959,4.959,4.9937,5.0104,5.0129,5.0423,5.0588,5.0588,5.1622,5.3322,3.1465,3.2012,3.2363,3.1504,3.0859,2.9961,2.8262,2.8086,2.8008,2.7012,2.6914,2.707,2.7226,2.6874,2.6738,2.7482,2.8032,2.8794,3.0036,3.1133,3.225,3.3451,3.4424,3.5418,3.6473,3.6846,3.7343,3.8129,3.81,3.8112,3.8205,3.7784,3.7382,3.7011,3.821,3.967,4.1217,4.2753,4.4329,4.5974,4.6059,4.618,4.6301,4.6301,4.6301,4.6301,4.6301,4.6301,4.6301,4.6301,4.6652,4.7068,4.7068,4.7807,4.8761,4.8761,4.9113,4.959,4.959,4.959,4.959,4.959,4.959,4.959,4.959,4.959,4.959,4.959,4.959,4.959,4.959,4.959,4.959,4.959,4.959,4.959,4.959,4.959,4.959,4.959,4.959,4.959,4.959,4.959,4.959,4.959,4.959,4.959,4.959,4.959,4.959,4.959,4.959,4.959,4.959,4.959,4.959,4.959,4.959,4.959,4.959,4.959,4.959,4.959,4.9937,5.0397,5.1042,5.1419,5.2041,5.2937,5.3932,5.4825,3.0508,3.1152,3.1523,3.0801,3.0176,2.9355,2.8041,2.7871,2.7851,2.7168,2.7148,2.7285,2.7402,2.6933,2.6677,2.7221,2.7521,2.8152,2.9539,3.0677,3.194,3.3451,3.4859,3.5914,3.6494,3.6701,3.7115,3.786,3.7945,3.8039,3.8273,3.8214,3.8015,3.773,3.8609,3.982,4.1321,4.2925,4.4486,4.5999,4.62,4.6301,4.6301,4.6301,4.6301,4.6301,4.6301,4.6301,0.0,4.6301,4.6527,4.6828,4.6828,4.738,4.8159,4.8159,4.8636,4.9289,4.9289,4.9414,4.959,4.959,4.959,4.959,4.959,4.959,4.959,4.959,4.959,4.959,4.959,4.959,4.959,4.959,4.959,4.959,4.959,4.959,4.959,4.959,4.959,4.959,4.959,4.959,4.959,4.959,4.959,4.959,4.959,4.959,4.959,4.959,4.959,4.959,4.959,4.959,4.959,4.959,4.959,4.959,4.959,4.9719,4.9783,4.9783,5.0487,5.122,5.1917,5.2596,5.351,5.4616,5.5236,5.5847,0.0,3.041,3.0684,3.0176,2.9512,2.873,2.7832,2.7728,0.0,2.7148,2.7363,2.75,2.7129,2.6725,2.6516,2.6536,2.6969,2.7828,2.9125,3.0574,3.2188,3.4049,3.5335,3.6121,3.6163,3.6556,3.7035,3.747,3.7698,3.7906,3.8113,3.8764,3.9145,3.9357,3.9579,4.0154,4.107,4.294,4.4481,4.5497,4.5999,4.6276,4.6301,4.6301,4.6301,4.6301,4.6301,4.6301,4.6301,4.6301,4.6301,4.6301,4.6301,4.6652,4.7068,4.7068,4.7832,4.8761,4.8761,4.9138,4.959,4.959,4.959,4.959,4.959,4.959,4.959,4.959,4.959,4.959,4.959,4.959,4.959,4.959,4.959,4.959,4.959,4.959,4.959,4.959,4.959,4.959,4.959,4.959,4.959,4.959,4.959,4.9615,4.964,4.9665,4.9665,4.9715,4.9715,4.969,4.9665,4.9615,4.959,4.959,4.959,4.959,4.959,4.9912,5.0129,5.0168,5.1622,5.2465,5.2834,5.4134,5.5113,5.5697,5.5988,5.6479,2.8262,0.0,2.9687,2.8926,2.9082,2.9023,0.0,2.7676,2.8027,2.7598,2.7324,2.7246,2.748,2.6973,2.6597,2.689,2.7419,2.8131,2.9166,3.1381,3.3596,3.5418,3.5914,3.6246,3.6618,3.6999,3.7359,3.7699,3.8094,3.8675,3.9394,3.9771,4.0165,4.0605,4.0956,4.1335,4.1694,4.2686,4.3977,4.5497,4.5623,4.5899,4.6301,4.6301,4.6301,4.6301,4.6301,4.6301,4.6301,4.6301,4.6301,4.6301,4.6301,4.6652,4.7068,4.7068,4.7832,4.8761,4.8761,4.9138,4.959,4.959,4.959,4.959,4.959,4.959,4.959,4.959,4.959,4.959,4.959,4.959,4.959,4.959,4.959,4.959,4.959,4.959,4.959,4.959,4.959,4.959,4.959,4.959,4.959,4.959,4.959,4.9741,5.0167,5.0218,5.0393,5.0845,5.0896,5.0695,5.0268,4.9841,4.959,4.959,4.959,4.959,4.959,4.9912,5.0461,5.1168,5.3423,5.4765,5.5147,5.6648,5.7484,5.7686,5.8234,5.861,2.7969,2.8594,2.9023,2.7969,2.8359,2.8633,2.7324,2.7519,2.7891,2.7461,2.7344,2.7266,2.7109,2.6774,2.6637,2.708,2.7419,2.8317,3.0284,3.2561,3.461,3.6225,3.6432,3.6618,3.7074,3.719,3.736,3.7883,3.8498,3.9294,4.0399,4.0864,4.1378,4.1948,4.2174,4.2127,4.1995,4.2749,4.3656,4.4719,4.5246,4.5648,4.5949,4.62,4.6301,4.6301,4.6301,4.6301,4.6301,4.6301,4.6301,4.6301,4.6301,4.6502,4.6753,4.6753,4.7431,4.8385,4.8385,4.8912,4.959,4.959,4.959,4.959,4.959,4.959,4.959,4.959,4.959,4.959,4.959,4.959,4.959,4.959,4.959,4.959,4.959,4.959,4.959,4.959,4.959,4.959,4.959,4.959,4.959,4.959,4.959,4.969,4.9992,5.0268,5.0544,5.0845,5.1122,5.1147,5.0845,5.0544,5.0268,4.9992,4.9741,4.9715,4.9967,5.0166,5.1068,5.2631,5.4619,5.5988,5.6765,5.7772,5.8464,5.8784,5.9132,5.9306,2.8125,2.8594,2.8711,2.7441,2.7715,2.8066,2.7207,2.7305,2.7461,2.709,2.7266,2.7266,2.6602,2.6556,2.6778,2.7281,2.7774,2.898,3.1836,3.3699,3.5231,3.6535,3.6701,3.6846,3.7239,3.7213,3.7455,3.8003,3.8896,3.9943,4.1215,4.181,4.24,4.2986,4.2986,4.2737,4.2231,4.2953,4.3512,4.3815,4.4869,4.5397,4.5497,4.605,4.6301,4.6326,4.6401,4.6376,4.6326,4.6401,4.6376,4.6301,4.6301,4.6301,4.6301,4.6301,4.6979,4.7933,4.8109,4.8786,4.959,4.959,4.959,4.959,4.959,4.959,4.959,4.959,4.959,4.959,4.959,4.959,4.959,4.959,4.959,4.959,4.959,4.959,4.959,4.959,4.959,4.959,4.959,4.959,4.959,4.959,4.959,4.9615,4.9715,5.0218,5.0569,5.067,5.1197,5.1498,5.1423,5.1398,5.1197,5.0695,5.0167,5.0132,5.065,5.1101,5.2269,5.4293,5.5749,5.6965,5.8032,5.8436,5.8871,5.9451,5.9539,5.9597,2.7904,2.8594,2.916,2.7943,2.793,2.8066,2.7207,2.707,2.709,2.7031,2.6777,2.666,2.6875,2.7013,2.7341,2.8146,2.9974,3.1733,3.2996,3.4152,3.5128,3.6101,3.6225,3.6246,3.6328,3.7064,3.7736,3.8208,3.9367,4.0629,4.1866,4.2287,4.2625,4.2986,4.2986,4.2986,4.2874,4.3006,4.3281,4.3815,4.4443,4.502,4.5497,4.605,4.6301,4.6326,4.6803,4.6753,4.6351,4.6803,4.6728,4.6301,4.6301,4.6301,4.6301,4.6301,4.6979,4.8033,4.9012,4.9439,4.959,4.959,4.959,4.959,4.959,4.959,4.959,4.959,4.959,4.959,4.959,4.959,4.959,4.959,4.959,4.959,4.959,4.959,4.959,4.959,4.959,4.959,4.959,4.959,4.959,4.959,4.959,4.9766,5.0218,5.0795,5.1322,5.18,5.2352,5.2477,5.2026,5.1975,5.195,5.185,5.1322,5.1311,5.198,5.3699,5.5003,5.5894,5.7817,5.8871,5.9074,5.9655,5.9974,6.009,6.0642,6.0903,2.8066,2.8437,2.875,2.8144,2.8496,2.8691,2.7617,2.7539,2.7578,2.7109,2.6855,2.6719,2.668,2.7152,2.8137,2.9778,3.1381,3.2727,3.3617,3.4401,3.5086,3.5997,3.5894,3.5832,3.608,3.6931,3.7835,3.873,3.9966,4.1263,4.2513,4.2681,4.3,4.3413,4.3137,4.3112,4.3413,4.3112,4.3112,4.3363,4.4217,4.4769,4.5045,4.5924,4.6301,4.6326,4.6577,4.6552,4.6326,4.6577,4.6552,4.6301,4.6301,4.6301,4.6376,4.6954,4.7481,4.8058,4.9188,4.959,4.959,4.959,4.959,4.959,4.959,4.959,4.959,4.959,4.959,4.959,4.959,4.959,4.959,4.959,4.959,4.959,4.959,4.959,4.959,4.959,4.959,4.959,4.959,4.959,4.959,4.959,4.959,4.969,4.9941,5.0745,5.1373,5.1624,5.2427,5.2829,5.2578,5.2553,5.2302,5.1699,5.1423,5.1453,5.1779,5.3432,5.4794,5.5795,5.7765,5.9103,5.98,6.0061,6.0206,6.0206,6.0526,6.0467,2.8301,2.8359,2.8398,2.8203,2.8633,2.8922,2.7943,2.7832,2.7812,2.7148,2.7012,2.6953,2.6738,2.7719,2.9233,3.1388,3.2514,3.3443,3.4351,3.4933,3.5598,3.631,3.6059,3.5996,3.6352,3.7227,3.8194,3.9334,4.0548,4.172,4.293,4.3112,4.3363,4.379,4.3388,4.3363,4.379,4.3263,4.2986,4.2986,4.4091,4.4618,4.4669,4.5799,4.6301,4.6326,4.6451,4.6426,4.6326,4.6451,4.6426,4.6301,4.6301,4.6301,4.6426,4.7506,4.7908,4.8058,4.9188,4.959,4.959,4.959,4.959,4.959,4.959,4.959,4.959,4.959,4.969,4.9791,4.9791,4.9891,4.9992,4.9992,4.9992,4.9967,4.9816,4.9791,4.9741,4.9615,4.959,4.959,4.959,4.959,4.959,4.959,4.959,4.959,4.959,5.0594,5.1272,5.1272,5.2277,5.2929,5.2929,5.2929,5.2578,5.1724,5.1674,5.1731,5.1804,5.3263,5.4576,5.5602,5.768,5.9219,6.0206,6.0351,6.0351,6.0206,6.0206,5.9887,2.8301,2.8574,2.8691,2.791,2.7806,2.7826,2.7748,2.7383,2.709,2.7031,2.7012,2.7129,2.75,2.9112,3.0822,3.2365,3.3622,3.4749,3.5473,3.6243,3.6907,3.7236,3.7275,3.7275,3.7297,3.8178,3.9085,4.0059,4.1009,4.2004,4.2986,4.3463,4.3765,4.379,4.3765,4.3765,4.379,4.3263,4.2986,4.2986,4.4091,4.4618,4.4669,4.5799,4.6301,4.6326,4.6853,4.6778,4.6351,4.6853,4.6778,4.6301,4.6301,4.6301,4.6426,4.7506,4.7908,4.8058,4.9188,4.959,4.959,4.959,4.959,4.959,4.959,4.959,4.959,4.959,4.9967,5.0368,5.0368,5.077,5.1172,5.1172,5.1172,5.1021,5.0469,5.0368,5.0218,4.969,4.959,4.959,4.959,4.959,4.959,4.959,4.959,4.959,4.959,5.0594,5.1272,5.1272,5.2277,5.2929,5.2929,5.2929,5.2904,5.2804,5.2804,5.2826,5.2982,5.4857,5.5987,5.6237,5.8765,6.0119,6.0206,6.0816,6.0816,6.0206,6.0206,5.9887,2.7969,2.8027,2.8066,2.7806,2.7728,2.7728,2.7728,2.7949,2.8125,2.7871,2.8008,2.8295,2.8686,2.9555,3.0806,3.2608,3.3855,3.5096,3.648,3.7341,3.7954,3.8469,3.8529,3.8529,3.8529,3.9239,4.0142,4.115,4.1953,4.2873,4.3933,4.4192,4.4468,4.4844,4.4493,4.4493,4.4844,4.394,4.3489,4.3489,4.3915,4.4292,4.4644,4.5447,4.6175,4.6803,4.6677,4.6702,4.6803,4.6677,4.6502,4.6301,4.6301,4.6301,4.6426,4.7506,4.7908,4.8058,4.9188,4.959,4.959,4.959,4.959,4.959,4.959,4.959,4.9665,5.0017,5.0519,5.087,5.0519,5.0845,5.1272,5.1272,5.1272,5.1122,5.0544,5.0419,5.0243,4.969,4.959,4.959,4.959,4.9891,5.0117,5.0117,5.0419,5.0645,5.0645,5.1322,5.18,5.18,5.2477,5.2929,5.2929,5.2929,5.2929,5.2929,5.2603,5.2573,5.311,5.4326,5.5387,5.6292,5.8108,5.9219,5.9626,5.9887,5.9684,5.9016,5.9016,5.8668,2.7578,2.7461,2.7422,2.7337,2.7513,2.7728,2.7728,2.832,2.8867,2.873,2.8926,2.9231,2.9505,2.9992,3.0967,3.2765,3.4022,3.5457,3.7436,3.8244,3.8961,3.9686,3.9826,3.9826,3.9826,4.0292,4.1085,4.2161,4.2732,4.3524,4.4535,4.4794,4.507,4.5472,4.5095,4.5095,4.5497,4.4367,4.379,4.379,4.3639,4.4016,4.492,4.5497,4.6351,4.7355,4.6803,4.6778,4.7043,4.6552,4.6301,4.6301,4.6301,4.6301,4.6426,4.7506,4.7908,4.8058,4.9188,4.959,4.959,4.959,4.959,4.959,4.959,4.9715,4.9941,5.0318,5.0971,5.1448,5.1046,5.1373,5.18,5.18,5.18,5.1599,5.0845,5.0695,5.0469,4.9741,4.959,4.959,4.959,5.0042,5.0419,5.0419,5.0921,5.1272,5.1272,5.1599,5.185,5.185,5.2327,5.2603,5.2427,5.2578,5.2603,5.2427,5.2051,5.2262,5.3084,5.4272,5.5223,5.6016,5.7765,5.8726,5.8987,5.919,5.8958,5.829,5.829,5.7942,2.7129,2.7012,2.6914,2.6504,2.7082,2.7728,2.7728,2.832,2.9043,2.9492,2.9646,2.9682,2.9925,3.0598,3.1548,3.2964,3.4318,3.5998,3.8194,3.9046,3.9807,4.0961,4.1148,4.1148,4.1148,4.1435,4.1997,4.2823,4.3243,4.3779,4.456,4.5171,4.5497,4.5497,4.5497,4.5497,4.5497,4.4367,4.3815,4.379,4.3237,4.3865,4.5497,4.605,4.6878,4.7883,4.7355,4.7129,4.7043,4.6552,4.6301,4.6301,4.6301,4.6301,4.6426,4.7506,4.7908,4.8058,4.9188,4.959,4.959,4.959,4.959,4.959,4.959,4.9967,5.0419,5.0419,5.1247,5.2101,5.2126,5.2528,5.2929,5.2929,5.2929,5.2628,5.1523,5.1272,5.0946,4.9816,4.959,4.959,4.959,5.0042,5.0419,5.0419,5.0921,5.1297,5.1297,5.1297,5.1297,5.1272,5.1774,5.1875,5.1322,5.1774,5.1875,5.1322,5.1272,5.1857,5.3059,5.5017,5.585,5.5436,5.7965,5.8958,5.829,5.8958,5.8958,5.829,5.829,5.7942,2.6777,2.6582,2.6621,2.6777,2.7246,2.7865,2.8418,2.8984,2.959,3.0351,3.0234,3.0076,3.0133,3.0684,3.164,3.3205,3.4806,3.6748,3.9373,4.0274,4.1111,4.2294,4.2457,4.2457,4.2457,4.2513,4.3024,4.4003,4.4219,4.4527,4.5196,4.5773,4.5899,4.5497,4.5874,4.6075,4.6075,4.4945,4.4367,4.4367,4.3438,4.3639,4.4895,4.5045,4.5949,4.733,4.6803,4.6778,4.7043,4.6552,4.6301,4.6301,4.6301,4.6301,4.6401,4.7104,4.7355,4.7531,4.8636,4.9012,4.9088,4.9464,4.959,4.959,4.959,4.9967,5.0494,5.0921,5.1548,5.2201,5.2578,5.2804,5.2929,5.2929,5.2929,5.2628,5.1523,5.1272,5.0946,4.9816,4.959,4.959,4.959,5.0042,5.0544,5.0971,5.1498,5.185,5.185,5.185,5.1699,5.1322,5.1774,5.1875,5.1322,5.1774,5.1875,5.1322,5.1272,5.1681,5.2495,5.4033,5.5005,5.5408,5.7022,5.7797,5.7594,5.7797,5.7797,5.7594,5.7594,5.7507,2.6738,2.6523,2.6523,2.7129,2.7598,2.8184,2.9199,2.9785,3.0254,3.0781,3.0664,3.041,3.0234,3.0903,3.201,3.3454,3.5058,3.7077,3.9695,4.0501,4.1235,4.2559,4.2715,4.2791,4.2961,4.2986,4.3338,4.4242,4.4292,4.4543,4.5121,4.5673,4.5824,4.5497,4.6024,4.6301,4.6301,4.5422,4.4844,4.4618,4.374,4.3765,4.4644,4.4869,4.5874,4.7405,4.6878,4.6828,4.7043,4.6552,4.6301,4.6301,4.6301,4.6301,4.6376,4.6928,4.7068,4.728,4.8385,4.8761,4.8862,4.9414,4.959,4.959,4.959,5.0142,5.082,5.1197,5.1825,5.2503,5.2854,5.2929,5.2929,5.2929,5.2929,5.2678,5.18,5.1599,5.1348,5.0444,5.0268,5.0193,4.9967,5.0569,5.1122,5.1272,5.195,5.2277,5.1825,5.1774,5.1473,5.0695,5.1096,5.1222,5.0645,5.1122,5.1197,5.0645,5.0619,5.0922,5.1574,5.3581,5.4931,5.5408,5.6879,5.7565,5.7303,5.7303,5.7303,5.7303,5.7303,5.7303,2.6875,2.6738,2.6699,2.7571,2.8105,2.8789,2.998,3.0586,3.0898,3.0898,3.0898,3.0762,3.0332,3.1314,3.2633,3.3726,3.526,3.7122,3.9447,3.9972,4.0636,4.2032,4.2213,4.2414,4.2911,4.2986,4.3212,4.3765,4.379,4.4016,4.4518,4.5146,4.5472,4.5422,4.5999,4.6301,4.6301,4.5773,4.5196,4.4618,4.4066,4.4066,4.4568,4.5095,4.6225,4.7732,4.7205,4.6993,4.7043,4.6552,4.6301,4.6301,4.6301,4.6301,4.6376,4.6878,4.7054,4.7205,4.8259,4.8661,4.8786,4.9339,4.9565,4.959,4.959,5.0393,5.1272,5.1272,5.2076,5.2929,5.2929,5.2929,5.2929,5.2929,5.2929,5.2779,5.2226,5.2101,5.195,5.1398,5.1272,5.1122,5.0594,5.1348,5.1875,5.1423,5.2251,5.2528,5.1423,5.1272,5.0845,4.9715,5.0092,5.0193,4.964,5.0092,5.0167,4.9615,4.959,4.9912,5.0588,5.3547,5.5176,5.5325,5.7251,5.7913,5.7303,5.7303,5.7303,5.7303,5.7303,5.7303,2.6582,2.6953,2.7571,2.8027,2.8984,2.9961,3.0586,3.082,3.0898,3.0898,3.0898,3.0859,3.0762,3.1765,3.3134,3.4714,3.6062,3.7715,4.0003,4.0395,4.0874,4.2087,4.2213,4.2414,4.2911,4.2986,4.3212,4.3765,4.379,4.384,4.3966,4.4945,4.5271,4.4819,4.5799,4.6301,4.6301,4.5773,4.5196,4.4618,4.4066,4.3865,4.3991,4.4116,4.507,4.6627,4.6075,4.6326,4.7043,4.6552,4.6301,4.6301,4.6301,4.6301,4.6326,4.6451,4.6502,4.6577,4.7255,4.7757,4.8184,4.8761,4.9238,4.959,4.959,5.0393,5.1272,5.1272,5.2076,5.2929,5.2929,5.2929,5.2929,5.2929,5.2929,5.2779,5.2226,5.2101,5.195,5.1398,5.1272,5.1247,5.1122,5.1297,5.1574,5.1875,5.2503,5.2528,5.1423,5.1272,5.0845,4.9715,5.0092,5.0193,4.964,5.0092,5.0167,4.9615,4.959,4.9912,5.0588,5.2713,5.4139,5.469,5.6566,5.7448,5.7303,5.7303,5.7303,5.7303,5.7303,5.7303,2.6953,2.748,2.8164,2.9004,2.9883,3.0586,3.084,3.0898,3.0898,3.0898,3.0898,3.0898,3.0898,3.1903,3.3289,3.5035,3.6294,3.7833,3.9813,4.0124,4.0425,4.1279,4.1379,4.1681,4.2564,4.264,4.2811,4.3363,4.3413,4.3413,4.3413,4.4468,4.4945,4.4644,4.5723,4.6301,4.6301,4.6024,4.5447,4.4618,4.4342,4.3915,4.3413,4.3966,4.497,4.6276,4.5723,4.6125,4.7043,4.6552,4.6301,4.6301,4.6301,4.6301,4.6301,4.6301,4.6301,4.6401,4.6892,4.7481,4.8008,4.8586,4.9138,4.959,4.959,5.0393,5.1272,5.1272,5.2076,5.2929,5.2929,5.2929,5.2929,5.2929,5.2929,5.2854,5.2553,5.2503,5.2427,5.2126,5.2076,5.1975,5.1724,5.1448,5.1473,5.2026,5.2126,5.1825,5.0971,5.1096,5.0946,5.0092,5.0494,5.072,5.0419,5.067,5.072,5.0419,5.0393,5.072,5.1408,5.3298,5.4412,5.4497,5.6366,5.7303,5.7303,5.7303,5.7303,5.7303,5.7303,5.7303,2.7344,2.8027,2.8809,3.0019,3.0605,3.0898,3.0898,3.0898,3.0898,3.0898,3.0898,3.0898,3.0898,3.1903,3.3289,3.5035,3.6294,3.7684,3.9465,3.9697,3.9898,4.045,4.0526,4.0902,4.1907,4.2162,4.2389,4.2811,4.2911,4.2986,4.2986,4.4016,4.4618,4.4618,4.5723,4.6301,4.6301,4.6301,4.5799,4.4769,4.4568,4.3966,4.3011,4.4016,4.5095,4.6125,4.5573,4.6024,4.7043,4.6552,4.6301,4.6301,4.6301,4.6301,4.6301,4.6301,4.6301,4.6376,4.6828,4.733,4.7857,4.8435,4.9012,4.9464,4.9565,5.0393,5.1272,5.1272,5.2076,5.2929,5.2929,5.2929,5.2929,5.2929,5.2929,5.2929,5.2929,5.2929,5.2929,5.2929,5.2929,5.2754,5.2201,5.1724,5.1548,5.19,5.1574,5.1096,5.0619,5.0996,5.1096,5.0619,5.0996,5.1272,5.1272,5.1272,5.1272,5.1272,5.1272,5.1605,5.224,5.423,5.5122,5.4828,5.6594,5.7419,5.7303,5.7303,5.7303,5.7303,5.7303,5.7303,2.6973,2.8223,2.9629,3.0566,3.084,3.0898,3.0898,3.0898,3.0898,3.0898,3.0898,3.0898,3.0898,3.1903,3.3289,3.5035,3.6294,3.7684,3.9465,3.9697,3.9898,4.045,4.0526,4.0752,4.1326,4.1882,4.2238,4.2313,4.2766,4.2986,4.2986,4.4016,4.4618,4.4618,4.5723,4.6301,4.6301,4.6301,4.5999,4.5372,4.4392,4.3589,4.3011,4.3639,4.4518,4.5573,4.4995,4.5648,4.7043,4.6552,4.6301,4.6301,4.6301,4.6301,4.6301,4.6301,4.6301,4.6326,4.6401,4.6778,4.733,4.7857,4.841,4.8962,4.9439,5.0393,5.1272,5.1272,5.2076,5.2929,5.2929,5.2929,5.2929,5.2929,5.2929,5.2929,5.2929,5.2929,5.2929,5.2929,5.2929,5.2754,5.2201,5.2051,5.185,5.1448,5.1322,5.1247,5.1172,5.1222,5.1247,5.1172,5.1247,5.1272,5.1272,5.1272,5.1272,5.1272,5.1272,5.1605,5.224,5.423,5.5504,5.6071,5.7421,5.7884,5.7303,5.7303,5.7303,5.7303,5.7303,5.7303,2.7715,2.8809,2.9785,3.0664,3.0898,3.0898,3.0898,3.0898,3.0898,3.0898,3.0995,3.1112,3.1112,3.2227,3.3719,3.5288,3.6511,3.7897,3.9465,3.9697,3.9798,4.0023,4.0049,4.0275,4.0827,4.1379,4.1831,4.2187,4.2715,4.2836,4.259,4.3564,4.4166,4.4166,4.5271,4.5999,4.6301,4.6301,4.6024,4.5472,4.4342,4.3689,4.3438,4.3689,4.4242,4.4995,4.507,4.5698,4.6652,4.6401,4.6301,4.6301,4.6301,4.6301,4.6301,4.6301,4.6301,4.6301,4.6301,4.6677,4.7179,4.7405,4.8058,4.8812,4.9063,5.0142,5.1272,5.1272,5.2076,5.2929,5.2929,5.2929,5.2929,5.2929,5.2929,5.2929,5.2929,5.2929,5.2929,5.2929,5.2929,5.2754,5.2201,5.185,5.1448,5.087,5.0795,5.0795,5.0795,5.1348,5.1749,5.1749,5.2026,5.2201,5.2201,5.2201,5.2201,5.2201,5.2201,5.254,5.3253,5.4825,5.5925,5.6534,5.7705,5.8145,5.7855,5.7477,5.7303,5.7303,5.7303,5.7303,2.8105,2.8926,2.9453,3.0332,3.0644,3.0723,3.0723,3.0801,3.0898,3.0898,3.117,3.1498,3.171,3.2856,3.4224,3.5804,3.6965,3.8108,3.9517,3.9697,3.9697,3.9697,3.9697,3.9848,4.0275,4.0802,4.1304,4.1706,4.2258,4.2384,4.1957,4.2861,4.3514,4.379,4.4769,4.5598,4.6301,4.6301,4.6024,4.5472,4.4644,4.4091,4.3815,4.4091,4.4367,4.4669,4.5372,4.5999,4.6527,4.6527,4.6527,4.6502,4.6376,4.6301,4.6301,4.6301,4.6301,4.6301,4.6301,4.6577,4.7004,4.7405,4.8109,4.8862,4.9289,5.0393,5.1498,5.1498,5.2176,5.2929,5.2929,5.2929,5.2929,5.2929,5.2929,5.2929,5.2929,5.2929,5.2929,5.2929,5.2929,5.2754,5.2201,5.1649,5.1147,5.0695,5.0519,5.0519,5.0795,5.1574,5.2151,5.2302,5.2678,5.2929,5.2929,5.2929,5.2929,5.2929,5.2929,5.3204,5.3861,5.5061,5.5969,5.6532,5.768,5.8234,5.8176,5.7566,5.7303,5.7303,5.7303,5.736,2.7532,2.8047,2.8574,2.9434,2.9941,3.0234,3.0234,3.0566,3.0898,3.0898,3.1344,3.2018,3.2835,3.3515,3.467,3.6696,3.7578,3.8368,3.9542,3.9697,3.9697,3.9697,3.9697,3.9697,3.9747,4.0249,4.0576,4.0601,4.1103,4.1351,4.1326,4.1932,4.2766,4.3765,4.4367,4.5196,4.6301,4.6301,4.6024,4.5497,4.5422,4.4844,4.384,4.492,4.5121,4.4694,4.5799,4.6577,4.7043,4.7043,4.7043,4.7029,4.6527,4.6301,4.6301,4.6301,4.6301,4.6301,4.6301,4.6326,4.6602,4.8184,4.8736,4.9063,5.067,5.1574,5.2076,5.2076,5.2477,5.2929,5.2929,5.2929,5.2929,5.2929,5.2929,5.2929,5.2929,5.2929,5.2929,5.2929,5.2929,5.2754,5.2201,5.1649,5.1272,5.1247,5.077,5.0795,5.1875,5.2076,5.2302,5.2829,5.2904,5.2929,5.2929,5.2929,5.2929,5.2929,5.2929,5.3067,5.3478,5.4511,5.5393,5.609,5.746,5.8001,5.783,5.7453,5.7303,5.7303,5.7303,5.7472,2.6758,2.7363,2.8027,2.8613,2.9062,2.9531,3.0078,3.0332,3.0527,3.082,3.1402,3.2227,3.3663,3.4302,3.5113,3.6804,3.7737,3.8526,3.931,3.9594,3.9697,3.9697,3.9697,3.9697,3.9697,4.0199,4.0526,4.0526,4.0974,4.1125,4.0774,4.1681,4.2389,4.2791,4.3614,4.4644,4.5773,4.6125,4.62,4.6024,4.5648,4.5271,4.4895,4.5296,4.5372,4.5271,4.6702,4.7255,4.7068,4.7068,4.7068,4.7079,4.6527,4.6301,4.6301,4.6301,4.6301,4.6301,4.6301,4.6753,4.7431,4.8033,4.8937,4.9941,5.0544,5.1373,5.2101,5.2101,5.2503,5.2929,5.2929,5.2929,5.2929,5.2929,5.2929,5.2929,5.2929,5.2929,5.2929,5.2929,5.2929,5.2754,5.2201,5.195,5.1699,5.1322,5.1398,5.1649,5.2051,5.2427,5.2703,5.2904,5.2929,5.2929,5.2929,5.2929,5.2929,5.2929,5.2929,5.3067,5.3478,5.4064,5.4846,5.5749,5.6913,5.7561,5.776,5.7888,5.771,5.7303,5.7528,5.7669,2.6133,2.6699,2.7344,2.7754,2.8184,2.8652,2.9219,2.9682,3.0072,3.0523,3.1351,3.2556,3.4258,3.5024,3.585,3.7311,3.8027,3.8631,3.9206,3.9465,3.9594,3.9697,3.9697,3.9697,3.9697,4.0023,4.0325,4.0501,4.0852,4.0924,4.0802,4.148,4.2057,4.2464,4.3514,4.4518,4.5472,4.5849,4.6125,4.6301,4.5949,4.5673,4.5497,4.5673,4.5673,4.5573,4.7205,4.7707,4.738,4.738,4.738,4.733,4.6602,4.6301,4.6301,4.6301,4.6301,4.6326,4.6527,4.7154,4.8008,4.856,4.964,5.077,5.1147,5.1774,5.2377,5.2377,5.2653,5.2929,5.2929,5.2929,5.2929,5.2929,5.2929,5.2929,5.2929,5.2929,5.2929,5.2929,5.2929,5.2804,5.2452,5.2226,5.2051,5.185,5.2,5.2176,5.2352,5.2703,5.2929,5.2929,5.2929,5.2929,5.2929,5.2929,5.2929,5.2929,5.2929,5.2998,5.3273,5.3521,5.4064,5.5046,5.6401,5.7128,5.7234,5.7943,5.7971,5.7303,5.7528,5.7725,0.0,0.0,0.0,2.6855,2.7285,2.765,2.7669,2.8548,2.9461,2.9897,3.1338,3.2997,3.4637,3.5685,3.6742,3.8133,3.8396,3.8631,3.9206,3.931,3.9413,3.9697,3.9697,3.9697,3.9697,3.9697,3.9948,4.0475,4.0526,4.0777,4.125,4.13,4.1856,4.2936,4.4041,4.4869,4.5447,4.5472,4.5773,4.6301,4.6301,4.6024,4.5522,4.6075,4.6024,4.5598,4.7205,4.7908,4.7908,4.7908,4.7908,4.7807,4.6728,4.6301,4.6301,4.6301,4.6301,4.6401,4.6892,4.7481,4.8234,4.9891,5.082,5.1523,5.2603,5.2929,5.2929,5.2929,5.2929,5.2929,5.2929,5.2929,5.2929,5.2929,5.2929,5.2929,5.2929,5.2929,5.2929,5.2929,5.2929,5.2929,5.2929,5.2477,5.2302,5.2854,5.2477,5.2327,5.2854,5.2929,5.2929,5.2929,5.2929,5.2929,5.2929,5.2929,5.2929,5.2929,5.2929,5.2929,5.2929,5.2929,5.3247,5.3997,5.5959,5.6723,5.6197,5.7651,5.7971,5.7303,5.7303,5.764,2.4746,0.0,0.0,0.0,0.0,0.0,2.6602,2.7353,2.8309,2.9632,3.1162,3.2868,3.4922,3.5979,3.6904,3.7921,3.8238,3.8526,3.8893,3.9154,3.9413,3.9697,3.9697,3.9697,3.9697,4.0049,4.035,4.0501,4.0824,4.1125,4.1275,4.1706,4.2258,4.2961,4.3664,4.4292,4.4844,4.5271,4.5773,4.6301,4.6301,4.6225,4.6075,4.625,4.6225,4.615,4.738,4.7908,4.7908,4.7908,4.7908,4.7807,4.6728,4.6301,4.6301,4.6301,4.6301,4.6401,4.6892,4.8008,4.9264,5.0142,5.1348,5.2528,5.2829,5.2929,5.2929,5.2929,5.2929,5.2929,5.2929,5.2929,5.2929,5.2929,5.2929,5.2929,5.2929,5.2929,5.2929,5.2929,5.2929,5.2929,5.2929,5.2804,5.2754,5.2904,5.2804,5.2754,5.2904,5.2929,5.2929,5.2929,5.2929,5.2929,5.2929,5.2929,5.2929,5.2929,5.2929,5.2929,5.2929,5.2929,5.3247,5.3997,5.5959,5.6941,5.6921,5.8365,5.8435,5.7303,5.7528,5.8003,2.4375,2.4414,2.4531,2.4961,0.0,0.0,2.5449,2.633,2.7392,2.8685,3.0348,3.2088,3.396,3.5054,3.5934,3.6859,3.722,3.7754,3.8662,3.8945,3.9258,3.9645,3.9697,3.9697,3.9697,4.0199,4.0601,4.0852,4.1379,4.1781,4.2007,4.2333,4.2715,4.2961,4.3288,4.384,4.4618,4.497,4.5522,4.6301,4.6301,4.6301,4.6301,4.6301,4.6301,4.6376,4.7431,4.7908,4.7908,4.7908,4.7908,4.7807,4.6728,4.6301,4.6301,4.6301,4.6451,4.6778,4.7556,4.8736,5.0067,5.087,5.195,5.2929,5.2929,5.2929,5.2929,5.2929,5.2929,5.2929,5.2929,5.2929,5.2929,5.2929,5.2929,5.2929,5.2929,5.2929,5.2929,5.2929,5.2929,5.2929,5.2929,5.2929,5.2929,5.2929,5.2929,5.2929,5.2929,5.2929,5.2929,5.2929,5.2929,5.2929,5.2929,5.2929,5.2929,5.2929,5.2929,5.2929,5.2929,5.2929,5.3247,5.3997,5.5959,5.7468,5.8466,5.9038,5.861,5.7303,5.7669,5.8059,2.4375,2.4453,2.4512,2.4902,2.4668,0.0,2.4277,2.5298,2.6444,2.7275,2.8986,3.0773,3.2274,3.3237,3.4157,3.5086,3.5581,3.647,3.8387,3.869,3.8948,3.9569,3.9697,3.9697,3.9697,4.0249,4.0802,4.125,4.1907,4.2514,4.2961,4.2986,4.2986,4.2986,4.3037,4.3564,4.4618,4.4694,4.5246,4.6301,4.6301,4.6301,4.6301,4.6301,4.6301,4.6376,4.7431,4.7908,4.7908,4.7908,4.7908,4.7807,4.6728,4.6301,4.6326,4.6376,4.6702,4.7305,4.846,4.954,5.0594,5.1724,5.2477,5.2929,5.2929,5.2929,5.2929,5.2929,5.2929,5.2929,5.2929,5.2929,5.2929,5.2929,5.2929,5.2929,5.2929,5.2929,5.2929,5.2929,5.2929,5.2929,5.2929,5.2929,5.2929,5.2929,5.2929,5.2929,5.2929,5.2929,5.2929,5.2929,5.2929,5.2929,5.2929,5.2929,5.2929,5.2929,5.2929,5.2929,5.2929,5.2929,5.3247,5.3997,5.609,5.8161,6.0206,5.9597,5.8697,5.7536,5.7817,5.8097,2.4824,2.4687,2.4434,2.4531,2.4219,0.0,2.3413,2.4033,2.4982,2.6165,2.7488,2.8919,3.058,3.1555,3.2316,3.305,3.4093,3.5514,3.7567,3.8047,3.8529,3.926,3.9594,3.9697,3.9697,4.0601,4.1175,4.1275,4.2258,4.2861,4.2961,4.2986,4.2986,4.2986,4.3413,4.3966,4.4618,4.5095,4.5648,4.6301,4.6301,4.6301,4.6301,4.6301,4.6301,4.6376,4.7431,4.7908,4.7908,4.7908,4.7908,4.7807,4.6728,4.6301,4.6376,4.6803,4.6993,4.7294,4.8912,4.9866,5.0594,5.1724,5.2477,5.2929,5.2929,5.2929,5.2929,5.2929,5.2929,5.2929,5.2929,5.2929,5.2929,5.2929,5.2929,5.2929,5.2929,5.2929,5.2929,5.2929,5.2929,5.2929,5.2929,5.2929,5.2929,5.2929,5.2929,5.2929,5.2929,5.2929,5.2929,5.2929,5.2929,5.2929,5.2929,5.2929,5.2929,5.2929,5.2929,5.2929,5.2929,5.2929,5.3247,5.3997,5.6547,5.8687,6.0206,5.9597,5.9161,5.89,5.8987,5.9303,2.4941,2.4746,2.4414,2.4414,2.4102,0.0,0.0,2.3742,2.4565,2.5348,2.6355,2.7462,2.8683,2.9528,3.0292,3.1107,3.2271,3.3714,3.5572,3.7012,3.8199,3.9183,3.9413,3.9542,3.9697,4.0701,4.1555,4.2108,4.266,4.2986,4.2986,4.2986,4.2986,4.2986,4.3514,4.4066,4.4618,4.5196,4.5773,4.6301,4.6301,4.6301,4.6301,4.6301,4.6301,4.6376,4.7431,4.7908,4.7908,4.7908,4.7908,4.7807,4.6728,4.6301,4.6376,4.6928,4.7305,4.7757,4.9414,5.0368,5.1021,5.2151,5.2703,5.2929,5.2929,5.2929,5.2929,5.2929,5.2929,5.2929,5.2929,5.2929,5.2929,5.2929,5.2929,5.2929,5.2929,5.2929,5.2929,5.2929,5.2929,5.2929,5.2929,5.2929,5.2929,5.2929,5.2929,5.2929,5.2929,5.2929,5.2929,5.2929,5.2929,5.2929,5.2929,5.2929,5.2929,5.2929,5.2929,5.2929,5.2929,5.2929,5.37,5.5459,5.7194,5.898,6.07,6.0409,5.9916,5.9306,5.9306,5.951,2.5352,2.5137,2.4746,2.459,2.4219,2.3769,0.0,0.0,0.0,2.4761,2.5446,2.6264,2.7091,2.7696,2.8411,2.9353,3.0512,3.1828,3.3359,3.5429,3.7258,3.863,3.8983,3.9212,3.9418,4.0473,4.1605,4.2585,4.276,4.2866,4.2866,4.2911,4.2986,4.2986,4.3614,4.4166,4.4618,4.5296,4.5874,4.6301,4.6301,4.6301,4.6301,4.6301,4.6301,4.6376,4.7431,4.7908,4.7908,4.7908,4.7908,4.7807,4.6728,4.6301,4.6401,4.7054,4.7556,4.8159,4.9967,5.0896,5.1473,5.2578,5.2929,5.2929,5.2929,5.2929,5.2929,5.2929,5.2929,5.2929,5.2929,5.2929,5.2929,5.2929,5.2929,5.2929,5.2929,5.2929,5.2929,5.2929,5.2929,5.2929,5.2929,5.2929,5.2929,5.2929,5.2929,5.2929,5.2929,5.2929,5.2929,5.2929,5.2929,5.2929,5.2929,5.2929,5.2929,5.2998,5.2998,5.3067,5.3136,5.3316,5.4619,5.7038,5.7897,5.9273,6.1193,6.1193,6.0671,5.9684,5.9684,5.9801,2.6777,2.6484,2.5977,2.5195,2.4668,2.4141,2.3276,0.0,2.3791,2.442,0.0,2.5295,2.6411,0.0,0.0,2.7918,2.9173,3.0449,3.1752,3.3017,3.4583,3.6818,3.7986,3.8588,3.8639,3.9792,4.0852,4.1426,4.1982,4.2313,4.2313,4.271,4.2986,4.2986,4.3991,4.4568,4.4618,4.5673,4.625,4.6301,4.6301,4.6301,4.6301,4.6301,4.6301,4.6376,4.7431,4.7908,4.7908,4.7908,4.7908,4.7807,4.6728,4.6301,4.6426,4.7456,4.7857,4.8234,5.0419,5.1222,5.1473,5.2578,5.2929,5.2929,5.2929,5.2929,5.2929,5.2929,5.2929,5.2929,5.2929,5.2929,5.2929,5.2929,5.2929,5.2929,5.2929,5.2929,5.2929,5.2929,5.2929,5.2929,5.2929,5.2929,5.2929,5.2929,5.2929,5.2929,5.2929,5.2929,5.2929,5.2929,5.2929,5.2929,5.2929,5.2929,5.3067,5.341,5.341,5.3546,5.3861,5.4779,5.5986,5.7515,5.8585,5.9797,6.1193,6.1193,6.1135,6.099,6.099,6.114,2.7247,2.7051,2.6665,2.5722,2.5166,2.4609,2.3736,2.4129,2.4836,2.5292,0.0,0.0,0.0,0.0,0.0,0.0,2.8818,2.9669,3.0644,3.1452,3.294,3.5624,3.6651,3.759,3.8835,3.9892,4.0752,4.125,4.1555,4.1831,4.2187,4.274,4.2986,4.2986,4.4041,4.4618,4.4618,4.5748,4.6301,4.6301,4.6301,4.6301,4.6301,4.6301,4.6301,4.6376,4.7431,4.7908,4.7908,4.7908,4.7908,4.7832,4.7079,4.6778,4.6878,4.7631,4.8335,4.9113,5.072,5.1498,5.19,5.2678,5.2929,5.2929,5.2929,5.2929,5.2854,5.2528,5.2678,5.2854,5.2528,5.2678,5.2929,5.2929,5.2929,5.2929,5.2929,5.2929,5.2929,5.2929,5.2929,5.2929,5.2929,5.2929,5.2929,5.2929,5.2929,5.2929,5.2929,5.2929,5.2929,5.2929,5.2929,5.2929,5.2929,5.2929,5.3067,5.3478,5.4241,5.502,5.5696,5.6379,5.7285,5.8467,5.9121,6.0043,6.1193,6.1193,6.1193,6.1193,6.1193,6.1253,2.8044,2.7895,2.7513,2.6783,2.6172,2.5513,2.4586,2.5207,2.6152,2.665,2.7589,0.0,0.0,0.0,2.8729,2.8615,0.0,2.9248,2.9821,3.0206,3.1472,3.4193,3.5503,3.6898,3.8686,3.9567,4.0174,4.0348,4.0648,4.1128,4.1681,4.2414,4.2866,4.2961,4.4041,4.4618,4.4618,4.5748,4.6301,4.6301,4.6301,4.6301,4.6301,4.6301,4.6301,4.6376,4.7431,4.7908,4.7908,4.7908,4.7908,4.7857,4.733,4.723,4.7431,4.8109,4.8887,4.9766,5.1071,5.1875,5.2402,5.2804,5.2829,5.2729,5.2879,5.2829,5.2628,5.2226,5.2503,5.2804,5.2251,5.2528,5.2929,5.2929,5.2929,5.2929,5.2929,5.2929,5.2929,5.2929,5.2929,5.2929,5.2929,5.2929,5.2929,5.2929,5.2929,5.2929,5.2929,5.2929,5.2929,5.2929,5.2929,5.2929,5.2929,5.2929,5.3136,5.3725,5.4913,5.592,5.6742,5.735,5.8052,5.8933,5.9493,6.0226,6.1193,6.1193,6.1193,6.1193,6.1193,6.1193,2.9629,2.933,2.881,2.8665,2.7914,2.6977,2.5953,2.6381,2.7251,2.8388,2.9262,3.005,3.0683,3.0788,3.0494,2.9419,2.9292,0.0,0.0,2.934,3.0158,3.2322,3.4916,3.6776,3.7593,3.8417,3.8693,3.8165,3.912,3.9998,4.0551,4.1605,4.2489,4.2961,4.4041,4.4618,4.4618,4.5748,4.6301,4.6301,4.6301,4.6301,4.6301,4.6301,4.6301,4.6376,4.7431,4.7908,4.7908,4.7908,4.7908,4.7857,4.733,4.7431,4.8008,4.9138,4.9565,4.9841,5.1498,5.2452,5.2904,5.2929,5.2578,5.2226,5.2754,5.2553,5.2126,5.2101,5.2503,5.2804,5.2251,5.2528,5.2929,5.2929,5.2929,5.2929,5.2929,5.2929,5.2929,5.2929,5.2929,5.2929,5.2929,5.2929,5.2929,5.2929,5.2929,5.2929,5.2929,5.2929,5.2929,5.2929,5.2929,5.2929,5.2929,5.2929,5.3316,5.4443,5.518,5.5736,5.6105,5.7174,5.798,5.862,5.9645,6.0499,6.1193,6.1193,6.1193,6.1193,6.1193,6.1193,2.9816,2.9827,2.9679,2.9742,2.9151,2.8431,2.7943,2.8542,2.9348,2.9908,3.1033,3.2033,3.2421,3.1934,0.0,0.0,0.0,2.9292,0.0,2.9605,3.023,3.1288,3.3793,3.5642,3.6208,3.7493,3.8216,3.8015,3.8366,3.8994,3.9923,4.1028,4.1856,4.2464,4.3865,4.4618,4.4618,4.5748,4.6301,4.6301,4.6301,4.6301,4.6301,4.6301,4.6502,4.6903,4.7606,4.8134,4.846,4.8058,4.7908,4.7883,4.7707,4.7757,4.8033,4.9188,5.0067,5.0896,5.2201,5.2779,5.2929,5.2929,5.2804,5.2628,5.2427,5.2251,5.2026,5.1649,5.195,5.2352,5.2151,5.2528,5.2929,5.2929,5.2929,5.2929,5.2929,5.2929,5.2929,5.2929,5.2929,5.2929,5.2929,5.2929,5.2929,5.2929,5.2929,5.2929,5.2929,5.2929,5.2929,5.2929,5.2929,5.2929,5.2929,5.3136,5.3725,5.4753,5.5286,5.5855,5.6677,5.7285,5.8052,5.8933,5.9521,6.0287,6.1193,6.1193,6.1193,6.1193,6.1193,6.1193,3.058,3.0678,3.0752,3.1374,3.0987,3.0463,3.0468,3.1065,3.1668,3.1852,3.2912,3.3887,3.4102,3.338,3.2611,0.0,0.0,0.0,0.0,2.9701,3.0086,3.0826,3.304,3.459,3.4981,3.6376,3.7165,3.686,3.7387,3.8115,3.9044,4.035,4.1379,4.2187,4.3765,4.4618,4.4618,4.5748,4.6301,4.6301,4.6301,4.6301,4.6301,4.6301,4.6602,4.7093,4.7682,4.8234,4.8736,4.8159,4.7908,4.7908,4.7908,4.7908,4.8083,4.9615,5.0896,5.1975,5.2678,5.2929,5.2929,5.2929,5.2804,5.2578,5.2201,5.2101,5.2,5.1448,5.1825,5.2352,5.2151,5.2528,5.2929,5.2929,5.2929,5.2929,5.2929,5.2929,5.2929,5.2929,5.2929,5.2929,5.2929,5.2929,5.2929,5.2929,5.2929,5.2929,5.2929,5.2929,5.2929,5.2929,5.2929,5.2929,5.2929,5.3273,5.3793,5.4619,5.4953,5.5525,5.6287,5.6769,5.7606,5.8746,5.9183,6.0014,6.1193,6.1193,6.1193,6.1193,6.1193,6.1253]}]]